[[{"header":{"parameterUnit":"m.s-1","parameterCategory":1,"la1":30.6,"la2":29.2853,"lo1":-89.7004,"lo2":-87.6739,"dx":0.0162,"dy":0.0183,"nx":112,"ny":82,"refTime":"2022-12-18T06:00:00:Z","depth":0,"parameterNumber":2,"parameterNumberName":"U-component_of_WINDS"},"data":[0.0,0.0,0.0,0.0,0.0,0.0,0.0,0.0,0.0,0.0,0.0,0.0,0.0,0.0,0.0,0.0,0.0,0.0,0.0,0.0,0.0,0.0,0.0,0.0,0.0,0.0,0.0,0.0,0.0,0.0,0.0,0.0,0.0,0.0,0.0,0.0,0.0,0.0,0.0,0.0,0.0,0.0,0.0,0.0,0.0,0.0,0.0,0.0,0.0,0.0,0.0,0.0,0.0,0.0,0.0,0.0,0.0,0.0,0.0,0.0,0.0,0.0,0.0,0.0,0.0,0.0,0.0,0.0,0.0,0.0,0.0,0.0,0.0,0.0,0.0,0.0,0.0,0.0,0.0,0.0,0.0,0.0,0.0,0.0,0.0,0.0,0.0,0.0,0.0,0.0,3.2591,3.3269,3.3746,3.4022,3.4022,3.4022,3.3596,3.252,0.0,0.0,0.0,0.0,0.0,0.0,0.0,0.0,0.0,0.0,0.0,0.0,0.0,0.0,0.0,0.0,0.0,0.0,0.0,0.0,0.0,0.0,0.0,0.0,0.0,0.0,0.0,0.0,0.0,0.0,0.0,0.0,0.0,0.0,0.0,0.0,0.0,0.0,0.0,0.0,0.0,0.0,0.0,0.0,0.0,0.0,0.0,0.0,0.0,0.0,0.0,0.0,0.0,0.0,0.0,0.0,0.0,0.0,0.0,0.0,0.0,0.0,0.0,0.0,0.0,0.0,0.0,0.0,0.0,0.0,0.0,0.0,0.0,0.0,0.0,0.0,0.0,0.0,0.0,0.0,0.0,0.0,0.0,0.0,0.0,0.0,0.0,0.0,0.0,0.0,0.0,0.0,0.0,0.0,0.0,0.0,0.0,0.0,0.0,0.0,0.0,0.0,0.0,0.0,3.3366,3.4327,3.4527,3.4577,3.4577,3.4577,3.4301,3.3696,0.0,0.0,0.0,0.0,0.0,0.0,0.0,0.0,0.0,0.0,0.0,0.0,0.0,0.0,0.0,0.0,0.0,0.0,0.0,0.0,0.0,0.0,0.0,0.0,0.0,0.0,0.0,0.0,0.0,0.0,0.0,0.0,0.0,0.0,0.0,0.0,0.0,0.0,0.0,0.0,0.0,0.0,0.0,0.0,0.0,0.0,0.0,0.0,0.0,0.0,0.0,0.0,0.0,0.0,0.0,0.0,0.0,0.0,0.0,0.0,0.0,0.0,0.0,0.0,0.0,0.0,0.0,0.0,0.0,0.0,0.0,0.0,0.0,0.0,0.0,0.0,0.0,0.0,0.0,0.0,0.0,0.0,0.0,0.0,0.0,0.0,0.0,0.0,0.0,0.0,0.0,0.0,0.0,0.0,0.0,0.0,0.0,0.0,0.0,0.0,0.0,0.0,0.0,3.3395,3.407,3.5454,3.5077,3.4929,3.5554,3.5305,3.4904,3.4374,3.3068,0.0,0.0,0.0,0.0,0.0,0.0,0.0,0.0,0.0,0.0,0.0,0.0,0.0,0.0,0.0,0.0,0.0,0.0,0.0,0.0,0.0,0.0,0.0,0.0,0.0,0.0,0.0,0.0,0.0,0.0,0.0,0.0,0.0,0.0,0.0,0.0,0.0,0.0,0.0,0.0,0.0,0.0,0.0,0.0,0.0,0.0,0.0,0.0,0.0,0.0,0.0,0.0,0.0,0.0,0.0,0.0,0.0,0.0,0.0,0.0,0.0,0.0,0.0,0.0,0.0,0.0,0.0,0.0,0.0,0.0,0.0,0.0,0.0,0.0,0.0,0.0,0.0,0.0,0.0,0.0,0.0,0.0,0.0,0.0,0.0,0.0,0.0,0.0,0.0,0.0,0.0,0.0,0.0,0.0,0.0,0.0,0.0,0.0,0.0,0.0,0.0,0.0,3.4776,3.5175,3.6457,3.5805,3.5655,3.6507,3.6182,3.5606,3.4929,3.4123,0.0,0.0,0.0,0.0,0.0,0.0,0.0,0.0,0.0,0.0,0.0,0.0,0.0,0.0,0.0,0.0,0.0,0.0,0.0,0.0,0.0,0.0,0.0,0.0,0.0,0.0,0.0,0.0,0.0,0.0,0.0,0.0,0.0,0.0,0.0,0.0,0.0,0.0,0.0,0.0,0.0,0.0,0.0,0.0,0.0,0.0,0.0,0.0,0.0,0.0,0.0,0.0,0.0,0.0,0.0,0.0,0.0,0.0,0.0,0.0,0.0,0.0,0.0,0.0,0.0,0.0,0.0,0.0,0.0,0.0,0.0,0.0,0.0,0.0,0.0,0.0,0.0,0.0,0.0,0.0,0.0,0.0,0.0,0.0,0.0,0.0,0.0,0.0,0.0,0.0,0.0,0.0,0.0,0.0,0.0,0.0,0.0,0.0,0.0,0.0,0.0,0.0,3.6358,3.7009,3.7135,3.7085,3.706,3.7135,3.7086,3.6609,3.5508,3.5357,0.0,0.0,0.0,0.0,0.0,0.0,0.0,0.0,0.0,0.0,0.0,0.0,0.0,0.0,0.0,0.0,0.0,0.0,0.0,0.0,0.0,0.0,0.0,0.0,0.0,0.0,0.0,0.0,0.0,0.0,0.0,0.0,0.0,0.0,0.0,0.0,0.0,0.0,0.0,0.0,0.0,0.0,0.0,0.0,0.0,0.0,0.0,0.0,0.0,0.0,0.0,0.0,0.0,0.0,0.0,0.0,0.0,0.0,0.0,0.0,0.0,0.0,0.0,0.0,0.0,0.0,0.0,0.0,0.0,0.0,0.0,0.0,0.0,0.0,0.0,0.0,0.0,0.0,0.0,0.0,0.0,0.0,0.0,0.0,0.0,0.0,0.0,0.0,0.0,0.0,0.0,0.0,0.0,0.0,0.0,0.0,0.0,0.0,0.0,0.0,0.0,0.0,3.6433,3.7086,3.814,3.7637,3.7487,3.819,3.7939,3.7362,3.6609,0.0,0.0,0.0,0.0,0.0,0.0,0.0,0.0,0.0,0.0,0.0,0.0,0.0,0.0,0.0,0.0,0.0,0.0,0.0,0.0,0.0,0.0,0.0,0.0,0.0,0.0,0.0,0.0,0.0,0.0,0.0,0.0,0.0,0.0,0.0,0.0,0.0,0.0,0.0,0.0,0.0,0.0,0.0,0.0,0.0,0.0,0.0,0.0,0.0,0.0,0.0,0.0,0.0,0.0,0.0,0.0,0.0,0.0,0.0,0.0,0.0,0.0,0.0,0.0,0.0,0.0,0.0,0.0,0.0,0.0,0.0,0.0,0.0,0.0,0.0,0.0,0.0,0.0,0.0,0.0,0.0,0.0,0.0,0.0,0.0,0.0,0.0,0.0,0.0,0.0,0.0,0.0,0.0,0.0,0.0,0.0,0.0,0.0,0.0,0.0,0.0,0.0,3.6431,3.6984,3.7613,3.8768,3.819,3.8065,3.8818,3.8542,3.804,3.7487,0.0,0.0,0.0,0.0,0.0,0.0,0.0,0.0,0.0,0.0,0.0,0.0,0.0,0.0,0.0,0.0,0.0,0.0,0.0,0.0,0.0,0.0,0.0,0.0,0.0,0.0,0.0,0.0,0.0,0.0,0.0,0.0,0.0,0.0,0.0,0.0,0.0,0.0,0.0,0.0,0.0,0.0,0.0,0.0,0.0,0.0,0.0,0.0,0.0,0.0,0.0,0.0,0.0,0.0,0.0,0.0,0.0,0.0,0.0,0.0,0.0,0.0,0.0,0.0,0.0,0.0,0.0,0.0,0.0,0.0,0.0,0.0,0.0,0.0,0.0,0.0,0.0,0.0,0.0,0.0,0.0,0.0,0.0,0.0,0.0,0.0,0.0,0.0,0.0,0.0,0.0,0.0,0.0,0.0,0.0,0.0,0.0,0.0,0.0,0.0,0.0,0.0,3.7009,3.819,3.8894,3.8894,3.8919,3.8919,3.8894,3.8919,3.8668,0.0,0.0,0.0,0.0,0.0,0.0,0.0,0.0,0.0,0.0,0.0,0.0,0.0,0.0,0.0,0.0,0.0,0.0,0.0,0.0,0.0,0.0,0.0,0.0,0.0,0.0,0.0,0.0,0.0,0.0,0.0,0.0,0.0,0.0,0.0,0.0,0.0,0.0,0.0,0.0,0.0,0.0,0.0,0.0,0.0,0.0,0.0,0.0,0.0,0.0,0.0,0.0,0.0,0.0,0.0,0.0,0.0,0.0,0.0,0.0,0.0,0.0,0.0,0.0,0.0,0.0,0.0,0.0,0.0,0.0,0.0,0.0,0.0,0.0,0.0,0.0,0.0,0.0,0.0,0.0,0.0,0.0,0.0,0.0,0.0,0.0,0.0,0.0,0.0,0.0,0.0,0.0,0.0,0.0,0.0,0.0,0.0,0.0,0.0,0.0,0.0,0.0,0.0,3.716,3.8542,3.9446,3.9446,3.9798,3.9873,3.9496,3.9798,3.9622,3.8693,0.0,0.0,0.0,0.0,0.0,0.0,0.0,0.0,0.0,0.0,0.0,0.0,0.0,0.0,0.0,0.0,0.0,0.0,0.0,0.0,0.0,0.0,0.0,0.0,0.0,0.0,0.0,0.0,0.0,0.0,0.0,0.0,0.0,0.0,0.0,0.0,0.0,0.0,0.0,0.0,0.0,0.0,0.0,0.0,0.0,0.0,0.0,0.0,0.0,0.0,0.0,0.0,0.0,0.0,0.0,0.0,0.0,0.0,0.0,0.0,0.0,0.0,0.0,0.0,0.0,0.0,0.0,0.0,0.0,0.0,0.0,0.0,0.0,0.0,0.0,0.0,0.0,0.0,0.0,0.0,0.0,0.0,0.0,0.0,0.0,0.0,0.0,0.0,0.0,0.0,0.0,0.0,0.0,0.0,0.0,0.0,0.0,0.0,0.0,0.0,0.0,0.0,3.7838,3.912,4.0023,4.0023,4.0325,4.0449,4.035,4.0249,3.9998,3.9572,0.0,0.0,0.0,0.0,0.0,0.0,0.0,0.0,0.0,0.0,0.0,0.0,0.0,0.0,0.0,0.0,0.0,0.0,0.0,0.0,0.0,0.0,0.0,0.0,0.0,0.0,0.0,0.0,0.0,0.0,0.0,0.0,0.0,0.0,0.0,0.0,0.0,0.0,0.0,0.0,0.0,0.0,0.0,0.0,0.0,0.0,0.0,0.0,0.0,0.0,0.0,0.0,0.0,0.0,0.0,0.0,0.0,0.0,0.0,0.0,0.0,0.0,0.0,0.0,0.0,0.0,0.0,0.0,0.0,0.0,0.0,0.0,0.0,0.0,0.0,0.0,0.0,0.0,0.0,0.0,0.0,0.0,0.0,0.0,0.0,0.0,0.0,0.0,0.0,0.0,0.0,0.0,0.0,0.0,0.0,0.0,0.0,0.0,0.0,0.0,0.0,0.0,3.8894,3.9873,4.0524,4.0651,4.0676,4.0826,4.1277,4.0475,4.0074,4.0399,0.0,0.0,0.0,0.0,0.0,0.0,0.0,0.0,0.0,0.0,0.0,0.0,0.0,0.0,0.0,0.0,0.0,0.0,0.0,0.0,0.0,0.0,0.0,0.0,0.0,0.0,0.0,0.0,0.0,0.0,0.0,0.0,0.0,0.0,0.0,0.0,0.0,0.0,0.0,0.0,0.0,0.0,0.0,0.0,0.0,0.0,0.0,0.0,0.0,0.0,0.0,0.0,0.0,0.0,0.0,0.0,0.0,0.0,0.0,0.0,3.4399,3.3495,0.0,0.0,0.0,0.0,0.0,0.0,0.0,0.0,0.0,0.0,0.0,0.0,0.0,0.0,0.0,0.0,0.0,0.0,0.0,0.0,0.0,0.0,0.0,0.0,0.0,0.0,0.0,0.0,0.0,0.0,0.0,0.0,0.0,0.0,0.0,0.0,0.0,0.0,0.0,0.0,3.9472,4.0099,4.0852,4.1733,4.1833,4.1681,4.1327,4.153,4.1155,3.9948,3.9948,0.0,0.0,0.0,0.0,0.0,0.0,0.0,0.0,0.0,0.0,0.0,0.0,0.0,0.0,0.0,0.0,0.0,0.0,0.0,0.0,0.0,0.0,0.0,0.0,0.0,0.0,0.0,0.0,0.0,0.0,0.0,0.0,0.0,0.0,0.0,0.0,0.0,0.0,0.0,0.0,0.0,0.0,0.0,0.0,0.0,0.0,0.0,0.0,0.0,0.0,0.0,0.0,0.0,0.0,0.0,0.0,0.0,0.0,0.0,3.5956,3.5403,0.0,0.0,0.0,0.0,0.0,0.0,0.0,0.0,0.0,0.0,0.0,0.0,0.0,0.0,0.0,0.0,0.0,0.0,0.0,0.0,0.0,0.0,0.0,0.0,0.0,0.0,0.0,0.0,0.0,0.0,0.0,0.0,0.0,0.0,0.0,0.0,0.0,0.0,0.0,0.0,4.0049,4.1028,4.1833,4.2162,4.2411,4.2562,4.2507,4.2057,4.163,4.1331,4.0802,0.0,0.0,0.0,0.0,0.0,0.0,0.0,0.0,0.0,0.0,0.0,0.0,0.0,0.0,0.0,0.0,0.0,0.0,0.0,0.0,0.0,0.0,0.0,0.0,0.0,0.0,0.0,0.0,0.0,0.0,0.0,0.0,0.0,0.0,0.0,0.0,0.0,0.0,0.0,0.0,0.0,0.0,0.0,0.0,0.0,0.0,0.0,0.0,0.0,0.0,0.0,0.0,0.0,3.7386,3.7411,3.6984,3.7436,3.7864,3.8241,3.7362,3.7437,3.809,3.721,0.0,0.0,0.0,0.0,0.0,0.0,0.0,0.0,0.0,0.0,0.0,0.0,0.0,0.0,0.0,0.0,0.0,0.0,0.0,0.0,0.0,0.0,3.7914,3.7914,3.8969,3.9597,3.8216,0.0,0.0,0.0,0.0,0.0,0.0,0.0,0.0,0.0,0.0,0.0,4.0902,4.2057,4.2838,4.2763,4.2989,4.3313,4.3765,4.2532,4.2082,4.2813,4.1555,4.0802,0.0,0.0,0.0,0.0,0.0,0.0,0.0,0.0,0.0,0.0,0.0,0.0,0.0,0.0,0.0,0.0,0.0,0.0,0.0,0.0,0.0,0.0,0.0,0.0,0.0,0.0,0.0,0.0,0.0,0.0,0.0,0.0,3.2738,3.2964,0.0,0.0,0.0,0.0,0.0,0.0,0.0,0.0,0.0,0.0,0.0,0.0,0.0,3.6935,3.711,3.7613,3.8115,3.8567,3.912,3.932,3.927,3.932,3.9396,3.9471,3.932,0.0,3.8768,3.8617,0.0,0.0,0.0,0.0,0.0,0.0,0.0,0.0,0.0,0.0,0.0,0.0,0.0,0.0,0.0,0.0,0.0,0.0,0.0,0.0,0.0,0.0,4.0775,4.0775,4.0926,4.1026,4.0826,3.9672,3.8492,3.7889,3.7789,3.799,0.0,0.0,0.0,0.0,0.0,0.0,4.2459,4.2462,4.3014,4.4874,4.4242,4.3714,4.379,4.3614,4.3137,4.2336,4.2085,4.1959,4.1959,4.0953,0.0,0.0,0.0,0.0,0.0,0.0,0.0,0.0,0.0,0.0,0.0,0.0,0.0,0.0,0.0,0.0,0.0,0.0,0.0,0.0,0.0,0.0,0.0,0.0,0.0,0.0,0.0,0.0,0.0,3.2638,3.3316,3.3922,3.4025,3.4276,0.0,0.0,0.0,0.0,0.0,0.0,0.0,0.0,0.0,3.7638,3.7989,3.8165,3.8165,3.8994,3.9546,3.9798,4.0049,4.0149,4.0149,3.9848,3.9697,3.9722,4.0023,4.0023,3.9747,3.9145,3.8467,3.7763,0.0,0.0,0.0,0.0,3.6911,3.6986,3.7587,3.7989,3.8266,3.8266,0.0,0.0,0.0,0.0,0.0,0.0,0.0,3.9094,3.9647,4.0299,4.1001,4.1656,4.1806,4.1882,4.2183,4.1681,4.0954,4.0023,3.9847,4.0049,4.0652,4.0728,0.0,0.0,0.0,4.2635,4.3338,4.3818,4.4446,4.5401,4.5321,4.5347,4.5618,4.5095,4.4543,4.4095,4.3467,4.273,4.1963,4.0678,3.9799,0.0,0.0,0.0,0.0,0.0,0.0,0.0,0.0,0.0,0.0,0.0,0.0,0.0,0.0,0.0,0.0,0.0,0.0,0.0,0.0,0.0,0.0,0.0,0.0,0.0,0.0,0.0,0.0,3.3768,3.4274,3.523,3.5682,3.6108,0.0,0.0,0.0,0.0,0.0,0.0,3.7637,3.7763,3.8015,3.8417,3.8994,3.9245,3.912,4.0049,4.0499,4.0499,4.0625,4.07,4.07,4.045,4.0351,4.0376,4.0902,4.1153,4.1053,3.9948,3.9421,3.9271,3.8818,3.8567,3.8442,3.8592,3.8642,3.8718,3.9295,3.9772,4.0124,4.0124,4.065,4.1252,4.1028,0.0,0.0,0.0,0.0,4.0651,4.1204,4.1428,4.1781,4.2612,4.2813,4.2914,4.3313,4.3388,4.3087,4.1955,4.1729,4.1882,4.2336,4.2386,0.0,4.314,4.3664,4.4116,4.4392,4.5045,4.5598,4.5874,4.6024,4.6276,4.6647,4.6075,4.5698,4.5698,4.4423,4.3288,4.2392,4.0519,3.9174,3.8547,0.0,0.0,0.0,0.0,0.0,0.0,0.0,0.0,0.0,0.0,0.0,0.0,0.0,0.0,0.0,0.0,0.0,0.0,0.0,0.0,0.0,0.0,0.0,0.0,0.0,0.0,0.0,0.0,0.0,3.7009,3.711,0.0,0.0,0.0,0.0,3.7914,3.8492,3.8818,3.8818,3.9296,3.9572,3.9597,4.0149,4.0174,3.9647,4.0224,4.0499,4.0499,4.1026,4.1277,4.1277,4.1833,4.2087,4.2085,4.2637,4.2889,4.2788,4.1654,4.0876,4.0399,4.04,4.0074,3.9672,4.0199,4.0374,4.0449,4.1001,4.1202,4.1227,4.1227,4.1277,4.1403,4.1959,4.1706,0.0,0.0,4.2838,4.2964,4.3489,4.3987,4.4414,4.4464,4.4464,4.4489,4.4514,4.4514,4.4217,4.3112,4.2914,4.2939,4.2964,0.0,4.314,4.3689,4.4242,4.4941,4.605,4.5773,4.5899,4.6898,4.6125,4.5547,4.5573,4.5999,4.6276,4.6276,4.445,4.3662,4.4157,4.0982,3.901,3.8616,3.7663,0.0,0.0,0.0,0.0,0.0,0.0,0.0,0.0,0.0,0.0,0.0,0.0,0.0,0.0,0.0,0.0,0.0,0.0,0.0,0.0,0.0,0.0,0.0,0.0,0.0,0.0,0.0,0.0,3.6658,3.6683,0.0,3.7185,3.7688,3.8316,3.9044,3.9295,3.9722,4.0425,4.03,4.0349,4.0725,4.0926,4.0926,4.0725,4.1304,4.1607,4.1607,4.1808,4.1884,4.1884,4.1706,4.163,4.1656,4.2235,4.2487,4.2462,4.2409,4.2082,4.1607,4.1607,4.1229,4.075,4.0951,4.1026,4.1051,4.1225,4.1528,4.1982,4.2685,4.2908,4.3009,4.3564,4.3865,4.4091,4.4468,4.4622,4.4644,4.4844,4.4744,4.469,4.5095,4.5447,4.5769,4.612,4.6471,4.6627,4.6225,4.4995,4.4267,4.4995,4.4819,4.4769,4.5321,4.5573,4.5849,4.625,4.6125,4.6301,4.7023,4.6747,4.6677,4.7029,4.6112,4.5379,4.5037,4.3293,4.2131,4.1679,3.9746,3.8828,3.9122,3.6716,3.6486,0.0,0.0,0.0,0.0,0.0,0.0,0.0,0.0,0.0,0.0,0.0,0.0,0.0,0.0,0.0,0.0,0.0,0.0,0.0,0.0,0.0,0.0,0.0,0.0,0.0,3.6783,3.6733,3.6909,3.6934,3.7085,3.7462,3.814,3.8969,3.9898,4.0149,4.0549,4.1277,4.1178,4.1153,4.1302,4.1503,4.1503,4.1302,4.1909,4.2313,4.2462,4.2637,4.2838,4.3014,4.2811,4.2707,4.2733,4.3313,4.3592,4.3617,4.3994,4.3793,4.3266,4.2889,4.261,4.2431,4.2431,4.2431,4.2431,4.2431,4.2811,4.3391,4.3915,4.4091,4.4192,4.4744,4.5171,4.5602,4.5949,4.605,4.6075,4.625,4.6024,4.5794,4.62,4.6577,4.6954,4.7274,4.7626,4.7958,4.8159,4.6878,4.5924,4.6471,4.6426,4.6426,4.6803,4.7004,4.7205,4.7405,4.7255,4.728,4.7657,4.7475,4.7314,4.7201,4.6848,4.5907,4.4222,4.3281,4.2073,4.0595,3.9637,3.9225,3.9401,3.7006,3.6776,3.8873,0.0,0.0,0.0,0.0,0.0,0.0,0.0,0.0,0.0,0.0,0.0,0.0,0.0,0.0,0.0,0.0,0.0,0.0,0.0,0.0,0.0,0.0,0.0,3.809,3.7563,3.7437,3.7939,3.8015,3.8015,3.8065,3.9044,3.9948,4.0499,4.1026,4.1327,4.1352,4.1909,4.1959,4.1403,4.1959,4.1984,4.1428,4.1984,4.2537,4.3065,4.3564,4.4116,4.4614,4.5196,4.5472,4.5497,4.6024,4.625,4.625,4.625,4.5949,4.5372,4.4292,4.4166,4.4589,4.4589,4.4589,4.4589,4.4589,4.502,4.5422,4.4815,4.4665,4.479,4.5397,4.5573,4.5824,4.6848,4.7149,4.7274,4.7807,4.7933,4.7908,4.7908,4.7933,4.7933,4.7933,4.7958,4.8134,4.8718,4.8335,4.7782,4.7249,4.755,4.7908,4.7908,4.8385,0.0,4.9464,4.9095,4.8793,4.8793,4.8259,4.7376,4.599,4.8113,4.7849,4.4016,4.4347,4.3596,4.1217,4.075,4.0147,3.9374,3.8612,3.8121,3.7838,0.0,0.0,0.0,0.0,0.0,0.0,0.0,0.0,0.0,0.0,0.0,0.0,0.0,0.0,0.0,0.0,0.0,0.0,0.0,0.0,0.0,3.8743,3.912,3.814,3.8241,3.8341,3.804,3.8015,3.8316,3.9145,3.9521,4.0276,4.1632,4.1453,4.1654,4.2484,4.2311,4.2487,4.3112,4.3263,4.3463,4.3686,4.3865,4.4016,4.4166,4.4288,4.4439,4.4614,4.4765,4.4869,4.4869,4.4991,4.5066,4.5066,4.5066,4.5246,4.5447,4.5146,4.4869,4.4589,4.4589,4.4589,4.4589,4.4589,4.5242,4.605,4.5899,4.6376,4.7029,4.7205,4.7531,4.7964,4.8265,4.8309,4.836,4.8485,4.8209,4.7908,4.7908,4.8234,4.8535,4.8535,4.8862,4.9163,4.9339,4.9238,4.8962,4.841,4.8083,4.7908,4.7908,4.8033,4.8209,4.836,4.8234,4.8309,4.8768,4.8667,4.8314,4.7646,4.7345,4.5954,4.3106,4.1951,4.0763,3.9298,3.8859,3.8402,3.7878,3.8957,3.9151,0.0,0.0,0.0,0.0,0.0,0.0,0.0,0.0,0.0,0.0,0.0,0.0,0.0,0.0,0.0,0.0,0.0,0.0,0.0,0.0,0.0,0.0,3.9295,3.9722,3.8843,3.8818,3.8843,3.8718,3.8517,3.8718,3.9597,4.0124,4.0777,4.1731,4.2158,4.266,4.3288,4.3237,4.3489,4.4116,4.4141,4.4263,4.4589,4.4589,4.4715,4.4995,4.4995,4.5066,4.5292,4.5292,4.5417,4.5643,4.5643,4.5769,4.5969,4.5969,4.62,4.6426,0.0,0.0,0.0,0.0,4.615,4.6326,4.6075,4.6577,4.7305,4.7054,4.7405,4.7908,4.7908,4.8134,4.8492,4.8743,4.8793,4.8843,4.9095,4.8862,4.8686,4.8912,4.9213,4.9515,4.9798,5.01,5.0293,5.0293,5.0293,0.0,4.9899,4.9163,4.8686,4.8912,4.8761,4.8686,4.8937,4.8761,4.8673,4.8903,4.8921,4.8286,4.6672,4.6599,0.0,0.0,0.0,4.059,3.9683,3.9312,0.0,0.0,0.0,3.9519,3.837,3.8693,0.0,0.0,3.8217,3.8574,0.0,0.0,0.0,0.0,0.0,0.0,0.0,0.0,0.0,0.0,0.0,0.0,0.0,0.0,0.0,0.0,3.9898,4.0424,3.9948,3.9472,3.9321,3.9747,3.9421,3.9421,3.9998,4.0926,4.1553,4.1679,4.3034,4.389,4.389,4.4338,0.0,0.0,0.0,4.4765,4.4865,4.4865,4.5196,4.5773,4.5773,4.6024,4.6476,4.6476,4.6722,4.7199,4.7199,4.745,4.7908,4.7908,4.7908,4.7757,4.6326,4.6351,4.7249,4.7732,4.8234,4.8642,4.8083,0.0,0.0,4.8184,4.8033,4.8109,4.8109,4.8109,4.8234,4.8786,4.8994,4.9095,4.9565,4.9741,4.9891,5.0285,5.0436,5.067,5.1172,5.1306,5.1306,5.1306,5.1306,5.1306,5.1306,5.0393,4.9841,5.0343,4.9941,4.9766,5.0268,4.9746,4.9269,4.9026,4.8846,0.0,4.4535,4.5967,4.4845,3.9763,4.0946,4.1558,4.1075,4.0775,4.0796,4.1159,4.0501,3.9501,3.8108,3.7773,3.7598,3.7614,3.8737,3.9267,0.0,0.0,0.0,0.0,0.0,0.0,0.0,0.0,0.0,0.0,0.0,0.0,0.0,0.0,0.0,3.9522,4.045,4.1127,4.1001,4.0901,4.07,4.0374,4.0625,4.1254,4.2261,4.2562,4.3037,4.3887,4.4263,4.4439,4.4439,4.4539,4.4815,4.5296,4.5321,4.5748,4.6622,4.6622,4.6873,4.7431,4.7431,0.0,4.7606,4.7606,4.7657,4.7757,4.7757,4.7807,4.7908,4.7908,4.7908,4.7883,4.7556,4.7581,4.7782,4.7883,4.7983,4.8058,4.7933,4.8284,4.8793,4.8667,4.8912,4.9264,4.9264,4.9264,0.0,4.9941,5.0092,5.0117,5.0218,5.0619,5.087,5.0494,5.077,5.1147,5.1247,5.1306,5.1306,5.1306,5.1306,5.1306,5.1306,5.072,5.0293,5.0361,4.9941,4.964,4.9741,4.868,4.806,4.8434,4.7435,4.6385,4.5478,4.5783,4.4553,4.1276,3.9939,3.9374,3.9595,3.9541,3.9719,4.0169,4.0016,3.981,3.9512,3.9434,3.9394,3.9375,3.857,3.8398,0.0,0.0,0.0,0.0,0.0,0.0,0.0,0.0,0.0,0.0,0.0,3.8215,3.8743,0.0,4.0199,4.0449,4.1204,4.1831,4.2108,4.2381,4.2331,4.1806,4.1982,4.2484,4.3313,4.3639,4.3915,4.4192,4.4744,4.5045,4.5045,4.5543,4.5969,4.6301,4.6552,4.6954,4.7475,4.75,4.7626,4.7908,4.7908,4.7908,4.7908,4.7908,4.8058,4.8335,4.8335,4.8485,4.8761,4.8761,4.8761,4.8761,4.8761,4.8586,4.836,4.8661,4.8761,4.8761,4.8761,4.8937,4.922,4.922,4.9565,5.0017,5.0017,5.0218,5.0494,5.077,5.0845,5.0845,5.0845,5.1071,5.1272,5.1272,5.1473,5.1774,5.2051,5.2101,5.2101,5.2101,5.2101,5.2101,5.2101,5.1624,5.1172,5.0896,5.0368,5.0017,5.0017,4.8685,4.775,4.7646,4.6746,4.5545,4.4044,4.3199,4.222,4.0814,3.9781,3.9336,3.9551,3.9551,3.9668,3.9883,3.9902,3.9902,3.9902,3.9902,3.9902,3.9883,3.9434,3.9101,0.0,0.0,0.0,0.0,0.0,0.0,0.0,3.7563,3.8241,3.8442,3.8868,3.9371,3.9898,4.0475,4.1028,4.1528,4.2133,4.2688,4.324,4.3689,4.384,4.3542,4.3363,4.3514,4.4066,4.4543,4.4665,4.4468,4.5296,4.5849,4.5949,4.6803,4.7249,4.7249,4.7651,4.7958,4.8083,4.8083,4.8134,4.8234,4.8234,4.8234,4.8234,4.8234,4.8485,4.8969,4.8969,4.927,4.9766,4.9766,4.9816,4.9916,4.9916,4.9698,4.9321,4.964,4.9766,4.9766,4.9891,4.9916,4.9916,4.9916,5.0218,5.0569,5.0569,5.0921,5.1297,5.1423,5.1481,5.1481,5.1481,5.1523,5.1699,5.2151,5.2352,5.2578,5.313,5.3256,5.3256,5.3256,5.3256,5.3221,5.3152,5.2776,5.2225,5.1548,5.0946,5.0438,5.0174,4.8729,4.7393,4.6496,4.5653,4.4271,4.2105,4.0755,4.0019,4.0019,3.9941,3.9941,4.0019,4.0019,4.0059,4.0137,4.0234,4.0273,4.0273,4.0351,4.0391,4.0391,4.0566,4.0273,3.5332,3.5981,3.6708,3.7588,3.7914,3.8115,0.0,3.8718,3.907,4.0023,4.0248,4.0474,4.1026,4.1605,4.2185,4.2738,4.3263,4.3815,4.4367,4.4464,4.4694,4.5146,4.4744,4.4669,4.5246,4.5347,4.5773,4.6672,4.6848,4.7124,4.7606,4.7757,4.7832,4.7832,4.7883,4.8159,4.8693,4.8718,4.8944,4.9414,4.9414,4.9414,4.9414,4.9414,4.9439,4.9515,4.9515,4.9816,5.0318,5.0318,5.0619,5.1096,5.1096,5.1046,5.0946,5.0494,5.0318,5.0393,5.0921,5.1096,5.1096,5.1096,5.1147,5.1197,5.1197,5.1255,5.1406,5.1875,5.2026,5.2026,5.2026,5.2377,5.2719,5.2795,5.3181,5.3683,5.4295,5.4421,5.4421,5.4421,5.4421,5.4315,5.396,5.3839,5.3398,5.2218,5.1548,5.068,4.9223,4.7516,4.5867,4.442,4.2761,4.1634,4.1325,4.0779,4.0411,4.0411,4.0098,4.0059,4.043,4.0411,4.0644,4.1054,4.1406,4.1582,4.1582,4.1973,4.2109,4.2089,4.1426,4.1093,3.6234,3.6659,3.706,3.7814,3.8015,3.8241,3.917,3.9371,3.9672,4.075,4.1254,4.1557,4.1781,4.2534,4.3187,4.3413,4.3915,4.4493,4.5045,4.5121,4.5447,4.6351,4.6195,4.6145,4.6396,4.6451,4.6753,4.75,4.7581,4.7682,4.7908,4.8234,4.841,4.841,4.8711,4.9012,4.9238,4.9296,4.9364,4.959,4.959,4.959,4.9615,4.9916,5.0268,5.0569,5.0569,5.0695,5.0921,5.0921,5.1071,5.1306,5.1306,5.1306,5.1247,5.1021,5.0921,5.0946,5.1197,5.1306,5.1306,5.1306,5.1498,5.1749,5.1749,5.1975,5.2352,5.2879,5.303,5.3105,5.3457,5.3708,5.3884,5.3884,5.4059,5.4295,5.4547,5.4597,5.4597,5.4597,5.4597,5.4561,5.4384,5.4348,5.4088,5.3318,5.1684,4.9936,4.8321,4.6647,4.5159,4.3896,4.2642,4.2033,4.229,4.1896,4.1601,4.1601,4.1465,4.1348,4.1269,4.1269,4.123,4.1211,4.1387,4.1562,4.1797,4.1973,4.2187,4.2382,4.2324,4.2325,3.6808,3.6984,3.7085,3.7462,3.7789,3.8266,3.9245,3.9697,4.0224,4.1302,4.2007,4.2462,4.2612,4.3388,4.4091,4.4242,4.4593,4.5121,4.5849,4.5949,4.6276,4.7199,4.7324,4.7375,4.755,4.74,4.755,4.8109,4.8159,4.8209,4.836,4.8761,4.9044,4.9044,4.9389,4.959,4.959,4.9741,4.9816,4.9816,4.9992,5.0067,5.0067,5.0469,5.0896,5.1306,5.1306,5.1373,5.1498,5.1498,5.1599,5.1724,5.1724,5.1724,5.1749,5.19,5.1749,5.1523,5.1674,5.1724,5.1749,5.19,5.2226,5.2578,5.2729,5.3055,5.3457,5.3833,5.3934,5.4034,5.4496,5.4597,5.4647,5.4798,5.4823,5.4873,5.5024,5.4942,5.487,5.487,5.4799,5.4691,5.4547,5.4547,5.4234,5.3376,5.1208,4.9205,4.794,4.5936,4.4274,4.3439,4.2802,4.2542,4.2862,4.2582,4.2382,4.2382,4.2382,4.2245,4.1992,4.1973,4.1836,4.1523,4.168,4.1895,4.2148,4.2266,4.248,4.2733,4.2988,4.3127,3.6557,3.643,3.643,3.6431,3.7235,3.8165,3.8793,3.9722,4.0802,4.1934,4.2587,4.314,4.3664,4.4217,4.4794,4.5347,4.5447,4.5849,4.6898,4.7048,4.7249,4.7832,4.7883,4.8109,4.8693,4.8209,4.8134,4.8743,4.8768,4.9019,4.9515,4.9565,4.9565,4.9565,4.959,4.959,4.959,5.0117,5.0393,5.0361,5.0971,5.1255,5.1255,5.128,5.1272,5.1306,5.1306,5.1599,5.2076,5.2076,5.2402,5.2845,5.2845,5.2845,5.2895,5.3457,5.298,5.2151,5.2644,5.2845,5.292,5.3457,5.3632,5.3758,5.4346,5.4547,5.4547,5.4572,5.4572,5.4572,5.4597,5.4597,5.4723,5.5239,5.5365,5.5516,5.6043,5.5839,5.5582,5.5582,5.5251,5.4856,5.446,5.4386,5.3726,5.167,4.9947,4.8774,4.8513,4.5386,4.2982,4.2502,4.2422,4.2422,4.2422,4.2422,4.2382,4.2382,4.2382,4.2382,4.2362,4.2362,4.2362,4.2343,4.2812,4.3068,4.3087,4.3437,4.3652,4.3652,4.3262,4.3127,3.6455,3.6658,3.7009,3.7362,3.8291,3.9371,4.0273,4.1078,4.1934,4.3039,4.314,4.3165,4.3689,4.4242,4.4819,4.5397,4.61,4.6798,4.7525,4.7626,4.7857,4.841,4.8517,4.8592,4.8793,4.8642,4.8743,4.9264,4.9314,4.9389,4.959,4.959,4.959,4.959,4.9941,5.0142,5.0142,5.072,5.0996,5.0996,5.1197,5.1473,5.1825,5.1825,5.2026,5.2377,5.2377,5.2443,5.2678,5.303,5.3281,5.3482,5.3858,5.4009,5.4034,5.4245,5.4069,5.3758,5.3994,5.4009,5.4069,5.4245,5.4321,5.4346,5.4547,5.4597,5.4672,5.5049,5.515,5.5189,5.5566,5.5666,5.5691,5.5892,5.5724,5.5591,5.5766,5.5485,5.5189,5.5189,5.5078,5.4608,5.3336,5.3148,5.206,4.8855,4.7666,4.6682,4.5469,4.4259,4.3445,4.3281,4.3281,4.3281,4.3281,4.3281,4.3281,4.3281,4.3281,4.3144,4.2871,4.2851,4.2715,4.2401,4.2578,4.2793,4.3127,4.3223,4.3437,4.3691,4.3555,4.3496,3.6632,3.6934,3.7336,3.7864,3.8868,3.9973,4.1051,4.1907,4.2788,4.3865,4.3815,4.3689,4.4041,4.4719,4.5317,4.5723,4.6702,4.7575,4.8134,4.8209,4.836,4.8768,4.8793,4.8718,4.8485,4.8492,4.8686,4.9264,4.949,4.959,4.959,4.959,4.969,4.9891,5.0243,5.0486,5.072,5.1297,5.1674,5.1875,5.1875,5.2051,5.2402,5.2402,5.2703,5.3206,5.3206,5.3331,5.3532,5.3884,5.4009,5.4059,5.4446,5.4597,5.4622,5.4823,5.4898,5.4873,5.4672,5.4597,5.4622,5.4823,5.4898,5.4924,5.5125,5.5175,5.5214,5.5591,5.5691,5.5767,5.6118,5.6219,5.6219,5.6219,5.5889,5.5595,5.5595,5.5164,5.4794,5.4794,5.4645,5.4234,5.3171,5.2959,5.1946,4.8934,4.7746,4.6365,4.398,4.3711,4.3711,4.3711,4.3711,4.3711,4.3711,4.3711,4.3711,4.3711,4.3711,4.3574,4.332,4.3301,4.3164,4.285,4.285,4.3027,4.3301,4.3476,4.3691,4.3965,4.4101,4.418,3.706,3.7261,3.7436,3.7939,3.8944,4.0074,4.1152,4.2258,4.3341,4.4364,4.4564,4.4564,4.4564,4.5497,4.6276,4.6301,4.723,4.8134,4.8718,4.8793,4.8793,4.8768,4.8768,4.8542,4.7933,4.7883,4.8134,4.8718,4.9213,4.954,4.959,4.9565,4.9841,5.0444,5.0469,5.0745,5.1356,5.1875,5.2402,5.2895,5.292,5.2945,5.2945,5.297,5.3246,5.3758,5.3758,5.4059,5.4597,5.4622,5.4647,5.4647,5.4672,5.4672,5.4748,5.5239,5.544,5.5365,5.4873,5.4672,5.4773,5.53,5.544,5.5541,5.6068,5.6219,5.6219,5.6244,5.6244,5.6269,5.6294,5.6294,5.6294,5.6294,5.5964,5.5633,5.5633,5.5016,5.4457,5.4457,5.4058,5.3696,5.3559,5.3459,5.2831,5.1224,4.9607,4.743,4.4247,4.3772,4.375,4.3769,4.3769,4.3769,4.3769,4.3769,4.3769,4.3769,4.3769,4.3769,4.3769,4.3769,4.3769,4.3769,4.3769,4.3769,4.3769,4.4219,4.4433,4.4433,4.4844,4.4977,3.716,3.7813,3.8592,3.912,4.0099,4.1177,4.2308,4.3087,4.379,4.4464,4.4292,4.4016,4.4016,4.4945,4.5824,4.625,4.7581,4.8642,4.8793,4.8793,4.8642,4.8184,4.8134,4.7908,4.735,4.7682,4.7958,4.8109,4.8259,4.8711,4.954,4.9213,4.9647,5.1021,5.1071,5.1322,5.19,5.2452,5.2744,5.2895,5.3331,5.3507,5.3507,5.3959,5.4245,5.4371,5.4371,5.4471,5.4622,5.5049,5.5189,5.525,5.5641,5.5792,5.5817,5.5942,5.6018,5.5993,5.5842,5.5792,5.5817,5.5968,5.6018,5.6018,5.6168,5.6219,5.6294,5.6659,5.6784,5.6885,5.7349,5.7474,5.7474,5.7474,5.6887,5.6359,5.6359,5.5727,5.5154,5.5154,5.3735,5.2024,5.0371,4.9052,4.7754,4.6373,4.5797,4.5653,4.6024,4.5012,4.4336,4.4648,4.4687,4.4687,4.4687,4.4687,4.4687,4.4687,4.4687,4.4687,4.4687,4.4687,4.4687,4.4687,4.4687,4.4687,4.4687,4.4805,4.4863,4.4863,4.4938,4.4977,3.7487,3.8366,3.9446,4.0224,4.1254,4.2283,4.3137,4.3966,4.4618,4.4945,4.4769,4.4618,4.4844,4.5623,4.6376,4.6928,4.8209,4.9095,4.8843,4.8793,4.8492,4.7626,4.755,4.7324,4.6798,4.6998,4.7305,4.7525,4.7782,4.851,4.9891,4.9439,4.9916,5.1599,5.1649,5.19,5.2452,5.3005,5.3256,5.3281,5.3808,5.4084,5.412,5.4446,5.4723,5.4974,5.4974,5.5064,5.5315,5.5616,5.5742,5.5792,5.6093,5.6219,5.6244,5.6433,5.6533,5.6584,5.6872,5.6947,5.6922,5.6646,5.6746,5.6947,5.6947,5.6947,5.7022,5.7323,5.7387,5.7462,5.7801,5.775,5.7574,5.7574,5.6968,5.6357,5.6357,5.5834,5.5385,5.5385,5.4387,5.3125,5.1927,5.0285,4.8855,4.8159,4.6721,4.6157,4.7299,4.5841,4.4766,4.4957,4.4977,4.4977,4.4977,4.4977,4.4977,4.4977,4.4977,4.4977,4.4977,4.4977,4.4977,4.4977,4.4977,4.4977,4.4977,4.5215,4.5312,4.5312,4.5508,4.5586,3.809,3.9044,4.0174,4.1252,4.2283,4.319,4.3865,4.4794,4.5502,4.5397,4.5497,4.5723,4.6125,4.6672,4.7299,4.7933,4.8837,4.9289,4.8768,4.8693,4.8259,4.7124,4.6998,4.6798,4.6351,4.6376,4.6622,4.7174,4.7657,4.8611,5.0218,4.9866,5.0368,5.2051,5.2176,5.2477,5.2995,5.3482,5.3733,5.3833,5.4421,5.4723,5.4723,5.4773,5.5074,5.5491,5.5491,5.5767,5.6219,5.6219,5.6244,5.6319,5.6319,5.6369,5.6495,5.6935,5.7111,5.7186,5.7725,5.7901,5.7801,5.7286,5.7462,5.7901,5.7901,5.7901,5.7901,5.7901,5.7964,5.7989,5.7951,5.7685,5.7394,5.7356,5.6745,5.6231,5.6231,5.5897,5.5578,5.553,5.5506,5.5326,5.4804,5.3402,5.2252,5.1818,4.9202,4.7439,4.789,4.6291,4.5137,4.5195,4.5153,4.5153,4.5153,4.5153,4.5153,4.5153,4.5153,4.5153,4.5153,4.5094,4.5074,4.5074,4.5074,4.5074,4.5074,4.5488,4.5727,4.5727,4.5996,4.6133,3.9371,4.0199,4.1277,4.2409,4.2836,4.3391,4.4869,4.5347,4.5347,4.4869,4.5522,4.605,4.5698,4.6451,4.7425,4.8492,4.8818,4.8743,4.8134,4.8058,4.7657,4.6577,4.6451,4.6396,4.6326,4.6697,4.7174,4.7732,4.7857,4.8435,4.9665,4.964,5.0368,5.2051,5.2519,5.303,5.3557,5.3658,5.3934,5.4446,5.5024,5.5239,5.5265,5.5717,5.5968,5.6068,5.6068,5.6118,5.6219,5.6219,5.6433,5.686,5.686,5.7198,5.7625,5.77,5.775,5.775,5.7851,5.7901,5.7876,5.7775,5.7826,5.7901,5.7901,5.7901,5.7926,5.8034,5.8312,5.8488,5.8281,5.8419,5.8511,5.821,5.7702,5.7324,5.7324,5.7009,5.6612,5.614,5.6044,5.5012,5.168,5.0825,4.9799,4.7283,4.6385,4.6177,4.6592,4.6036,4.5703,4.6035,4.6074,4.6074,4.6074,4.6074,4.6074,4.6074,4.6074,4.6074,4.6074,4.5742,4.5566,4.5566,4.5566,4.5566,4.5566,4.5644,4.5727,4.5664,4.5391,4.5254,4.0124,4.1128,4.2384,4.3212,4.384,4.4446,4.492,4.5497,4.5673,4.4765,4.5719,4.6828,4.7185,4.7857,4.8586,4.9113,4.9439,4.9213,4.8058,4.7908,4.7631,4.6798,4.6476,4.6396,4.6672,4.6948,4.745,4.8284,4.836,4.8837,4.9967,5.0569,5.1398,5.2468,5.3055,5.3582,5.4135,5.4436,5.4712,5.5024,5.5541,5.5817,5.5817,5.6093,5.6219,5.6219,5.6219,5.6219,5.6244,5.6483,5.6759,5.7035,5.7374,5.765,5.7926,5.8227,5.8328,5.8378,5.8629,5.873,5.873,5.873,5.8554,5.8328,5.8328,5.8504,5.8742,5.8825,5.8977,5.9028,5.872,5.8599,5.8482,5.805,5.7616,5.7299,5.7299,5.714,5.6909,5.6644,5.6596,5.5985,5.4083,5.2966,5.183,5.0372,4.8581,4.7506,4.7664,4.6702,4.6074,4.6289,4.6308,4.6308,4.6308,4.6308,4.6308,4.6308,4.6094,4.6074,4.6289,4.5898,4.5781,4.5996,4.5996,4.5898,4.5727,4.5727,4.5566,4.5332,4.5117,4.4977,4.1003,4.2082,4.3341,4.3991,4.4819,4.5397,4.5041,4.5673,4.6024,4.4991,4.6095,4.7575,4.8617,4.9213,4.9665,4.9916,5.0017,4.9565,4.8109,4.7807,4.7525,4.6998,4.6647,4.6622,4.7074,4.7324,4.7832,4.8743,4.8919,4.9439,5.0544,5.1448,5.2226,5.287,5.3331,5.3858,5.4597,5.5024,5.534,5.5566,5.6018,5.6219,5.6219,5.6219,5.6219,5.6219,5.6219,5.6269,5.6383,5.6809,5.7136,5.7412,5.7901,5.8152,5.8303,5.873,5.888,5.8956,5.9357,5.9433,5.9332,5.9332,5.9131,5.888,5.888,5.9182,5.9483,5.9392,5.9431,5.9392,5.8887,5.856,5.8168,5.7616,5.7202,5.6956,5.6997,5.6885,5.6837,5.6997,5.6981,5.6901,5.6478,5.5264,5.4038,5.3277,5.0779,4.8868,4.8482,4.7184,4.6308,4.6308,4.6308,4.6308,4.6308,4.6308,4.6308,4.6308,4.5996,4.5957,4.6289,4.5898,4.584,4.6152,4.6172,4.6016,4.5727,4.5586,4.5371,4.5019,4.4824,4.4704,4.2637,4.3237,4.3991,4.507,4.5422,4.5598,4.605,4.6225,4.6125,4.5522,4.6702,4.8033,4.8693,4.9213,4.9941,5.1004,4.9924,4.8686,4.8008,4.7475,4.6973,4.6451,4.6747,4.7048,4.7099,4.8033,4.8693,4.8793,4.927,5.0017,5.1147,5.1331,5.185,5.287,5.2945,5.3507,5.4597,5.4647,5.5175,5.6143,5.6194,5.6219,5.6219,5.6219,5.6219,5.6219,5.6219,5.6458,5.6935,5.6985,5.7612,5.8541,5.8591,5.893,5.9357,5.9408,5.9433,5.9433,5.9483,5.9182,5.8742,5.8742,5.9081,5.9433,5.9433,5.9458,5.9405,5.9081,5.9212,5.9314,5.856,5.835,5.8089,5.7259,5.6927,5.6867,5.698,5.6596,5.6404,5.6925,5.6981,5.6478,5.4835,5.4406,5.3195,4.9955,4.921,4.8417,4.6769,4.6376,4.6308,4.6308,4.6308,4.6308,4.6308,4.6308,4.6308,4.6308,4.6269,4.6269,4.6308,4.5898,4.5746,4.5723,4.5785,4.5766,4.5727,4.5273,4.5016,4.4957,4.4199,4.3828,4.3266,4.3865,4.4493,4.5296,4.5723,4.5949,4.5849,4.6075,4.615,4.5598,4.6778,4.8184,4.9088,5.0017,5.0745,5.123,5.0753,4.9873,4.8642,4.7958,4.7475,4.7305,4.7149,4.735,4.8058,4.8542,4.8944,4.927,4.9766,5.0594,5.1724,5.1473,5.1925,5.3356,5.3733,5.4436,5.5541,5.5541,5.5767,5.6219,5.6219,5.6219,5.6219,5.6219,5.6219,5.6219,5.6533,5.6784,5.7035,5.7738,5.829,5.8716,5.9056,5.9307,5.9483,5.9483,5.9483,5.9483,5.9483,5.9357,5.9182,5.9182,5.9332,5.9433,5.9131,5.9257,5.9469,5.9314,5.9367,5.9392,5.8809,5.8286,5.7774,5.7458,5.6888,5.6544,5.69,5.6347,5.589,5.6404,5.6275,5.5895,5.5493,5.4556,5.3452,5.2365,5.0379,4.8843,4.8351,4.7364,4.668,4.668,4.6445,4.6308,4.6308,4.6308,4.6308,4.6308,4.6055,4.6035,4.6289,4.5898,4.5801,4.6055,4.6055,4.5918,4.5727,4.5508,4.5273,4.4977,4.4626,4.4492,4.374,4.4288,4.4765,4.5547,4.6024,4.62,4.5824,4.6024,4.625,4.6024,4.7004,4.8309,4.959,5.0619,5.1356,5.1498,5.1247,5.0544,4.9245,4.8234,4.7732,4.7883,4.7581,4.7732,4.8718,4.8944,4.9314,5.0042,5.0444,5.1172,5.2277,5.2126,5.2603,5.3909,5.4396,5.5049,5.5968,5.5968,5.6043,5.6219,5.6219,5.6219,5.6219,5.6219,5.6219,5.6244,5.6759,5.7085,5.7336,5.829,5.8767,5.8981,5.9357,5.9483,5.9483,5.9483,5.9483,5.9483,5.9483,5.9483,5.9458,5.9307,5.9357,5.9408,5.888,5.9081,5.9483,5.9483,5.9483,5.9342,5.8663,5.8132,5.7639,5.7076,5.6444,5.6046,5.6419,5.5818,5.5337,5.5851,5.5794,5.5614,5.5423,5.4567,5.3688,5.2842,5.0697,4.9051,4.8673,4.7511,4.6753,4.687,4.6562,4.6308,4.6308,4.6308,4.6308,4.6308,4.6016,4.5996,4.6289,4.6016,4.5996,4.6289,4.6308,4.6152,4.5859,4.5742,4.5508,4.5215,4.5035,4.4977,4.4288,4.4589,4.4865,4.6024,4.6301,4.6301,4.6301,4.6301,4.6446,4.6973,4.75,4.841,5.006,5.0896,5.1448,5.2,5.1172,5.0218,4.9665,4.8153,4.7299,4.7857,4.7908,4.8134,4.8743,4.9264,5.0042,5.1205,5.1306,5.1749,5.282,5.3406,5.3959,5.4572,5.4597,5.4873,5.539,5.539,5.5666,5.6219,5.6219,5.6219,5.6219,5.6219,5.6219,5.6244,5.6759,5.7336,5.7926,5.8504,5.9031,5.9483,5.9483,5.9483,5.9483,5.9483,5.9483,5.9483,5.9483,5.9483,5.9408,5.8905,5.9081,5.9408,5.888,5.9081,5.9483,5.9483,5.9483,5.9164,5.7869,5.7797,5.7611,5.5839,5.537,5.5318,5.539,5.5001,5.4784,5.5289,5.5842,5.5613,5.383,5.4334,5.3654,4.9636,4.9369,4.8821,4.661,4.6308,4.6465,4.6831,4.6562,4.6308,4.6308,4.6308,4.6308,4.6308,4.6289,4.6289,4.6308,4.6289,4.6289,4.6308,4.6308,4.6308,4.6289,4.5879,4.5727,4.5707,4.5234,4.4977,4.3664,4.4066,4.4342,4.5472,4.6024,4.6401,4.6747,4.7124,4.7456,4.7631,4.8109,4.8887,5.0167,5.0896,5.1473,5.2026,5.1498,5.067,4.9715,4.8812,4.8309,4.8485,4.8837,4.9289,4.9841,5.0745,5.1473,5.1825,5.2528,5.3256,5.4009,5.4245,5.4572,5.515,5.5175,5.539,5.5942,5.5942,5.6043,5.6219,5.5842,5.5842,5.6194,5.5817,5.6068,5.6759,5.7374,5.7951,5.8504,5.9031,5.9357,5.9483,5.9483,5.9483,5.9483,5.9483,5.9483,5.9483,5.9483,5.9483,5.9408,5.8842,5.9081,5.9332,5.8428,5.878,5.9408,5.9056,5.8488,5.791,5.7469,5.7062,5.6591,5.6036,5.5636,5.5443,5.5842,5.553,5.5313,5.5866,5.5794,5.5575,5.5383,5.3622,5.1878,5.0989,4.8863,4.73,4.7198,4.7168,4.7226,4.7363,4.7246,4.7051,4.6758,4.6465,4.6308,4.6308,4.6308,4.6308,4.6308,4.6308,4.6308,4.6308,4.6308,4.6308,4.6308,4.6172,4.625,4.6523,4.6094,4.6211,4.3338,4.379,4.4016,4.492,4.5573,4.61,4.6426,4.7048,4.7682,4.7857,4.836,4.922,5.0494,5.087,5.1222,5.1975,5.1473,5.072,4.9992,4.9296,4.8793,4.8793,4.9439,5.0117,5.0695,5.1574,5.2277,5.2678,5.3532,5.4285,5.4873,5.5064,5.534,5.5691,5.5691,5.5867,5.6219,5.6219,5.6118,5.5892,5.5767,5.5767,5.5917,5.5968,5.6394,5.7035,5.765,5.8202,0.0,5.9081,5.9307,5.9483,5.9483,5.9483,5.9483,5.9483,5.9483,5.9458,5.9282,5.9207,5.9081,5.829,5.8265,5.8554,5.8504,5.8679,5.883,5.8504,5.7887,5.7235,5.6885,5.6453,5.5978,5.563,5.5496,5.5482,5.5842,5.565,5.5506,5.5803,5.5794,5.5365,5.4367,5.2667,5.1092,5.0039,4.813,4.6973,4.7519,4.7578,4.7578,4.7578,4.7578,4.7461,4.7187,4.6641,4.6308,4.6308,4.6308,4.6308,4.6308,4.6308,4.6308,4.6308,4.6308,4.6308,4.6308,4.6308,4.6523,4.687,4.666,4.6914,0.0,4.374,4.389,4.4439,4.5045,4.5497,4.5598,4.6451,0.0,4.7883,4.846,4.9421,5.1029,5.0845,5.082,5.1875,5.1122,5.0386,5.0386,4.954,4.8919,4.8919,4.9791,5.067,5.1272,5.1875,5.2678,5.3733,5.4396,5.4949,5.5415,5.5942,5.6219,5.6219,5.6219,5.6219,5.6219,5.6219,5.5968,5.544,5.5917,5.5917,5.5491,5.647,5.6935,5.7085,5.7675,5.8227,5.878,5.878,5.9056,5.9483,5.9483,5.9483,5.9483,5.9483,5.9483,5.9433,5.8956,5.8716,5.8516,5.7412,5.701,5.7236,5.8855,5.8629,5.7851,5.7901,5.7549,5.6997,5.6126,5.598,5.579,5.4861,5.5073,5.5458,5.5458,5.5482,5.5467,5.535,5.5767,5.5033,5.1605,5.1645,5.1017,4.7621,4.7394,4.7578,4.7578,4.7578,4.7598,4.7617,4.7598,4.7578,4.7539,4.6816,4.6348,4.6348,4.6328,4.6308,4.6348,4.6328,4.6308,4.6348,4.6348,4.6328,4.6308,4.6367,4.6601,4.6928,4.6928,4.7207,4.2836,0.0,4.3413,4.4338,4.5045,4.5698,0.0,4.7606,4.8441,4.8535,4.9339,5.0293,5.1122,5.1172,5.1172,5.1423,5.087,5.0386,5.0386,5.0193,5.0017,5.0017,5.0268,5.082,5.1825,5.2779,5.3783,5.4913,5.5516,5.5892,5.6018,5.6143,5.6219,5.6219,5.6219,5.6219,5.6219,5.6219,5.6143,5.6018,5.5717,5.5742,5.6018,5.5842,5.647,5.77,5.7851,5.8428,5.9307,5.9307,5.9382,5.9483,5.9483,5.9483,5.9483,5.9483,5.9483,5.9483,5.9357,5.9056,5.8604,5.7926,5.7123,5.6533,5.7336,5.7387,5.7286,5.7775,5.7049,5.6113,5.5877,5.5689,5.5477,5.528,5.5626,5.5996,5.5996,5.6308,5.6216,5.485,5.4922,5.4573,5.2347,5.1295,5.0358,4.9156,4.82,4.7578,4.7578,4.7578,4.7715,4.8027,4.7773,4.7441,4.7109,4.6894,4.6777,4.6777,4.6484,4.6445,4.6777,4.6465,4.6445,4.6733,4.6777,4.6621,4.6308,4.6953,4.7324,4.7422,4.7422,4.7656,4.2788,4.319,4.3489,4.4091,4.4869,4.5723,4.6522,4.7606,4.8535,4.9069,4.9615,5.0293,5.1122,5.0845,5.0494,5.0494,5.0469,5.0519,5.077,5.0569,5.0519,5.077,5.1272,5.1766,5.2427,5.3683,5.4737,5.534,5.5892,5.6219,5.6219,5.6219,5.6219,5.6219,5.6433,5.647,5.6219,5.6433,5.6344,5.5842,5.6043,5.6043,5.5842,5.6043,5.6646,5.7524,5.7775,5.8378,5.9131,5.9131,5.9282,5.9483,5.9232,5.9282,5.9458,5.9232,5.9282,5.9433,5.893,5.8227,5.76,5.7826,5.7123,5.642,5.7437,5.7412,5.706,5.7424,5.6849,5.6183,5.6183,5.5963,5.577,5.577,5.6203,5.6548,5.6548,5.6294,5.5777,5.4815,5.4271,5.3406,5.1381,5.0642,4.9908,4.8847,4.8231,4.7871,4.7871,4.7871,4.7891,4.791,4.7715,4.7558,4.7519,4.7104,4.6811,4.666,4.6426,4.6484,4.687,4.6719,4.6797,4.7226,4.7031,4.6914,4.6894,4.7363,4.7676,4.7871,4.7871,4.8105,4.2864,4.3514,4.4041,4.394,4.4719,4.5648,4.6301,4.728,4.8309,4.9264,4.9665,5.0117,5.0996,5.0368,4.9715,4.9715,5.0193,5.072,5.1222,5.0921,5.087,5.1348,5.2302,5.297,5.3121,5.4511,5.5415,5.5516,5.5942,5.6219,5.6219,5.6219,5.6244,5.6344,5.6759,5.6784,5.6344,5.6759,5.6533,5.5641,5.6458,5.642,5.5541,5.6433,5.691,5.7035,5.7549,5.8127,5.8691,5.8691,5.9031,5.9458,5.9006,5.9106,5.9433,5.9006,5.9106,5.9332,5.8278,5.7273,5.662,5.7474,5.7123,5.662,5.8127,5.7939,5.7261,5.7187,5.6948,5.6685,5.6671,5.6484,5.6308,5.6308,5.6717,5.7141,5.7141,5.629,5.5385,5.4823,5.3798,5.224,4.9797,4.9776,4.953,4.7946,4.7969,4.8183,4.8125,4.8105,4.8008,4.7715,4.7676,4.7793,4.8086,4.75,4.6914,4.6426,4.6406,4.6582,4.7012,4.7031,4.7207,4.7578,4.7285,4.7266,4.7578,4.7715,4.793,4.8203,4.8281,4.8496,4.2864,4.412,4.5121,4.4589,4.4995,4.5748,4.6747,4.7857,4.8718,4.8894,5.0074,5.0921,5.0619,5.0419,5.0293,5.0293,5.077,5.1172,5.1306,5.1599,5.1875,5.1975,5.2494,5.3281,5.427,5.4963,5.5591,5.6043,5.6168,5.6219,5.6219,5.6219,5.642,5.686,5.696,5.696,5.6885,5.696,5.691,5.6734,5.6433,5.6244,5.6093,5.6269,5.6559,5.701,5.7085,5.7713,5.8691,5.8691,5.9031,5.9483,5.9408,5.9433,5.9483,5.9408,5.9433,5.9332,5.8278,5.7801,5.7575,5.7236,5.701,5.701,5.7801,5.8227,5.8377,5.8034,5.7624,5.7211,5.6887,5.6807,5.6861,5.6861,5.7309,5.7694,5.7694,5.7859,5.7102,5.4016,5.3493,5.2492,4.9027,4.8815,4.8901,4.8209,4.8164,4.8086,4.7715,4.7676,4.7793,4.8086,4.8105,4.7988,4.7695,4.7871,4.7676,4.6831,4.6792,4.7031,4.7461,4.748,4.7519,4.7578,4.7871,4.7871,4.7578,4.8346,4.8542,4.8223,4.864,4.8835,4.4564,4.5135,4.5494,4.5524,4.5969,4.6577,4.735,4.8184,4.8969,4.954,5.0042,5.0393,5.0419,5.0386,5.0586,5.1222,5.0795,5.0795,5.2,5.2126,5.2327,5.2904,5.3733,5.4461,5.4999,5.5516,5.5942,5.6194,5.6219,5.6219,5.6219,5.6458,5.6734,5.6985,5.7587,5.7763,5.7499,5.7499,5.7198,5.6559,5.6584,5.6458,5.6219,5.6219,5.6483,5.701,5.7336,5.7976,5.8716,5.9031,5.9282,5.9458,5.9182,5.9257,5.9458,5.9182,5.888,5.8604,5.8403,5.8152,5.7901,5.7888,5.7914,5.7964,5.8252,5.8491,5.8627,5.831,5.8034,5.78,5.7345,5.7323,5.7454,5.7454,5.7838,5.8223,5.8223,5.7614,5.635,5.3903,5.2777,5.136,4.8638,4.8379,4.8437,4.8242,4.8203,4.8144,4.7949,4.791,4.7988,4.8183,4.8008,4.7969,4.8288,4.8027,4.7598,4.6928,4.7318,4.7598,4.7578,4.7793,4.8027,4.8307,4.8223,4.8223,4.8307,4.8718,4.8796,4.8555,4.8815,4.8913,4.6245,4.6196,4.6076,4.695,4.7225,4.7375,4.7807,4.856,4.9364,5.0067,4.9992,4.9866,5.0167,5.0318,5.0745,5.1749,5.0946,5.077,5.2468,5.2578,5.2829,5.3783,5.4787,5.544,5.5566,5.5968,5.6219,5.6219,5.6219,5.6269,5.6358,5.6759,5.7111,5.7387,5.824,5.8453,5.7901,5.7901,5.7399,5.642,5.6659,5.6584,5.6219,5.6219,5.6483,5.701,5.7374,5.7976,5.8691,5.9006,5.9257,5.9458,5.9056,5.9156,5.9433,5.9056,5.8629,5.8328,5.8604,5.8529,5.8328,5.8629,5.8767,5.8905,5.8905,5.8905,5.8827,5.8515,5.8463,5.8364,5.7786,5.7742,5.7838,5.7959,5.8392,5.8776,5.8776,5.7751,5.6256,5.4279,5.264,5.0871,4.8593,4.8125,4.8086,4.8183,4.8125,4.8066,4.8066,4.8144,4.8164,4.8066,4.7949,4.819,4.8855,4.8209,4.7578,4.7246,4.7851,4.8105,4.7936,4.8086,4.8418,4.8894,4.8535,4.8535,4.8913,4.8913,4.8913,4.8913,4.8913,4.8913,4.6889,4.7096,4.7419,4.9263,4.8763,4.7857,4.7908,4.9138,5.0167,4.9741,5.0017,5.0218,4.9741,5.0067,5.0619,5.1247,5.1674,5.1975,5.2151,5.298,5.3808,5.4471,5.5074,5.5591,5.6093,5.6194,5.6219,5.6219,5.6219,5.6445,5.691,5.6985,5.7487,5.8541,5.8641,5.8453,5.7901,5.7901,5.76,5.6935,5.6458,5.6244,5.6219,5.6219,5.6483,5.696,5.6545,5.7248,5.8641,5.8202,5.8604,5.9483,5.9458,5.9458,5.9483,5.9458,5.9408,5.9307,5.888,5.9006,5.9307,5.8855,5.9056,5.9433,5.9433,5.9433,5.938,5.8979,5.8945,5.8849,5.7984,5.779,5.7935,5.8416,5.8945,5.9329,5.9329,5.9631,5.8781,5.5158,5.4019,5.2532,4.8819,4.7891,4.7754,4.8144,4.7871,4.7617,4.7617,4.7969,4.8066,4.7656,4.8366,4.8835,4.8894,4.8437,4.8144,4.8125,4.8164,4.8379,4.8796,4.8418,4.8418,4.8894,4.8874,4.8874,4.8913,4.8913,4.8913,4.8913,4.8913,4.8913,4.8521,4.7998,4.756,4.9456,5.0046,5.0043,4.9708,5.0404,5.0793,4.9808,5.0042,5.0536,5.1071,5.1046,5.1247,5.2151,5.2201,5.2327,5.3005,5.3758,5.4471,5.5049,5.5566,5.5993,5.6194,5.6219,5.6219,5.6219,5.6483,5.6784,5.6985,5.7663,5.824,5.8704,5.8691,5.8453,5.7901,5.7549,5.7035,5.6483,5.6634,5.6684,5.6709,5.7097,5.7549,5.8039,5.7838,5.8303,5.9182,5.8981,5.9131,5.9483,5.9483,5.9483,5.9458,5.9131,5.9207,5.9458,5.9282,5.9784,6.0512,6.0311,6.0387,6.0487,6.0111,5.9759,5.9481,5.9402,5.9415,5.9271,5.8393,5.8499,5.8848,5.9041,5.9498,5.9924,5.9924,5.9762,5.8667,5.5202,5.4128,5.2661,4.9221,4.8262,4.8105,4.86,4.8242,4.8066,4.8385,4.8561,4.86,4.8444,4.8718,4.8913,4.8913,4.8757,4.8659,4.8659,4.8659,4.8555,4.8457,4.8555,4.8737,4.8894,4.8913,4.8913,4.8913,4.8913,4.8913,4.8913,4.8913,4.8913,4.9515,4.9009,4.8603,5.0081,5.1151,5.1703,5.1088,5.1387,5.1428,5.0132,5.0293,5.0921,5.1699,5.1674,5.18,5.2519,5.2628,5.2929,5.3833,5.4496,5.4999,5.534,5.5717,5.5942,5.5942,5.5942,5.6093,5.6445,5.6784,5.7161,5.7512,5.8265,5.8805,5.8956,5.8805,5.8453,5.7901,5.7286,5.6709,5.6219,5.6734,5.691,5.6759,5.7173,5.7775,5.8453,5.824,5.8679,5.9483,5.9307,5.9357,5.9483,5.9483,5.9483,5.9483,5.9282,5.9458,5.9784,5.996,6.0638,6.1416,6.124,6.119,6.1115,6.0713,6.0211,5.9782,6.0083,6.0199,6.0084,5.9444,5.9438,5.9633,5.9802,6.0032,6.0165,5.9955,5.9642,5.8383,5.4915,5.3844,5.2491,4.9241,4.8301,4.8144,4.864,4.8398,4.832,4.8659,4.8815,4.8913,4.8913,4.8913,4.8913,4.8913,4.8913,4.8913,4.8913,4.8913,4.8776,4.8418,4.8737,4.8913,4.8913,4.8913,4.8913,4.8913,4.8913,4.8835,4.8698,4.8698,4.862,4.9629,5.0244,5.0846,5.1529,5.2156,5.2395,5.1671,5.1962,5.2024,5.0713,5.087,5.1306,5.1331,5.1724,5.2101,5.2126,5.3005,5.3909,5.4522,5.5074,5.539,5.539,5.539,5.539,5.539,5.539,5.5867,5.691,5.701,5.7512,5.8616,5.8691,5.8956,5.9483,5.8981,5.8453,5.7901,5.7286,5.6709,5.6219,5.6734,5.6709,5.6219,5.6244,5.6846,5.7876,5.7261,5.7976,5.9458,5.8956,5.9031,5.9483,5.9508,5.9508,5.9558,6.0111,6.0337,6.0412,6.0989,6.1542,6.1918,6.1366,6.119,6.119,6.119,6.0788,6.0437,6.104,6.1246,6.1322,6.1322,6.0695,6.0143,6.0653,6.0507,6.0069,5.9498,5.9402,5.8247,5.4451,5.3386,5.2042,4.876,4.7871,4.7734,4.8144,4.8223,4.8223,4.8223,4.8594,4.8913,4.8913,4.8913,4.8913,4.8913,4.8913,4.8913,4.8913,4.8913,4.8913,4.8913,4.8913,4.8913,4.8913,4.8913,4.8913,4.8913,4.8913,4.8679,4.8203,4.8203,4.7969,5.0454,5.0574,5.0788,5.15,5.1767,5.1778,5.1559,5.2364,5.3015,5.2498,5.1816,5.1431,5.18,5.2,5.2226,5.2594,5.3607,5.4547,5.5064,5.5616,5.5817,5.544,5.5742,5.5817,5.544,5.6093,5.6634,5.6985,5.7738,5.834,5.8666,5.9056,5.9332,5.9483,5.8604,5.8052,5.7901,5.6947,5.657,5.6759,5.691,5.7136,5.7399,5.7801,5.8353,5.9006,5.8855,5.9056,5.9483,5.9332,5.9357,5.9533,5.9935,6.006,6.0136,6.0713,6.1165,6.1542,6.1692,6.2119,6.2546,6.2395,6.2069,6.1768,6.1768,6.1366,6.104,6.1592,6.1788,6.1892,6.2268,6.1959,6.1433,6.0917,6.0716,6.05,6.0062,5.894,5.7254,5.4719,5.3093,5.1381,4.9091,4.86,4.8561,4.8698,4.8718,4.8718,4.8718,4.8815,4.8913,4.8913,4.8913,4.8913,4.8913,4.8913,4.8913,4.8913,4.8913,4.8913,4.8913,4.8913,4.8913,4.8913,4.8913,4.8913,4.8913,4.8913,4.8679,4.8203,4.8203,4.7969,4.9776,5.032,5.0877,5.062,5.1053,5.157,5.1805,5.2256,5.267,5.2736,5.2141,5.1774,5.2327,5.2427,5.2678,5.3457,5.431,5.5125,5.5641,5.5817,5.5767,5.544,5.5491,5.5591,5.5691,5.6319,5.6935,5.7612,5.829,5.8805,5.9006,5.9332,5.9483,5.9483,5.8453,5.7901,5.7901,5.6771,5.6369,5.6684,5.6885,5.7311,5.7901,5.8252,5.8679,5.9207,5.9408,5.9483,5.9483,5.9483,5.9633,5.9859,6.0186,6.0462,6.0738,6.1291,6.1718,6.2044,6.2245,6.2546,6.2781,6.2781,6.2446,6.2044,6.227,6.1943,6.1617,6.2169,6.2345,6.2395,6.2706,6.2618,6.2208,6.1299,6.0754,6.012,5.8795,5.7467,5.5759,5.3298,5.193,5.0646,4.9157,4.8913,4.8913,4.8913,4.8913,4.8913,4.8913,4.8913,4.8913,4.8913,4.8913,4.8913,4.8913,4.8913,4.8913,4.8913,4.8913,4.8913,4.8913,4.8913,4.8913,4.8913,4.8913,4.8815,4.8594,4.8594,4.8281,4.7695,4.7695,4.7558,4.8534,4.9804,5.0997,4.9368,5.0304,5.1722,5.2247,5.1914,5.1598,5.2127,5.2169,5.2327,5.2744,5.2945,5.3406,5.4446,5.5099,5.5641,5.6143,5.5742,5.5365,5.5315,5.4949,5.5074,5.6043,5.6269,5.7022,5.8566,5.8755,5.9006,5.9458,5.9483,5.9483,5.9433,5.8428,5.7876,5.7826,5.6746,5.6269,5.6369,5.6835,5.7412,5.8052,5.8001,5.8278,5.8805,5.9282,5.9533,5.9558,5.9558,5.991,6.0412,6.0462,6.0788,6.1316,6.1868,6.2069,6.2144,6.2606,6.2781,6.2781,6.2781,6.2496,6.2169,6.2631,6.2471,6.2195,6.2656,6.2781,6.2781,6.2781,6.2781,6.2536,6.1696,6.0634,5.9126,5.6503,5.5287,5.3803,5.0872,5.0166,4.979,4.8915,4.8796,4.8796,4.8835,4.8874,4.8913,4.8913,4.8913,4.8913,4.8913,4.8913,4.8913,4.8913,4.8913,4.8913,4.8913,4.8874,4.8855,4.8913,4.8913,4.8913,4.8913,4.8855,4.8659,4.8203,4.8164,4.7734,4.6889,4.6928,4.6928,5.0159,5.041,5.0684,5.0302,5.1247,5.2262,5.2172,5.2518,5.29,5.2939,5.2842,5.2619,5.2352,5.3331,5.4321,5.4572,5.539,5.6068,5.6194,5.5742,5.5214,5.4823,5.5049,5.5315,5.5541,5.6746,5.7876,5.8616,5.9106,5.9382,5.9483,5.9483,5.9307,5.8905,5.8252,5.7675,5.7186,5.6508,5.6671,5.7549,5.765,5.8227,5.9131,5.873,5.883,5.9332,5.9433,5.9734,6.0136,6.0136,6.0487,6.104,6.1466,6.1718,6.1893,6.2446,6.2647,6.2631,6.2756,6.2781,6.2781,6.2781,6.2706,6.2631,6.2756,6.2706,6.2631,6.2756,6.2781,6.2781,6.2781,6.2577,6.2167,6.1655,5.994,5.8087,5.6817,5.3835,5.1201,5.052,4.9171,4.8111,4.7903,4.7897,4.7969,4.8301,4.8633,4.8913,4.8913,4.8913,4.8913,4.8913,4.8913,4.8913,4.8913,4.8913,4.8913,4.8913,4.8535,4.8496,4.8894,4.8913,4.8913,4.8913,4.8516,4.8301,4.8203,4.7871,4.7441,4.6889,4.7285,4.7246,5.0159,5.08,5.1645,5.1485,5.2648,5.3705,5.316,5.4347,5.5471,5.5178,5.3738,5.3198,5.5377,5.5123,5.5021,5.6213,5.6908,5.7004,5.6328,5.6137,5.5892,5.5423,5.6056,5.653,5.6568,5.8054,5.9213,5.9701,5.9123,5.9173,6.0098,5.9528,5.9006,5.8691,5.8177,5.7625,5.701,5.6458,5.6771,5.7901,5.8177,5.9006,6.0286,5.9734,5.9784,6.0311,6.0311,6.0462,6.0738,6.0738,6.1065,6.1592,6.1893,6.2169,6.2446,6.2681,6.2781,6.2781,6.2781,6.2781,6.2781,6.2781,6.2781,6.2781,6.2781,6.2781,6.2781,6.2781,6.2781,6.2781,6.2781,6.1829,6.0702,6.0267,5.8724,5.6898,5.5337,5.2261,4.9545,4.8851,4.7914,4.7344,4.7539,4.7578,4.7656,4.7871,4.8105,4.8366,4.8516,4.8535,4.8679,4.8874,4.8913,4.8913,4.8913,4.8913,4.8913,4.8913,4.8457,4.8301,4.8535,4.8405,4.8385,4.8535,4.832,4.8105,4.791,4.7695,4.7461,4.7246,4.748,4.7558,4.9917,5.1186,5.2864,5.2752,5.419,5.541,5.4625,5.6402,5.8144,5.7907,5.5499,5.4702,5.8867,5.7466,5.6332,5.8438,5.8771,5.8241,5.6812,5.7005,5.7138,5.6649,5.7542,5.834,5.8644,5.9851,6.079,6.1259,5.9661,5.9325,6.0806,5.9752,5.8921,5.8579,5.8127,5.7625,5.701,5.6671,5.7072,5.8177,5.883,5.991,6.1316,6.0839,6.0814,6.119,6.119,6.124,6.1316,6.1316,6.1642,6.2144,6.2144,6.2421,6.2781,6.2781,6.2781,6.2781,6.2781,6.2781,6.2781,6.2781,6.2781,6.2781,6.2781,6.2781,6.2781,6.2781,6.2781,6.2781,6.2781,6.1284,5.9625,5.8997,5.7439,5.5523,5.3208,5.0503,4.8174,4.7003,4.6816,4.6933,4.7305,4.7422,4.7461,4.7461,4.7539,4.7715,4.8047,4.8105,4.8242,4.864,4.8679,4.8679,4.8679,4.8679,4.8679,4.8679,4.8223,4.8027,4.8086,4.7695,4.7676,4.8086,4.8105,4.7969,4.7695,4.7617,4.7578,4.7578,4.7656,4.7871,5.121,5.1988,5.3073,5.3866,5.5551,5.6801,5.6007,5.7484,5.9329,6.0278,5.9567,5.8813,5.8998,5.9454,5.9916,6.0249,6.0311,5.9793,5.8312,5.8852,5.9078,5.8304,5.9435,6.0731,6.1781,6.1995,6.2309,6.2831,6.2167,6.1477,6.0917,6.0684,5.9796,5.8064,5.7951,5.7625,5.701,5.7474,5.8227,5.9282,6.0337,6.1215,6.1893,6.1818,6.1567,6.119,6.119,6.1441,6.1893,6.1893,6.222,6.2681,6.2681,6.2731,6.2781,6.2781,6.2781,6.2781,6.2781,6.2781,6.2781,6.2781,6.2781,6.2781,6.2781,6.2781,6.2781,6.2781,6.2781,6.2781,6.2781,6.2306,6.1374,5.9697,5.6698,5.3614,5.1263,4.8615,4.6614,4.6411,4.6387,4.6406,4.6465,4.6777,4.6967,4.6967,4.7344,4.7598,4.7656,4.7656,4.7676,4.7779,4.7754,4.7754,4.7754,4.7754,4.7754,4.7754,4.7344,4.7266,4.7656,4.7246,4.7226,4.7656,4.7656,4.7812,4.8125,4.7754,4.7578,4.7598,4.7949,4.8164,5.3282,5.4086,5.4692,5.5222,5.6906,5.8214,5.7382,5.9082,6.1093,6.1979,6.2157,6.2195,6.2312,6.138,6.0859,6.1706,6.184,6.1335,5.9827,6.0443,6.0819,6.0307,6.1555,6.2494,6.2443,6.3216,6.364,6.3425,6.2149,6.1302,6.1185,6.0701,5.9503,5.7461,5.8027,5.8102,5.7524,5.8077,5.9056,6.0462,6.1567,6.2245,6.2471,6.2471,6.2345,6.2094,6.2094,6.2245,6.2471,6.2471,6.2596,6.2781,6.2781,6.2781,6.2781,6.2781,6.2781,6.2781,6.2781,6.2781,6.2781,6.2781,6.2781,6.2781,6.2781,6.2781,6.2781,6.2781,6.2781,6.2781,6.2781,6.0732,5.8399,5.7318,5.3643,5.0036,4.8719,4.7315,4.6308,4.6308,4.6308,4.6308,4.6308,4.6465,4.6582,4.6582,4.6738,4.6953,4.7187,4.7207,4.7305,4.7558,4.7578,4.7578,4.7578,4.7578,4.7578,4.7578,4.7168,4.6967,4.7207,4.7031,4.7129,4.7578,4.7578,4.7793,4.8203,4.8027,4.8066,4.8346,4.8496,4.8574,5.4864,5.5871,5.6365,5.6362,5.7886,5.9247,5.8552,6.021,6.2093,6.2935,6.3571,6.421,6.488,6.3197,6.2075,6.3197,6.3361,6.2868,6.1369,6.2218,6.284,6.2454,6.3857,6.464,6.3861,6.4672,6.4944,6.4225,6.2671,6.1868,6.2171,6.1221,6.0023,5.8657,5.8794,5.8895,5.8881,5.9323,6.0236,6.1617,6.2446,6.2781,6.2781,6.2781,6.2781,6.2781,6.2781,6.2781,6.2781,6.2781,6.2781,6.2781,6.2781,6.2781,6.2781,6.2781,6.2781,6.2781,6.2781,6.2781,6.2781,6.2781,6.2781,6.2781,6.2781,6.2781,6.2781,6.2781,6.2781,6.2756,6.2606,5.9629,5.6375,5.543,5.1657,4.8021,4.6954,4.6523,4.6308,4.6308,4.6308,4.6308,4.6308,4.6308,4.6308,4.6308,4.6308,4.6426,4.6738,4.6777,4.6894,4.7226,4.7246,4.7246,4.7246,4.7246,4.7246,4.7246,4.7051,4.6831,4.6733,4.6973,4.7246,4.7578,4.7676,4.7949,4.8379,4.8379,4.8535,4.8913,4.8913,4.8913,5.524,5.6624,5.7446,5.6903,5.8223,5.9596,5.9306,6.0263,6.16,6.2848,6.3571,6.421,6.488,6.4871,6.4775,6.4871,6.4871,6.4361,6.2873,6.443,6.5388,6.4646,6.6413,6.7683,6.7612,6.7128,6.6523,6.5824,6.5123,6.4679,6.4442,6.3015,6.2415,6.2956,6.0678,6.0138,6.155,6.1739,6.2144,6.2706,6.2756,6.2781,6.2781,6.2781,6.2781,6.2781,6.2781,6.2781,6.2781,6.2781,6.2781,6.2781,6.2781,6.2781,6.2781,6.2781,6.2781,6.2781,6.2781,6.2781,6.2781,6.2781,6.2781,6.2781,6.2781,6.2781,6.2781,6.2781,6.2781,6.2656,6.2195,6.0294,5.7969,5.5656,5.2601,4.9514,4.6888,4.6308,4.6308,4.6308,4.6308,4.6308,4.6308,4.6308,4.6308,4.6308,4.6308,4.6308,4.6328,4.6328,4.6348,4.6367,4.6367,4.6367,4.6367,4.6367,4.6367,4.6367,4.6719,4.6714,4.6348,4.7109,4.7558,4.7578,4.7969,4.8398,4.8874,4.8874,4.8874,4.8913,4.8913,4.8913,5.4293,5.6024,5.7606,5.717,5.8068,5.9156,5.948,6.0238,6.1287,6.2793,6.3438,6.4027,6.4825,6.4996,6.4996,6.4996,6.4996,6.4807,6.4296,6.5196,6.5962,6.6107,6.6789,6.7264,6.7264,6.6651,6.6012,6.5373,6.5112,6.4702,6.4139,6.3886,6.3473,6.2815,6.2992,6.3261,6.3527,6.2861,6.2581,6.2781,6.2781,6.2781,6.2781,6.2781,6.2781,6.2781,6.2781,6.2781,6.2781,6.2781,6.2781,6.2781,6.2781,6.2781,6.2781,6.2781,6.2781,6.2781,6.2781,6.2781,6.2781,6.2781,6.2781,6.2781,6.2781,6.2781,6.2781,6.2781,6.2781,6.2731,6.2531,5.9505,5.5465,5.1271,4.8992,4.7574,4.6856,4.6484,4.6308,4.6308,4.6308,4.6308,4.6308,4.6308,4.6308,4.6308,4.6308,4.6308,4.6308,4.6308,4.6308,4.6308,4.6308,4.6406,4.6635,4.6465,4.6543,4.709,4.7012,4.6992,4.7109,4.7676,4.7988,4.7988,4.8398,4.8757,4.8913,4.8913,4.8913,4.8913,4.8913,4.8913,5.3883,5.5649,5.747,5.7382,5.805,5.8855,5.9564,6.012,6.0882,6.2184,6.3157,6.3955,6.4537,6.4946,6.5126,6.5028,6.5092,6.5155,6.5028,6.5615,6.6167,6.6506,6.6738,6.6796,6.6593,6.6154,6.5631,6.5025,6.4996,6.4958,6.4875,6.4668,6.4187,6.3359,6.4645,6.5045,6.4443,6.3345,6.2781,6.2781,6.2781,6.2781,6.2781,6.2781,6.2781,6.2781,6.2781,6.2781,6.2781,6.2781,6.2781,6.2781,6.2781,6.2781,6.2781,6.2781,6.2781,6.2781,6.2781,6.2781,6.2781,6.2781,6.2781,6.2781,6.2781,6.2781,6.2781,6.2781,6.2781,6.2756,6.2596,5.8782,5.3781,4.8983,4.7288,4.6758,4.685,4.6601,4.6308,4.6308,4.6308,4.6308,4.6308,4.6308,4.6308,4.6308,4.6308,4.6308,4.6308,4.6308,4.6308,4.6308,4.6308,4.6465,4.685,4.668,4.6816,4.7539,4.7441,4.7422,4.7578,4.8125,4.8359,4.8203,4.8679,4.8913,4.8913,4.8913,4.8913,4.8913,4.8913,4.8913,0.0,0.0,0.0,5.7526,5.8129,5.8853,5.9532,5.9911,6.038,6.1081,6.2727,6.4056,6.4018,6.4787,6.5383,6.5063,6.5285,6.538,6.506,6.5807,6.628,6.5925,6.6476,6.6593,6.5951,6.5864,6.5602,6.5025,6.4996,6.5548,6.6858,6.5525,6.4868,6.5135,6.5575,6.5317,6.4351,6.3294,6.2756,6.2756,6.2756,6.2781,6.2781,6.2781,6.2781,6.2781,6.2781,6.2781,6.2781,6.2781,6.2781,6.2781,6.2781,6.2781,6.2781,6.2781,6.2781,6.2781,6.2781,6.2781,6.2781,6.2781,6.2781,6.2781,6.2781,6.2781,6.2781,6.2781,6.2781,6.2656,6.1983,5.8148,5.34,4.93,4.7957,4.7461,4.7006,4.6641,4.6328,4.6308,4.6308,4.6308,4.6308,4.6308,4.6308,4.6308,4.6308,4.6308,4.6308,4.6308,4.6308,4.6308,4.6308,4.6484,4.687,4.6889,4.7129,4.7598,4.7988,4.8027,4.7637,4.8464,4.8698,4.8242,4.8698,4.8913,4.8913,4.8913,4.8913,4.8913,4.8913,4.8913,5.2845,0.0,0.0,0.0,0.0,0.0,5.877,5.9388,6.0249,6.1586,6.247,6.3239,6.3907,6.4613,6.5115,6.5022,6.5088,6.519,6.5348,6.5743,6.599,6.5893,6.6038,6.6096,6.5922,6.5519,6.517,6.4996,6.5402,6.6041,6.6887,6.7353,6.7867,6.8431,6.6365,6.5326,6.5469,6.2893,6.1843,6.2245,6.2245,6.2446,6.2781,6.2781,6.2781,6.2781,6.2781,6.2781,6.2781,6.2781,6.2781,6.2781,6.2781,6.2781,6.2781,6.2781,6.2781,6.2781,6.2781,6.2781,6.2781,6.2781,6.2781,6.2781,6.2781,6.2781,6.2781,6.2781,6.2781,6.2017,5.8479,5.6306,5.3927,4.981,4.8173,4.7637,4.7812,4.7519,4.7051,4.6426,4.6308,4.6308,4.6308,4.6308,4.6308,4.6308,4.6308,4.6308,4.6308,4.6308,4.6308,4.6308,4.6308,4.6601,4.7344,4.7109,4.7383,4.8483,4.832,4.8301,4.8542,4.8776,4.8855,4.8718,4.8835,4.8913,4.8913,4.8913,4.8913,4.8913,4.8913,4.8913,0.0,0.0,5.5448,5.5867,0.0,0.0,5.881,5.9696,6.0471,6.1171,6.2112,6.2911,6.3149,6.3858,6.4451,6.4777,6.4905,6.5182,6.5635,6.6063,6.628,6.6119,6.6222,6.6331,6.6331,6.6112,6.5941,6.5812,6.6258,6.6756,6.7293,6.8276,6.9002,6.9379,6.6529,6.5169,6.5521,6.2651,6.1341,6.1667,6.1667,6.1843,6.2144,6.233,6.2496,6.2496,6.2681,6.2781,6.2781,6.2781,6.2781,6.2781,6.2781,6.2781,6.2781,6.2781,6.2781,6.2781,6.2781,6.2781,6.2781,6.2781,6.2781,6.2781,6.2781,6.2781,6.2781,6.2781,6.2781,6.1796,5.7322,5.5819,5.4411,5.0211,4.8665,4.8125,4.8183,4.8008,4.7578,4.6738,4.6562,4.6504,4.6328,4.6308,4.6308,4.6308,4.6308,4.6308,4.6308,4.6308,4.6308,4.6308,4.6308,4.6641,4.7545,4.7344,4.7676,4.8835,4.8613,4.8594,4.8894,4.8913,4.8913,4.8913,4.8913,4.8913,4.8913,4.8913,4.8913,4.8913,4.8913,4.8432,0.0,0.0,0.0,0.0,0.0,0.0,5.9217,6.0279,6.0787,6.0487,6.1749,6.2725,6.2203,6.2854,6.3654,6.4249,6.472,6.5216,6.5863,6.642,6.6735,6.6475,6.6679,6.6894,6.7014,6.7246,6.7279,6.7047,6.7334,6.7655,6.8057,6.8509,6.8765,6.8678,6.6338,6.4945,6.4708,6.2367,6.1112,6.0989,6.1065,6.1115,6.119,6.1692,6.1918,6.1943,6.2496,6.2706,6.2706,6.2756,6.2781,6.2781,6.2781,6.2781,6.2781,6.2781,6.2781,6.2781,6.2781,6.2781,6.2781,6.2781,6.2781,6.2781,6.2781,6.2781,6.2781,6.2781,6.2781,6.1829,5.7692,5.6226,5.4763,5.0596,4.9216,4.8796,4.8359,4.8281,4.8047,4.7182,4.6987,4.6875,4.6445,4.6367,4.6348,4.6308,4.6308,4.6308,4.6308,4.6308,4.6308,4.6308,4.6308,4.6641,4.7545,4.7578,4.7994,4.8855,4.8913,4.8913,4.8913,4.8913,4.8913,4.8913,4.8913,4.8913,4.8913,4.8913,4.8913,4.8894,4.8663,4.7558,0.0,0.0,0.0,0.0,0.0,0.0,5.8779,5.9371,5.9939,6.1412,6.1588,6.1644,6.201,6.2694,6.3201,6.3351,6.4278,6.5142,6.5523,6.5927,6.6359,6.6826,6.6654,6.6821,6.7701,6.7568,6.7503,6.7762,6.8034,6.8455,6.8998,6.8876,6.8596,6.8073,6.6348,6.4594,6.2899,6.1595,6.0595,5.9834,6.0286,6.0738,6.119,6.1291,6.1341,6.1366,6.1918,6.2169,6.2195,6.2606,6.2781,6.2781,6.2781,6.2781,6.2781,6.2781,6.2781,6.2781,6.2781,6.2781,6.2781,6.2781,6.2781,6.2781,6.2781,6.2781,6.2781,6.2781,6.2781,6.1829,5.7692,5.6226,5.4829,5.0596,4.9216,4.8874,4.8796,4.8776,4.862,4.8047,4.7676,4.7324,4.6875,4.6772,4.6699,4.6348,4.6308,4.6308,4.6308,4.6308,4.6308,4.6308,4.6308,4.6641,4.7545,4.7578,4.7994,4.8855,4.8913,4.8913,4.8913,4.8913,4.8913,4.8913,4.8913,4.8913,4.8913,4.8913,4.8913,4.8848,4.7167,4.6167,0.0,0.0,0.0,5.5623,0.0,0.0,0.0,5.9129,6.0296,6.0954,6.1104,6.1224,6.1553,6.1583,6.1731,6.2032,6.3468,6.4456,6.4308,6.5405,6.6376,6.6701,6.6976,6.7345,6.7894,6.7924,6.8106,6.8654,6.8785,6.8982,6.9303,6.8997,6.8649,6.8363,6.6822,6.5139,6.3315,6.1979,6.0718,5.9483,5.9784,6.006,6.0337,6.0638,6.0738,6.0788,6.1341,6.1743,6.2019,6.2295,6.2531,6.2781,6.2781,6.2781,6.2781,6.2781,6.2781,6.2781,6.2781,6.2781,6.2781,6.2781,6.2781,6.2781,6.2781,6.2781,6.2781,6.2781,6.2142,6.066,5.7134,5.5355,5.3636,5.0068,4.9078,4.8913,4.8913,4.8913,4.8835,4.8574,4.8405,4.8053,4.7363,4.6894,4.6621,4.6621,4.6445,4.6308,4.6308,4.6308,4.6308,4.6308,4.6308,4.6641,4.7545,4.7578,4.7994,4.8855,4.8913,4.8913,4.8913,4.8913,4.8913,4.8913,4.8913,4.8913,4.8913,4.8913,4.8913,4.8848,4.6794,4.5256,0.0,0.0,0.0,0.0,0.0,5.7487,0.0,0.0,0.0,6.0356,6.0835,6.1313,6.1313,6.0864,6.0625,6.1016,6.254,6.3408,6.278,6.4547,6.6033,6.6539,6.7206,6.7755,6.8084,6.837,6.8738,6.9305,6.9191,6.9148,6.9228,6.8894,6.8692,6.8692,6.7444,6.5845,6.3966,6.2692,6.116,5.9357,5.9433,5.9483,5.9508,5.996,6.0161,6.0186,6.0763,6.1266,6.1692,6.1918,6.227,6.2631,6.2756,6.2781,6.2781,6.2781,6.2781,6.2781,6.2781,6.2781,6.2781,6.2781,6.2781,6.2781,6.2781,6.2781,6.2781,6.2781,6.1498,5.942,5.6639,5.4499,5.2408,4.9564,4.8913,4.8913,4.8913,4.8913,4.8913,4.8913,4.8835,4.8561,4.7812,4.7129,4.6758,4.7012,4.6699,4.6426,4.6426,4.6348,4.6308,4.6308,4.6308,4.6621,4.7383,4.7461,4.7812,4.8718,4.8776,4.8815,4.8894,4.8913,4.8913,4.8913,4.8913,4.8913,4.8913,4.8913,4.8709,4.8227,4.6167,4.4104,0.0,0.0,0.0,0.0,5.6256,0.0,0.0,0.0,5.9638,6.0775,0.0,6.2002,6.2002,0.0,0.0,6.1166,6.1792,6.2091,6.1433,6.2571,6.4366,6.6668,6.6779,6.7251,6.8726,6.8909,6.897,6.903,6.8708,6.8622,6.892,6.862,6.8451,6.8451,6.799,6.6231,6.3074,6.3018,6.16,5.8805,5.9282,5.9483,5.9483,5.9558,5.9583,5.9608,6.0186,6.0462,6.0588,6.1592,6.2044,6.2144,6.2606,6.2781,6.2781,6.2781,6.2781,6.2781,6.2781,6.2781,6.2781,6.2781,6.2781,6.2781,6.2781,6.2781,6.2781,6.2781,6.1498,5.942,5.6639,5.4499,5.2408,4.9564,4.8913,4.8913,4.8913,4.8913,4.8913,4.8913,4.8535,4.8242,4.8144,4.8047,4.7871,4.7558,4.7129,4.6811,4.6811,4.6523,4.6308,4.6308,4.6308,4.6484,4.6928,4.6992,4.7363,4.8223,4.8281,4.8457,4.8894,4.8913,4.8913,4.8913,4.8913,4.8913,4.8913,4.8913,4.7949,4.612,4.4009,4.1958,0.0,0.0,0.0,0.0,0.0,0.0,5.868,0.0,6.0894,0.0,0.0,0.0,0.0,0.0,0.0,0.0,6.2002,6.245,6.1762,6.281,6.3887,6.4664,6.5263,6.6039,6.7148,6.7597,6.7986,6.8407,6.8776,6.9023,6.916,6.902,6.9056,6.9259,6.8723,6.6971,6.3966,6.3838,6.2228,5.9182,5.9382,5.9483,5.9483,5.9483,5.9483,5.9508,5.9734,6.001,6.0387,6.119,6.1718,6.2069,6.2581,6.2781,6.2781,6.2781,6.2781,6.2781,6.2781,6.2781,6.2781,6.2781,6.2781,6.2781,6.2781,6.2781,6.2577,6.154,5.9715,5.7501,5.4939,5.2677,5.0687,4.9262,4.8913,4.8913,4.8913,4.8913,4.8913,4.8913,4.8757,4.864,4.864,4.8164,4.7871,4.793,4.7578,4.7305,4.7305,4.6933,4.666,4.666,4.6445,4.6465,4.685,4.7168,4.7558,4.8164,4.8437,4.8718,4.8894,4.8913,4.8913,4.8913,4.8913,4.8913,4.8913,4.7698,4.6026,4.3962,4.3106,4.1622,5.9308,0.0,0.0,0.0,0.0,0.0,0.0,0.0,0.0,0.0,0.0,0.0,0.0,0.0,0.0,0.0,0.0,6.2599,6.1912,6.278,6.3378,6.3138,6.4066,6.4904,6.5413,6.6221,6.6909,6.7419,6.8245,6.8859,6.9087,6.9073,6.9384,7.0035,6.9303,6.7621,6.4849,6.4409,6.2635,5.9483,5.9483,5.9483,5.9483,5.9483,5.9483,5.9483,5.9483,5.9734,6.0161,6.0889,6.1416,6.1843,6.2505,6.2781,6.2781,6.2781,6.2781,6.2781,6.2781,6.2781,6.2781,6.2781,6.2781,6.2781,6.2781,6.2781,6.2413,6.0601,5.8422,5.6053,5.3725,5.1347,4.9466,4.9006,4.8913,4.8913,4.8913,4.8913,4.8913,4.8913,4.8913,4.8913,4.8913,4.8288,4.7891,4.832,4.7832,4.7441,4.7558,4.709,4.6758,4.6758,4.6484,4.6426,4.6738,4.7051,4.7461,4.8008,4.8437,4.8776,4.8894,4.8796,4.8776,4.8913,4.8776,4.8776,4.8913,4.6794,4.4737,4.2676,4.215,4.0771,6.0236,5.9578,5.8949,5.8324,5.7693,0.0,0.0,0.0,6.0174,0.0,0.0,0.0,0.0,0.0,0.0,0.0,0.0,0.0,0.0,6.1732,6.2391,6.3048,6.3647,6.4036,6.4066,6.5263,6.6041,6.6071,6.67,6.7472,6.8375,6.8432,6.9025,7.0337,6.967,6.797,6.5186,6.4517,6.2635,5.9483,5.9483,5.9483,5.9483,5.9483,5.9483,5.9483,5.9483,5.9508,5.9608,6.0738,6.119,6.1316,6.2395,6.2781,6.2781,6.2781,6.2781,6.2781,6.2781,6.2781,6.2781,6.2781,6.2781,6.2781,6.2781,6.2781,6.2413,6.0601,5.8422,5.6053,5.3725,5.1347,4.9466,4.9006,4.8913,4.8913,4.8913,4.8913,4.8913,4.8913,4.8913,4.8913,4.8913,4.8476,4.834,4.8815,4.7754,4.7109,4.7519,4.6836,4.6328,4.6328,4.6308,4.6308,4.6328,4.6328,4.6699,4.7584,4.7988,4.8418,4.8894,4.8457,4.8418,4.8894,4.8437,4.8437,4.8913,4.6794,4.4737,4.2676,4.0723,3.8665,6.1343,6.0924,6.0475,6.0685,6.0236,5.9757,5.9757,0.0,0.0,0.0,0.0,0.0,0.0,0.0,0.0,0.0,0.0,0.0,0.0,6.1583,6.1702,6.2361,6.26,6.2899,6.3348,6.3797,6.4605,6.5922,6.661,6.7327,6.8099,6.871,6.9395,7.0129,6.9861,6.8242,6.5222,6.4741,6.2831,5.9483,5.9483,5.9483,5.9483,5.9483,5.9483,5.9483,5.9483,5.9483,5.9583,6.0713,6.119,6.1291,6.2395,6.2781,6.2781,6.2781,6.2781,6.2781,6.2781,6.2781,6.2781,6.2781,6.2781,6.2781,6.2781,6.2781,6.2183,5.9124,5.7243,5.5355,5.2114,5.0225,4.9098,4.8959,4.8913,4.8913,4.8913,4.8913,4.8913,4.8913,4.8913,4.8913,4.8913,4.8496,4.8262,4.8398,4.8301,4.8047,4.7637,4.7324,4.7031,4.6738,4.6465,4.6308,4.6308,4.6562,4.6973,4.7539,4.7969,4.8144,4.8053,4.8144,4.8144,4.8053,4.7871,4.7243,4.6126,4.4041,4.2108,4.0316,3.8276,3.7064,6.2121,6.1792,6.1493,6.1702,6.1433,6.1076,6.1076,6.1255,6.1583,0.0,0.0,0.0,0.0,0.0,0.0,0.0,0.0,0.0,0.0,6.2091,6.1882,6.2061,6.1882,6.2002,6.2689,6.2958,6.3707,6.5173,6.6131,6.6939,6.7628,6.8456,6.923,6.9961,6.9702,6.8215,6.5427,6.4813,6.2904,5.9714,5.956,5.9483,5.9483,5.9483,5.9483,5.9483,5.9483,5.9608,5.9859,6.0788,6.1291,6.1567,6.2471,6.2781,6.2781,6.2781,6.2781,6.2781,6.2781,6.2781,6.2781,6.2781,6.2781,6.2781,6.2781,6.2347,6.1208,5.8189,5.6119,5.419,5.1116,4.9604,4.8913,4.8913,4.8913,4.8913,4.8913,4.8913,4.8913,4.8913,4.8913,4.8913,4.8913,4.8679,4.8437,4.8437,4.8281,4.8027,4.7637,4.7305,4.7012,4.6738,4.6465,4.6308,4.6308,4.6562,4.6894,4.7324,4.7598,4.7695,4.7578,4.7851,4.793,4.7812,4.7005,4.6015,4.4912,4.1988,4.0043,3.8958,3.6892,3.6114]},{"header":{"parameterUnit":"m.s-1","parameterCategory":1,"la1":30.6,"la2":29.2853,"lo1":-89.7004,"lo2":-87.6739,"dx":0.0162,"dy":0.0183,"nx":112,"ny":82,"refTime":"2022-12-18T06:00:00:Z","depth":0,"parameterNumber":3,"parameterNumberName":"V-component_of_WINDS"},"data":[0.0,0.0,0.0,0.0,0.0,0.0,0.0,0.0,0.0,0.0,0.0,0.0,0.0,0.0,0.0,0.0,0.0,0.0,0.0,0.0,0.0,0.0,0.0,0.0,0.0,0.0,0.0,0.0,0.0,0.0,0.0,0.0,0.0,0.0,0.0,0.0,0.0,0.0,0.0,0.0,0.0,0.0,0.0,0.0,0.0,0.0,0.0,0.0,0.0,0.0,0.0,0.0,0.0,0.0,0.0,0.0,0.0,0.0,0.0,0.0,0.0,0.0,0.0,0.0,0.0,0.0,0.0,0.0,0.0,0.0,0.0,0.0,0.0,0.0,0.0,0.0,0.0,0.0,0.0,0.0,0.0,0.0,0.0,0.0,0.0,0.0,0.0,0.0,0.0,0.0,3.8841,3.9649,4.0217,4.0546,4.0546,4.0546,4.0038,3.8799,0.0,0.0,0.0,0.0,0.0,0.0,0.0,0.0,0.0,0.0,0.0,0.0,0.0,0.0,0.0,0.0,0.0,0.0,0.0,0.0,0.0,0.0,0.0,0.0,0.0,0.0,0.0,0.0,0.0,0.0,0.0,0.0,0.0,0.0,0.0,0.0,0.0,0.0,0.0,0.0,0.0,0.0,0.0,0.0,0.0,0.0,0.0,0.0,0.0,0.0,0.0,0.0,0.0,0.0,0.0,0.0,0.0,0.0,0.0,0.0,0.0,0.0,0.0,0.0,0.0,0.0,0.0,0.0,0.0,0.0,0.0,0.0,0.0,0.0,0.0,0.0,0.0,0.0,0.0,0.0,0.0,0.0,0.0,0.0,0.0,0.0,0.0,0.0,0.0,0.0,0.0,0.0,0.0,0.0,0.0,0.0,0.0,0.0,0.0,0.0,0.0,0.0,0.0,0.0,3.972,4.0954,4.1194,4.1254,4.1254,4.1254,4.0924,4.0157,0.0,0.0,0.0,0.0,0.0,0.0,0.0,0.0,0.0,0.0,0.0,0.0,0.0,0.0,0.0,0.0,0.0,0.0,0.0,0.0,0.0,0.0,0.0,0.0,0.0,0.0,0.0,0.0,0.0,0.0,0.0,0.0,0.0,0.0,0.0,0.0,0.0,0.0,0.0,0.0,0.0,0.0,0.0,0.0,0.0,0.0,0.0,0.0,0.0,0.0,0.0,0.0,0.0,0.0,0.0,0.0,0.0,0.0,0.0,0.0,0.0,0.0,0.0,0.0,0.0,0.0,0.0,0.0,0.0,0.0,0.0,0.0,0.0,0.0,0.0,0.0,0.0,0.0,0.0,0.0,0.0,0.0,0.0,0.0,0.0,0.0,0.0,0.0,0.0,0.0,0.0,0.0,0.0,0.0,0.0,0.0,0.0,0.0,0.0,0.0,0.0,0.0,0.0,3.9798,4.0558,4.2252,4.1803,4.1673,4.2372,4.2122,4.1643,4.0965,3.9409,0.0,0.0,0.0,0.0,0.0,0.0,0.0,0.0,0.0,0.0,0.0,0.0,0.0,0.0,0.0,0.0,0.0,0.0,0.0,0.0,0.0,0.0,0.0,0.0,0.0,0.0,0.0,0.0,0.0,0.0,0.0,0.0,0.0,0.0,0.0,0.0,0.0,0.0,0.0,0.0,0.0,0.0,0.0,0.0,0.0,0.0,0.0,0.0,0.0,0.0,0.0,0.0,0.0,0.0,0.0,0.0,0.0,0.0,0.0,0.0,0.0,0.0,0.0,0.0,0.0,0.0,0.0,0.0,0.0,0.0,0.0,0.0,0.0,0.0,0.0,0.0,0.0,0.0,0.0,0.0,0.0,0.0,0.0,0.0,0.0,0.0,0.0,0.0,0.0,0.0,0.0,0.0,0.0,0.0,0.0,0.0,0.0,0.0,0.0,0.0,0.0,0.0,4.1444,4.1874,4.3399,4.2671,4.2491,4.3459,4.312,4.2481,4.1673,4.0666,0.0,0.0,0.0,0.0,0.0,0.0,0.0,0.0,0.0,0.0,0.0,0.0,0.0,0.0,0.0,0.0,0.0,0.0,0.0,0.0,0.0,0.0,0.0,0.0,0.0,0.0,0.0,0.0,0.0,0.0,0.0,0.0,0.0,0.0,0.0,0.0,0.0,0.0,0.0,0.0,0.0,0.0,0.0,0.0,0.0,0.0,0.0,0.0,0.0,0.0,0.0,0.0,0.0,0.0,0.0,0.0,0.0,0.0,0.0,0.0,0.0,0.0,0.0,0.0,0.0,0.0,0.0,0.0,0.0,0.0,0.0,0.0,0.0,0.0,0.0,0.0,0.0,0.0,0.0,0.0,0.0,0.0,0.0,0.0,0.0,0.0,0.0,0.0,0.0,0.0,0.0,0.0,0.0,0.0,0.0,0.0,0.0,0.0,0.0,0.0,0.0,0.0,4.3329,4.4057,4.4207,4.4147,4.4117,4.4207,4.4197,4.3629,4.241,4.2231,0.0,0.0,0.0,0.0,0.0,0.0,0.0,0.0,0.0,0.0,0.0,0.0,0.0,0.0,0.0,0.0,0.0,0.0,0.0,0.0,0.0,0.0,0.0,0.0,0.0,0.0,0.0,0.0,0.0,0.0,0.0,0.0,0.0,0.0,0.0,0.0,0.0,0.0,0.0,0.0,0.0,0.0,0.0,0.0,0.0,0.0,0.0,0.0,0.0,0.0,0.0,0.0,0.0,0.0,0.0,0.0,0.0,0.0,0.0,0.0,0.0,0.0,0.0,0.0,0.0,0.0,0.0,0.0,0.0,0.0,0.0,0.0,0.0,0.0,0.0,0.0,0.0,0.0,0.0,0.0,0.0,0.0,0.0,0.0,0.0,0.0,0.0,0.0,0.0,0.0,0.0,0.0,0.0,0.0,0.0,0.0,0.0,0.0,0.0,0.0,0.0,0.0,4.3419,4.4197,4.5403,4.4805,4.4625,4.5463,4.5164,4.4526,4.3629,0.0,0.0,0.0,0.0,0.0,0.0,0.0,0.0,0.0,0.0,0.0,0.0,0.0,0.0,0.0,0.0,0.0,0.0,0.0,0.0,0.0,0.0,0.0,0.0,0.0,0.0,0.0,0.0,0.0,0.0,0.0,0.0,0.0,0.0,0.0,0.0,0.0,0.0,0.0,0.0,0.0,0.0,0.0,0.0,0.0,0.0,0.0,0.0,0.0,0.0,0.0,0.0,0.0,0.0,0.0,0.0,0.0,0.0,0.0,0.0,0.0,0.0,0.0,0.0,0.0,0.0,0.0,0.0,0.0,0.0,0.0,0.0,0.0,0.0,0.0,0.0,0.0,0.0,0.0,0.0,0.0,0.0,0.0,0.0,0.0,0.0,0.0,0.0,0.0,0.0,0.0,0.0,0.0,0.0,0.0,0.0,0.0,0.0,0.0,0.0,0.0,0.0,4.3369,4.4027,4.4825,4.6151,4.5463,4.5313,4.6211,4.5882,4.5334,4.4676,0.0,0.0,0.0,0.0,0.0,0.0,0.0,0.0,0.0,0.0,0.0,0.0,0.0,0.0,0.0,0.0,0.0,0.0,0.0,0.0,0.0,0.0,0.0,0.0,0.0,0.0,0.0,0.0,0.0,0.0,0.0,0.0,0.0,0.0,0.0,0.0,0.0,0.0,0.0,0.0,0.0,0.0,0.0,0.0,0.0,0.0,0.0,0.0,0.0,0.0,0.0,0.0,0.0,0.0,0.0,0.0,0.0,0.0,0.0,0.0,0.0,0.0,0.0,0.0,0.0,0.0,0.0,0.0,0.0,0.0,0.0,0.0,0.0,0.0,0.0,0.0,0.0,0.0,0.0,0.0,0.0,0.0,0.0,0.0,0.0,0.0,0.0,0.0,0.0,0.0,0.0,0.0,0.0,0.0,0.0,0.0,0.0,0.0,0.0,0.0,0.0,0.0,4.4057,4.5463,4.63,4.63,4.633,4.633,4.63,4.633,4.6031,0.0,0.0,0.0,0.0,0.0,0.0,0.0,0.0,0.0,0.0,0.0,0.0,0.0,0.0,0.0,0.0,0.0,0.0,0.0,0.0,0.0,0.0,0.0,0.0,0.0,0.0,0.0,0.0,0.0,0.0,0.0,0.0,0.0,0.0,0.0,0.0,0.0,0.0,0.0,0.0,0.0,0.0,0.0,0.0,0.0,0.0,0.0,0.0,0.0,0.0,0.0,0.0,0.0,0.0,0.0,0.0,0.0,0.0,0.0,0.0,0.0,0.0,0.0,0.0,0.0,0.0,0.0,0.0,0.0,0.0,0.0,0.0,0.0,0.0,0.0,0.0,0.0,0.0,0.0,0.0,0.0,0.0,0.0,0.0,0.0,0.0,0.0,0.0,0.0,0.0,0.0,0.0,0.0,0.0,0.0,0.0,0.0,0.0,0.0,0.0,0.0,0.0,0.0,4.4237,4.5882,4.701,4.701,4.7429,4.7519,4.707,4.7429,4.7219,4.6061,0.0,0.0,0.0,0.0,0.0,0.0,0.0,0.0,0.0,0.0,0.0,0.0,0.0,0.0,0.0,0.0,0.0,0.0,0.0,0.0,0.0,0.0,0.0,0.0,0.0,0.0,0.0,0.0,0.0,0.0,0.0,0.0,0.0,0.0,0.0,0.0,0.0,0.0,0.0,0.0,0.0,0.0,0.0,0.0,0.0,0.0,0.0,0.0,0.0,0.0,0.0,0.0,0.0,0.0,0.0,0.0,0.0,0.0,0.0,0.0,0.0,0.0,0.0,0.0,0.0,0.0,0.0,0.0,0.0,0.0,0.0,0.0,0.0,0.0,0.0,0.0,0.0,0.0,0.0,0.0,0.0,0.0,0.0,0.0,0.0,0.0,0.0,0.0,0.0,0.0,0.0,0.0,0.0,0.0,0.0,0.0,0.0,0.0,0.0,0.0,0.0,0.0,4.5044,4.6621,4.7698,4.7698,4.8057,4.8259,4.8087,4.7967,4.7668,4.7108,0.0,0.0,0.0,0.0,0.0,0.0,0.0,0.0,0.0,0.0,0.0,0.0,0.0,0.0,0.0,0.0,0.0,0.0,0.0,0.0,0.0,0.0,0.0,0.0,0.0,0.0,0.0,0.0,0.0,0.0,0.0,0.0,0.0,0.0,0.0,0.0,0.0,0.0,0.0,0.0,0.0,0.0,0.0,0.0,0.0,0.0,0.0,0.0,0.0,0.0,0.0,0.0,0.0,0.0,0.0,0.0,0.0,0.0,0.0,0.0,0.0,0.0,0.0,0.0,0.0,0.0,0.0,0.0,0.0,0.0,0.0,0.0,0.0,0.0,0.0,0.0,0.0,0.0,0.0,0.0,0.0,0.0,0.0,0.0,0.0,0.0,0.0,0.0,0.0,0.0,0.0,0.0,0.0,0.0,0.0,0.0,0.0,0.0,0.0,0.0,0.0,0.0,4.63,4.7519,4.8349,4.8446,4.8476,4.8708,4.9247,4.8237,4.7758,4.8199,0.0,0.0,0.0,0.0,0.0,0.0,0.0,0.0,0.0,0.0,0.0,0.0,0.0,0.0,0.0,0.0,0.0,0.0,0.0,0.0,0.0,0.0,0.0,0.0,0.0,0.0,0.0,0.0,0.0,0.0,0.0,0.0,0.0,0.0,0.0,0.0,0.0,0.0,0.0,0.0,0.0,0.0,0.0,0.0,0.0,0.0,0.0,0.0,0.0,0.0,0.0,0.0,0.0,0.0,0.0,0.0,0.0,0.0,0.0,0.0,4.0995,3.9918,0.0,0.0,0.0,0.0,0.0,0.0,0.0,0.0,0.0,0.0,0.0,0.0,0.0,0.0,0.0,0.0,0.0,0.0,0.0,0.0,0.0,0.0,0.0,0.0,0.0,0.0,0.0,0.0,0.0,0.0,0.0,0.0,0.0,0.0,0.0,0.0,0.0,0.0,0.0,0.0,4.6988,4.7788,4.8686,4.968,4.98,4.9673,4.9307,4.9494,4.8992,4.7608,4.7608,0.0,0.0,0.0,0.0,0.0,0.0,0.0,0.0,0.0,0.0,0.0,0.0,0.0,0.0,0.0,0.0,0.0,0.0,0.0,0.0,0.0,0.0,0.0,0.0,0.0,0.0,0.0,0.0,0.0,0.0,0.0,0.0,0.0,0.0,0.0,0.0,0.0,0.0,0.0,0.0,0.0,0.0,0.0,0.0,0.0,0.0,0.0,0.0,0.0,0.0,0.0,0.0,0.0,0.0,0.0,0.0,0.0,0.0,0.0,4.2851,4.2192,0.0,0.0,0.0,0.0,0.0,0.0,0.0,0.0,0.0,0.0,0.0,0.0,0.0,0.0,0.0,0.0,0.0,0.0,0.0,0.0,0.0,0.0,0.0,0.0,0.0,0.0,0.0,0.0,0.0,0.0,0.0,0.0,0.0,0.0,0.0,0.0,0.0,0.0,0.0,0.0,4.7728,4.8895,4.98,5.0136,5.0488,5.0667,5.0714,5.0122,4.9613,4.9202,4.8626,0.0,0.0,0.0,0.0,0.0,0.0,0.0,0.0,0.0,0.0,0.0,0.0,0.0,0.0,0.0,0.0,0.0,0.0,0.0,0.0,0.0,0.0,0.0,0.0,0.0,0.0,0.0,0.0,0.0,0.0,0.0,0.0,0.0,0.0,0.0,0.0,0.0,0.0,0.0,0.0,0.0,0.0,0.0,0.0,0.0,0.0,0.0,0.0,0.0,0.0,0.0,0.0,0.0,4.4506,4.4536,4.4027,4.4566,4.5125,4.5574,4.4526,4.4616,4.5394,4.4296,0.0,0.0,0.0,0.0,0.0,0.0,0.0,0.0,0.0,0.0,0.0,0.0,0.0,0.0,0.0,0.0,0.0,0.0,0.0,0.0,0.0,0.0,4.5185,4.5185,4.6441,4.7189,4.5544,0.0,0.0,0.0,0.0,0.0,0.0,0.0,0.0,0.0,0.0,0.0,4.8745,5.0122,5.0996,5.0907,5.1176,5.1618,5.2157,5.0744,5.0152,5.0966,4.9523,4.8626,0.0,0.0,0.0,0.0,0.0,0.0,0.0,0.0,0.0,0.0,0.0,0.0,0.0,0.0,0.0,0.0,0.0,0.0,0.0,0.0,0.0,0.0,0.0,0.0,0.0,0.0,0.0,0.0,0.0,0.0,0.0,0.0,3.8973,3.9242,0.0,0.0,0.0,0.0,0.0,0.0,0.0,0.0,0.0,0.0,0.0,0.0,0.0,4.4018,4.4177,4.4825,4.5424,4.5912,4.657,4.686,4.68,4.686,4.695,4.704,4.686,0.0,4.6151,4.5971,0.0,0.0,0.0,0.0,0.0,0.0,0.0,0.0,0.0,0.0,0.0,0.0,0.0,0.0,0.0,0.0,0.0,0.0,0.0,0.0,0.0,0.0,4.8648,4.8648,4.8828,4.8947,4.8708,4.7279,4.5822,4.5155,4.5035,4.5274,0.0,0.0,0.0,0.0,0.0,0.0,5.0601,5.0548,5.1206,5.3419,5.2725,5.2097,5.2187,5.1977,5.1409,5.0398,5.0099,4.9949,4.9949,4.8805,0.0,0.0,0.0,0.0,0.0,0.0,0.0,0.0,0.0,0.0,0.0,0.0,0.0,0.0,0.0,0.0,0.0,0.0,0.0,0.0,0.0,0.0,0.0,0.0,0.0,0.0,0.0,0.0,0.0,3.8853,3.966,4.0427,4.0595,4.0894,0.0,0.0,0.0,0.0,0.0,0.0,0.0,0.0,0.0,4.4855,4.5224,4.5433,4.5433,4.6471,4.713,4.7429,4.7728,4.7848,4.7848,4.7489,4.7309,4.7339,4.7698,4.7698,4.7369,4.66,4.5792,4.4954,0.0,0.0,0.0,0.0,4.4038,4.4127,4.4745,4.5224,4.5553,4.5553,0.0,0.0,0.0,0.0,0.0,0.0,0.0,4.6591,4.7249,4.8079,4.8917,4.9643,4.9823,4.9912,5.0272,4.9673,4.8753,4.775,4.754,4.7728,4.8394,4.8484,0.0,0.0,0.0,5.081,5.1648,5.2163,5.2911,5.4047,5.4012,5.4042,5.4426,5.3743,5.3084,5.2492,5.1744,5.1036,5.0455,4.9843,4.97,0.0,0.0,0.0,0.0,0.0,0.0,0.0,0.0,0.0,0.0,0.0,0.0,0.0,0.0,0.0,0.0,0.0,0.0,0.0,0.0,0.0,0.0,0.0,0.0,0.0,0.0,0.0,0.0,4.0199,4.0846,4.2032,4.2571,4.308,0.0,0.0,0.0,0.0,0.0,0.0,4.4805,4.4954,4.5304,4.5783,4.6471,4.6719,4.657,4.7728,4.8319,4.8319,4.8468,4.8558,4.8558,4.8207,4.8035,4.8065,4.8745,4.9045,4.8925,4.7608,4.698,4.6749,4.6262,4.5963,4.5813,4.5992,4.6052,4.6142,4.683,4.7399,4.7818,4.7818,4.8498,4.9217,4.8895,0.0,0.0,0.0,0.0,4.8446,4.9105,4.9426,4.9793,5.0727,5.0966,5.1086,5.1618,5.1708,5.1349,5.0055,4.9786,4.9912,5.0398,5.0458,0.0,5.1355,5.2037,5.2576,5.2905,5.3683,5.4341,5.467,5.485,5.5149,5.5653,5.491,5.4461,5.4461,5.3591,5.2806,5.2175,5.192,5.1868,5.2094,0.0,0.0,0.0,0.0,0.0,0.0,0.0,0.0,0.0,0.0,0.0,0.0,0.0,0.0,0.0,0.0,0.0,0.0,0.0,0.0,0.0,0.0,0.0,0.0,0.0,0.0,0.0,0.0,0.0,4.4057,4.4177,0.0,0.0,0.0,0.0,4.5185,4.5822,4.6211,4.6211,4.6779,4.716,4.7189,4.7848,4.7878,4.7249,4.7938,4.8319,4.8319,4.8947,4.9247,4.9247,4.98,5.0046,5.0099,5.0757,5.1056,5.0936,4.9696,4.8768,4.8199,4.8147,4.7758,4.7279,4.7908,4.8169,4.8259,4.8917,4.9157,4.9187,4.9187,4.9247,4.9396,4.9949,4.9703,0.0,0.0,5.0996,5.1146,5.1828,5.248,5.2989,5.3049,5.3049,5.3079,5.3109,5.3109,5.2695,5.1379,5.1086,5.1116,5.1146,0.0,5.1355,5.2067,5.2725,5.3618,5.488,5.4551,5.47,5.5953,5.497,5.4281,5.4311,5.482,5.5149,5.5149,5.5384,5.5759,5.6265,5.5637,5.4943,5.4263,5.3789,0.0,0.0,0.0,0.0,0.0,0.0,0.0,0.0,0.0,0.0,0.0,0.0,0.0,0.0,0.0,0.0,0.0,0.0,0.0,0.0,0.0,0.0,0.0,0.0,0.0,0.0,0.0,0.0,4.3638,4.3668,0.0,4.4267,4.4915,4.5663,4.6531,4.683,4.7339,4.8177,4.8027,4.8139,4.8588,4.8828,4.8828,4.8588,4.9224,4.9531,4.9531,4.977,4.986,4.986,4.9703,4.9613,4.9643,5.0278,5.0578,5.0548,5.0541,5.0152,4.9531,4.9531,4.9134,4.8618,4.8858,4.8947,4.8977,4.9239,4.9546,5.0032,5.087,5.1193,5.1312,5.1917,5.2276,5.2546,5.2995,5.312,5.3204,5.3443,5.3324,5.3318,5.3743,5.4162,5.4606,5.5025,5.5444,5.5568,5.5089,5.3623,5.2755,5.3623,5.3414,5.3354,5.4012,5.4311,5.464,5.5119,5.497,5.5179,5.6102,5.5773,5.5628,5.6047,5.6501,5.6541,5.6115,5.6933,5.7459,5.7498,5.7764,5.7633,5.7055,5.7013,5.6928,0.0,0.0,0.0,0.0,0.0,0.0,0.0,0.0,0.0,0.0,0.0,0.0,0.0,0.0,0.0,0.0,0.0,0.0,0.0,0.0,0.0,0.0,0.0,0.0,0.0,4.3788,4.3728,4.3938,4.3967,4.4147,4.4596,4.5454,4.6441,4.7549,4.7848,4.8379,4.9247,4.9075,4.9045,4.9277,4.9516,4.9516,4.9277,4.989,5.0315,5.0548,5.0757,5.0996,5.1206,5.102,5.0953,5.0983,5.1618,5.1894,5.1923,5.2372,5.2133,5.1505,5.1056,5.078,5.0624,5.0624,5.0624,5.0624,5.0624,5.102,5.1654,5.2336,5.2546,5.2665,5.3324,5.3832,5.4286,5.476,5.488,5.491,5.5119,5.485,5.4635,5.5059,5.5508,5.5957,5.6402,5.6821,5.7154,5.7393,5.5867,5.473,5.5444,5.5329,5.5329,5.5777,5.6017,5.6256,5.6496,5.6316,5.6346,5.6795,5.6641,5.6826,5.7579,5.7917,5.8168,5.8287,5.9231,5.9809,5.9833,6.0098,6.0042,5.9599,5.951,5.9285,5.887,0.0,0.0,0.0,0.0,0.0,0.0,0.0,0.0,0.0,0.0,0.0,0.0,0.0,0.0,0.0,0.0,0.0,0.0,0.0,0.0,0.0,0.0,0.0,4.5394,4.4766,4.4616,4.5214,4.5304,4.5304,4.5364,4.6531,4.7608,4.8319,4.8947,4.9307,4.9337,4.989,4.9949,4.9396,4.9949,4.9979,4.9426,4.9979,5.0637,5.1265,5.1917,5.2576,5.3228,5.3862,5.4192,5.4221,5.485,5.5119,5.5119,5.5119,5.476,5.4072,5.2785,5.2636,5.3198,5.3198,5.3198,5.3198,5.3198,5.3653,5.4132,5.3468,5.3288,5.3438,5.4102,5.4311,5.461,5.5893,5.6252,5.6402,5.6974,5.7124,5.7094,5.7094,5.7124,5.7124,5.7124,5.7154,5.7363,5.7995,5.7603,5.6944,5.6372,5.6731,5.7094,5.7094,5.7663,0.0,5.8949,5.8444,5.8085,5.8085,5.7513,5.7536,5.86,5.8953,5.9819,6.1495,6.2172,6.2843,6.3545,6.2824,6.2191,6.1805,6.127,6.0564,5.968,0.0,0.0,0.0,0.0,0.0,0.0,0.0,0.0,0.0,0.0,0.0,0.0,0.0,0.0,0.0,0.0,0.0,0.0,0.0,0.0,0.0,4.6172,4.6621,4.5454,4.5574,4.5642,4.5334,4.5304,4.5663,4.6651,4.71,4.7945,4.9561,4.9456,4.9696,5.0631,5.0368,5.0578,5.1379,5.1558,5.1798,5.2121,5.2276,5.2456,5.2636,5.2839,5.3019,5.3228,5.3408,5.3473,5.3473,5.3677,5.3767,5.3767,5.3767,5.3922,5.4162,5.3803,5.3473,5.3198,5.3198,5.3198,5.3198,5.3198,5.3977,5.488,5.47,5.5269,5.6047,5.6256,5.6645,5.7098,5.7457,5.7573,5.7633,5.7782,5.7453,5.7094,5.7094,5.7483,5.7842,5.7842,5.8231,5.859,5.88,5.868,5.8351,5.7693,5.7304,5.7094,5.7094,5.7244,5.7453,5.7633,5.7483,5.7573,5.8055,5.7935,5.8027,5.8577,5.9321,6.016,6.1136,6.2122,6.3373,6.4841,6.4832,6.4468,6.3825,6.3494,6.273,0.0,0.0,0.0,0.0,0.0,0.0,0.0,0.0,0.0,0.0,0.0,0.0,0.0,0.0,0.0,0.0,0.0,0.0,0.0,0.0,0.0,0.0,4.683,4.7339,4.6292,4.6211,4.6241,4.6142,4.5903,4.6142,4.7189,4.7818,4.8596,4.9733,5.0242,5.084,5.1588,5.1528,5.1828,5.2576,5.2606,5.2809,5.3198,5.3198,5.3348,5.3623,5.3623,5.3767,5.4037,5.4037,5.4186,5.4456,5.4456,5.4606,5.4845,5.4845,5.5059,5.5329,0.0,0.0,0.0,0.0,5.4999,5.5209,5.491,5.5508,5.6376,5.6077,5.6496,5.7094,5.7094,5.7363,5.7726,5.8025,5.8085,5.8145,5.8444,5.8231,5.8022,5.8291,5.865,5.9009,5.9281,5.964,5.9937,5.9937,5.9937,0.0,5.9401,5.859,5.8022,5.8291,5.8112,5.8022,5.8321,5.8112,5.8135,5.8604,5.8691,5.9164,6.0346,6.0797,0.0,0.0,0.0,6.441,6.5155,6.5426,0.0,0.0,0.0,6.4019,6.3622,6.4157,0.0,0.0,6.1011,6.1063,0.0,0.0,0.0,0.0,0.0,0.0,0.0,0.0,0.0,0.0,0.0,0.0,0.0,0.0,0.0,0.0,4.7549,4.8229,4.7608,4.6988,4.6809,4.7369,4.6929,4.6929,4.7668,4.8828,4.9576,4.9726,5.1342,5.2306,5.2306,5.2899,0.0,0.0,0.0,5.3408,5.3528,5.3528,5.3862,5.4551,5.4551,5.485,5.5388,5.5388,5.5743,5.6312,5.6312,5.6611,5.7094,5.7094,5.7094,5.6915,5.5209,5.5239,5.6372,5.6885,5.7483,5.7905,5.7304,0.0,0.0,5.7423,5.7244,5.7334,5.7334,5.7334,5.7483,5.8141,5.8324,5.8444,5.9069,5.9279,5.9458,5.9994,6.0174,6.0386,6.0984,6.1076,6.1076,6.1076,6.1076,6.1076,6.1076,6.0057,5.9398,5.9997,5.9518,5.9308,5.9907,5.9681,5.957,5.9871,6.0118,0.0,6.3235,6.3123,6.3972,6.634,6.6168,6.5785,6.5258,6.5492,6.5525,6.539,6.4973,6.5175,6.6089,6.5425,6.5121,6.5067,6.3994,6.3532,0.0,0.0,0.0,0.0,0.0,0.0,0.0,0.0,0.0,0.0,0.0,0.0,0.0,0.0,0.0,4.7048,4.8207,4.9067,4.8917,4.8798,4.8558,4.8169,4.8468,4.9164,5.0308,5.0667,5.1289,5.236,5.2809,5.3019,5.3019,5.3139,5.3468,5.3982,5.4012,5.4521,5.5623,5.5623,5.5923,5.6526,5.6526,0.0,5.6735,5.6735,5.6795,5.6915,5.6915,5.6974,5.7094,5.7094,5.7094,5.7064,5.6675,5.6705,5.6944,5.7064,5.7184,5.7274,5.7124,5.7543,5.8085,5.7935,5.8291,5.871,5.871,5.871,0.0,5.9518,5.9697,5.9727,5.9847,6.0326,6.0625,6.0176,6.0505,6.0954,6.1074,6.1076,6.1076,6.1076,6.1076,6.1076,6.1076,6.0446,5.9937,6.0084,5.9518,5.9159,5.9279,6.0654,6.1791,6.2342,6.3885,6.518,6.5863,6.5842,6.5975,6.6377,6.6553,6.6843,6.7303,6.7379,6.7683,6.8279,6.8188,6.8263,6.8436,6.8301,6.8233,6.8199,6.6137,6.5514,0.0,0.0,0.0,0.0,0.0,0.0,0.0,0.0,0.0,0.0,0.0,4.5493,4.6172,0.0,4.7908,4.8259,4.9105,4.9853,5.0182,5.0564,5.0504,4.9823,5.0032,5.0631,5.1618,5.2007,5.2336,5.2665,5.3324,5.3683,5.3683,5.4336,5.4845,5.5179,5.5478,5.5957,5.6641,5.6671,5.6821,5.7094,5.7094,5.7094,5.7094,5.7094,5.7274,5.7603,5.7603,5.7782,5.8112,5.8112,5.8112,5.8112,5.8112,5.7902,5.7633,5.7992,5.8112,5.8112,5.8112,5.8321,5.8593,5.8593,5.9069,5.9608,5.9608,5.9847,6.0176,6.0505,6.0595,6.0595,6.0595,6.0864,6.1104,6.1104,6.1343,6.1702,6.2032,6.2091,6.2091,6.2091,6.2091,6.2091,6.2091,6.1523,6.0984,6.0655,6.0027,5.9608,5.9608,6.1,6.2229,6.2799,6.4488,6.596,6.7018,6.7565,6.7813,6.7759,6.7873,6.8132,6.8504,6.8504,6.8707,6.9079,6.9113,6.9113,6.9113,6.9113,6.9113,6.9079,6.8301,6.7726,0.0,0.0,0.0,0.0,0.0,0.0,0.0,4.4766,4.5574,4.5813,4.6322,4.6869,4.7549,4.8237,4.8895,4.9546,5.0212,5.0817,5.1475,5.2067,5.2247,5.1834,5.1678,5.1858,5.2516,5.3084,5.3288,5.2995,5.3982,5.464,5.476,5.5777,5.6372,5.6372,5.6851,5.7154,5.7304,5.7304,5.7363,5.7483,5.7483,5.7483,5.7483,5.7483,5.7782,5.8294,5.8294,5.8653,5.9308,5.9308,5.9368,5.9488,5.9488,5.9162,5.8713,5.9159,5.9308,5.9308,5.9458,5.9488,5.9488,5.9488,5.9847,6.0266,6.0266,6.0685,6.1134,6.1283,6.1285,6.1285,6.1285,6.1403,6.1613,6.2151,6.2391,6.266,6.3318,6.3468,6.3468,6.3468,6.3468,6.3497,6.3555,6.3105,6.2446,6.1433,6.0715,6.0376,6.0596,6.1813,6.2892,6.3558,6.5123,6.6728,6.8207,6.8931,6.9316,6.9316,6.918,6.918,6.9316,6.9316,6.9383,6.9519,6.9688,6.9755,6.9755,6.9891,6.9958,6.9958,7.0263,6.9755,4.2201,4.288,4.3698,4.4796,4.5185,4.5424,0.0,4.6091,4.651,4.7698,4.8019,4.8289,4.8947,4.9583,5.0219,5.0877,5.1558,5.2217,5.2875,5.3049,5.3264,5.3803,5.3324,5.3234,5.3922,5.4042,5.4551,5.5683,5.5893,5.6222,5.6735,5.6915,5.7004,5.7004,5.7064,5.7393,5.7965,5.7995,5.8264,5.889,5.889,5.889,5.889,5.889,5.8919,5.9009,5.9009,5.9368,5.9967,5.9967,6.0326,6.0894,6.0894,6.0835,6.0715,6.0176,5.9967,6.0057,6.0685,6.0894,6.0894,6.0894,6.0954,6.1014,6.1014,6.1016,6.1196,6.1822,6.2002,6.2002,6.2002,6.2421,6.2898,6.2988,6.3378,6.3977,6.4635,6.4785,6.4785,6.4785,6.4785,6.4874,6.5169,6.5168,6.4418,6.2299,6.1433,6.1343,6.2369,6.436,6.6117,6.7191,6.9271,7.068,7.0861,7.0365,7.0082,7.0082,6.9451,6.9383,7.0026,7.0082,7.0398,7.1019,7.1718,7.2022,7.2022,7.2699,7.3026,7.2992,7.1751,7.1086,4.3229,4.3688,4.4117,4.5065,4.5304,4.5574,4.6629,4.6869,4.7279,4.8618,4.9164,4.9471,4.9793,5.069,5.1468,5.1738,5.2336,5.3025,5.3683,5.3773,5.4162,5.5239,5.5114,5.5055,5.5354,5.5359,5.5718,5.6671,5.6705,5.6825,5.7094,5.7483,5.7693,5.7693,5.8052,5.8411,5.868,5.8683,5.883,5.9099,5.9099,5.9099,5.9129,5.9488,5.9907,6.0266,6.0266,6.0416,6.0685,6.0685,6.0864,6.1076,6.1076,6.1076,6.1074,6.0805,6.0685,6.0715,6.1014,6.1076,6.1076,6.1076,6.1373,6.1672,6.1672,6.1942,6.2391,6.3019,6.3199,6.3288,6.3707,6.4006,6.4216,6.4216,6.4425,6.4635,6.4934,6.4994,6.4994,6.4994,6.4994,6.5024,6.5172,6.5202,6.4962,6.4179,6.4254,6.4785,6.5901,6.7477,6.9043,7.059,7.1854,7.2528,7.2334,7.2201,7.2146,7.2146,7.1819,7.1616,7.1481,7.1481,7.1413,7.1289,7.1594,7.1988,7.2394,7.2699,7.3071,7.35,7.3308,7.3217,4.3818,4.4027,4.4147,4.4646,4.5035,4.5603,4.677,4.7309,4.7938,4.9277,5.0062,5.0548,5.0727,5.1708,5.2546,5.2725,5.3144,5.3773,5.464,5.476,5.5149,5.6312,5.6462,5.6521,5.6731,5.6551,5.6731,5.7334,5.7393,5.7453,5.7633,5.8112,5.8384,5.8384,5.886,5.9099,5.9099,5.9279,5.9368,5.9368,5.9578,5.9668,5.9668,6.0146,6.0655,6.1076,6.1076,6.1224,6.1373,6.1373,6.1493,6.1642,6.1642,6.1642,6.1672,6.1852,6.1672,6.1403,6.1583,6.1642,6.1672,6.1852,6.2241,6.266,6.2839,6.3228,6.3707,6.4156,6.4276,6.4395,6.4874,6.4994,6.5054,6.5233,6.5263,6.5323,6.5503,6.5622,6.5682,6.5682,6.5742,6.5832,6.5951,6.5951,6.6158,6.6803,6.7648,6.835,6.8624,6.9981,7.1458,7.2834,7.3301,7.3407,7.3221,7.3384,7.35,7.35,7.35,7.3263,7.2732,7.2699,7.2462,7.1921,7.2101,7.2473,7.3003,7.3206,7.3578,7.4109,7.4458,7.4603,4.3519,4.3319,4.3319,4.3369,4.4326,4.5484,4.6181,4.7339,4.8626,4.992,5.0697,5.1355,5.2037,5.2695,5.3384,5.4042,5.4162,5.464,5.5953,5.6132,5.6372,5.7004,5.7064,5.7334,5.7965,5.7453,5.7363,5.8025,5.8055,5.8354,5.9009,5.9069,5.9069,5.9069,5.9099,5.9099,5.9099,5.9727,6.0057,6.0084,6.0745,6.1016,6.1016,6.1046,6.1104,6.1076,6.1076,6.1493,6.2061,6.2061,6.245,6.3048,6.3048,6.3048,6.3108,6.3707,6.3139,6.2151,6.2808,6.3048,6.3138,6.3707,6.3917,6.4066,6.4695,6.4934,6.4934,6.4964,6.4964,6.4964,6.4994,6.4994,6.5144,6.5832,6.5981,6.6161,6.6789,6.7214,6.7427,6.7427,6.7699,6.7969,6.8236,6.8296,6.8766,7.0227,7.1415,7.1466,6.9606,7.1499,7.3151,7.343,7.3477,7.3477,7.3477,7.3477,7.35,7.35,7.35,7.35,7.3466,7.3466,7.3466,7.3432,7.4153,7.4502,7.4536,7.5236,7.5608,7.5608,7.4931,7.4603,4.3349,4.3638,4.4057,4.4526,4.5633,4.692,4.8049,4.8955,4.992,5.1236,5.1355,5.1385,5.2067,5.2725,5.3414,5.4102,5.494,5.5833,5.6701,5.6821,5.7034,5.7693,5.7756,5.7846,5.8085,5.7905,5.8025,5.871,5.877,5.886,5.9099,5.9099,5.9099,5.9099,5.9518,5.9757,5.9757,6.0446,6.0775,6.0775,6.1014,6.1343,6.1762,6.1762,6.2002,6.2421,6.2421,6.2569,6.278,6.3199,6.3498,6.3737,6.4186,6.4366,6.4395,6.4575,6.4366,6.4066,6.4276,6.4366,6.4366,6.4575,6.4665,6.4695,6.4934,6.4994,6.5084,6.5532,6.5652,6.5772,6.6221,6.634,6.637,6.661,6.6852,6.7064,6.7275,6.7608,6.785,6.785,6.794,6.8268,6.9118,6.9263,7.0035,7.2261,7.305,7.3452,7.3567,7.4301,7.4871,7.4965,7.4965,7.4965,7.4965,7.4965,7.4965,7.4965,7.4965,7.4728,7.4255,7.4221,7.3984,7.3534,7.3747,7.4119,7.4603,7.4864,7.5236,7.5676,7.5439,7.5337,4.3609,4.3967,4.4446,4.5125,4.6322,4.7638,4.8977,4.9942,5.0936,5.2276,5.2217,5.2067,5.2486,5.3294,5.4067,5.4491,5.5658,5.6761,5.7363,5.7453,5.7633,5.8055,5.8085,5.7995,5.7782,5.7726,5.8022,5.871,5.8979,5.9099,5.9099,5.9099,5.9219,5.9458,5.9877,6.0234,6.0446,6.1134,6.1583,6.1822,6.1822,6.2032,6.245,6.245,6.281,6.3408,6.3408,6.3558,6.3797,6.4216,6.4366,6.4425,6.4815,6.4994,6.5024,6.5263,6.5353,6.5323,6.5084,6.4994,6.5024,6.5263,6.5353,6.5383,6.5622,6.5682,6.5802,6.6251,6.637,6.646,6.6879,6.6999,6.6999,6.6999,6.7274,6.7517,6.7517,6.7819,6.8119,6.8119,6.8238,6.8565,6.9294,6.9408,7.0121,7.2207,7.2998,7.393,7.5508,7.5709,7.5709,7.5709,7.5709,7.5709,7.5709,7.5709,7.5709,7.5709,7.5709,7.5473,7.5033,7.4999,7.4762,7.4312,7.4312,7.4525,7.4999,7.5303,7.5676,7.6149,7.6386,7.6521,4.4117,4.4356,4.4566,4.5214,4.6411,4.7758,4.9097,5.0361,5.1594,5.2929,5.3169,5.3169,5.3169,5.4221,5.5149,5.5179,5.6286,5.7363,5.7995,5.8085,5.8085,5.8055,5.8055,5.7786,5.7124,5.7064,5.7363,5.7995,5.865,5.9039,5.9099,5.9069,5.9398,6.0116,6.0146,6.0475,6.1136,6.1822,6.245,6.3108,6.3138,6.3168,6.3168,6.3197,6.3527,6.4066,6.4066,6.4425,6.4994,6.5024,6.5054,6.5054,6.5084,6.5084,6.5174,6.5832,6.6071,6.5981,6.5323,6.5084,6.5203,6.5832,6.6071,6.6191,6.6819,6.6999,6.6999,6.7029,6.7029,6.7059,6.7089,6.7089,6.7089,6.7089,6.7364,6.7638,6.7638,6.8091,6.8538,6.8538,6.8804,6.9037,6.9094,6.9122,6.9554,7.0746,7.1842,7.3297,7.5398,7.5719,7.5777,7.5811,7.5811,7.5811,7.5811,7.5811,7.5811,7.5811,7.5811,7.5811,7.5811,7.5811,7.5811,7.5811,7.5811,7.5811,7.5811,7.6589,7.6961,7.6961,7.7671,7.8,4.4237,4.5014,4.5942,4.6621,4.7788,4.9127,5.0421,5.1349,5.2187,5.3049,5.2785,5.2456,5.2456,5.3563,5.461,5.5119,5.6705,5.7905,5.8085,5.8085,5.7905,5.7423,5.7363,5.7094,5.6492,5.6825,5.7154,5.7334,5.7513,5.8052,5.9039,5.865,5.9102,6.0805,6.0864,6.1164,6.1852,6.251,6.2928,6.3108,6.3558,6.3767,6.3767,6.4306,6.4575,6.4725,6.4725,6.4845,6.5024,6.5532,6.5772,6.5772,6.6311,6.649,6.652,6.667,6.6759,6.6729,6.655,6.649,6.652,6.67,6.6759,6.6759,6.6939,6.6999,6.7089,6.7598,6.7748,6.7868,6.8345,6.8495,6.8495,6.8495,6.8933,6.9365,6.9365,6.9824,7.0277,7.0277,7.0585,7.1033,7.1356,7.2127,7.3273,7.5029,7.5564,7.5606,7.5289,7.6035,7.6792,7.7333,7.7401,7.7401,7.7401,7.7401,7.7401,7.7401,7.7401,7.7401,7.7401,7.7401,7.7401,7.7401,7.7401,7.7401,7.7401,7.7604,7.7705,7.7705,7.7933,7.8,4.4676,4.5723,4.6958,4.7938,4.9164,5.0391,5.1409,5.2396,5.3174,5.3563,5.3354,5.3174,5.3443,5.4371,5.5269,5.5927,5.7453,5.8444,5.8145,5.8085,5.7726,5.6821,5.6731,5.6462,5.5833,5.6072,5.6376,5.6701,5.6944,5.7812,5.9458,5.8919,5.9488,6.1493,6.1553,6.1852,6.251,6.3169,6.3468,6.3498,6.4126,6.4455,6.4426,6.4815,6.5144,6.5443,6.5443,6.5622,6.5922,6.6281,6.643,6.649,6.6849,6.6999,6.7029,6.7329,6.7449,6.7508,6.7777,6.7867,6.7837,6.7508,6.7627,6.7867,6.7867,6.7867,6.7956,6.8315,6.8466,6.8556,6.8884,6.913,6.9226,6.9226,6.9725,7.022,7.022,7.0587,7.089,7.089,7.1119,7.1386,7.1636,7.2655,7.3812,7.4872,7.5962,7.6534,7.6155,7.686,7.7536,7.7967,7.8,7.8,7.8,7.8,7.8,7.8,7.8,7.8,7.8,7.8,7.8,7.8,7.8,7.8,7.8,7.8314,7.8483,7.8483,7.8822,7.8957,4.5394,4.6531,4.7878,4.9217,5.0391,5.1415,5.2276,5.3384,5.4167,5.4102,5.4221,5.4491,5.497,5.5683,5.6432,5.7124,5.8201,5.874,5.8055,5.7965,5.7513,5.6222,5.6072,5.5833,5.5239,5.5269,5.5623,5.6282,5.6795,5.7932,5.9847,5.9428,6.0027,6.2032,6.2181,6.254,6.3227,6.3737,6.4036,6.4156,6.4785,6.5144,6.5144,6.5203,6.5562,6.6131,6.6131,6.646,6.6999,6.6999,6.7029,6.7119,6.7119,6.7178,6.7328,6.7928,6.8137,6.8227,6.8794,6.9004,6.8884,6.8347,6.8556,6.9004,6.9004,6.9004,6.9004,6.9157,6.9155,6.9185,6.937,6.959,6.978,6.9811,7.0309,7.0771,7.0771,7.0985,7.1136,7.1075,7.1044,7.1134,7.1341,7.225,7.3086,7.349,7.5314,7.6941,7.7673,7.8001,7.8179,7.828,7.8305,7.8305,7.8305,7.8305,7.8305,7.8305,7.8305,7.8305,7.8305,7.8204,7.817,7.817,7.817,7.817,7.817,7.8788,7.9101,7.9101,7.9667,7.9904,4.692,4.7908,4.9247,5.0541,5.105,5.1654,5.3473,5.4042,5.4042,5.3473,5.4251,5.488,5.4461,5.5359,5.6581,5.7726,5.8115,5.8025,5.7363,5.7274,5.6795,5.5508,5.5359,5.5354,5.5209,5.5713,5.6282,5.6885,5.7034,5.7723,5.9189,5.9159,6.0027,6.2032,6.2659,6.3199,6.3827,6.3947,6.4276,6.4815,6.5503,6.5832,6.5862,6.64,6.67,6.6819,6.6819,6.6879,6.6999,6.6999,6.7329,6.7838,6.7838,6.8166,6.8675,6.8764,6.8824,6.8824,6.8944,6.9004,6.8974,6.8854,6.8914,6.9004,6.9004,6.9004,6.9187,7.0011,7.0035,7.0091,7.1174,7.1263,7.1138,7.1485,7.1895,7.2147,7.2147,7.2397,7.246,7.1936,7.1813,7.2263,7.3635,7.4038,7.506,7.7633,7.8354,7.8884,7.9592,7.9238,7.916,7.9735,7.9803,7.9803,7.9803,7.9803,7.9803,7.9803,7.9803,7.9803,7.9803,7.9228,7.8923,7.8923,7.8923,7.8923,7.8923,7.9058,7.9101,7.9092,7.8619,7.8382,4.7818,4.9015,5.0511,5.1498,5.2247,5.2911,5.3533,5.4221,5.4431,5.3408,5.4546,5.5807,5.6171,5.7034,5.7902,5.853,5.8919,5.865,5.7274,5.7094,5.6765,5.5833,5.5388,5.5354,5.5683,5.6013,5.6611,5.7543,5.7633,5.8201,5.9548,6.0266,6.1253,6.2599,6.3228,6.3857,6.4515,6.4874,6.5203,6.5503,6.6191,6.652,6.652,6.6849,6.6999,6.6999,6.6999,6.6999,6.7029,6.7389,6.7718,6.8047,6.8375,6.8704,6.9034,6.9393,6.9512,6.9572,6.9871,6.9991,6.9991,6.9991,6.9782,6.9512,6.9512,6.9722,7.0083,7.0573,7.0599,7.0659,7.1471,7.1722,7.1818,7.2167,7.2514,7.2765,7.2765,7.289,7.2922,7.2583,7.2522,7.2797,7.3592,7.4256,7.5149,7.6648,7.7934,7.8868,7.9228,7.9482,7.9803,8.0175,8.0209,8.0209,8.0209,8.0209,8.0209,8.0209,7.9837,7.9803,8.0175,7.9498,7.9295,7.9667,7.9667,7.9498,7.9101,7.9101,7.8923,7.8517,7.8145,7.8,4.8865,5.0152,5.1594,5.2426,5.3414,5.4102,5.3737,5.4431,5.485,5.3677,5.4995,5.6761,5.7876,5.865,5.9189,5.9488,5.9608,5.9069,5.7334,5.6974,5.6701,5.6072,5.5653,5.5623,5.6162,5.6462,5.7004,5.8025,5.8234,5.8919,6.0236,6.1313,6.2241,6.3078,6.3558,6.4186,6.4994,6.5503,6.5951,6.6221,6.6759,6.6999,6.6999,6.6999,6.6999,6.6999,6.6999,6.7059,6.7269,6.7778,6.8167,6.8496,6.9004,6.9303,6.9482,6.9991,7.0171,7.026,7.0739,7.0829,7.0709,7.0709,7.047,7.0171,7.0171,7.053,7.0889,7.1016,7.0984,7.1016,7.1435,7.1754,7.2072,7.2514,7.2642,7.2736,7.2952,7.2891,7.2829,7.2952,7.3014,7.3076,7.3355,7.4176,7.4978,7.5473,7.7175,7.8491,7.873,7.9606,8.0209,8.0209,8.0209,8.0209,8.0209,8.0209,8.0209,8.0209,7.9667,7.96,8.0175,7.9498,7.9397,7.9938,7.9972,7.9701,7.9101,7.8957,7.8585,7.7976,7.7638,7.7527,5.0757,5.1528,5.2426,5.3713,5.4132,5.4341,5.488,5.5089,5.497,5.4251,5.5658,5.7244,5.7965,5.865,5.9518,6.0717,5.9431,5.8022,5.7214,5.6641,5.6042,5.5359,5.5773,5.6132,5.6192,5.7244,5.7965,5.8085,5.8653,5.9608,6.0954,6.1106,6.1792,6.3078,6.3168,6.3767,6.4994,6.5054,6.5682,6.6909,6.6969,6.6999,6.6999,6.6999,6.6999,6.6999,6.6999,6.7359,6.7928,6.7987,6.8736,6.9844,6.9903,7.0231,7.0739,7.0799,7.0829,7.0829,7.0889,7.053,7.0083,7.0083,7.041,7.0829,7.0829,7.0859,7.0954,7.1275,7.1115,7.1081,7.1754,7.1975,7.2136,7.2796,7.2212,7.1812,7.2767,7.2522,7.2275,7.286,7.3014,7.3355,7.4445,7.4711,7.5531,7.7757,7.8277,7.8816,7.9896,8.0124,8.0209,8.0209,8.0209,8.0209,8.0209,8.0209,8.0209,8.0209,8.0141,8.0141,8.0209,7.9498,7.9135,7.9194,7.9203,7.9169,7.9101,7.8416,7.8068,7.7967,7.6555,7.5912,5.1505,5.2276,5.3025,5.3982,5.4491,5.476,5.464,5.491,5.4999,5.4341,5.5748,5.7423,5.8501,5.9608,6.0475,6.0986,6.0418,5.9371,5.7905,5.7154,5.6641,5.6376,5.6252,5.6492,5.7274,5.7786,5.8264,5.8653,5.9308,6.0296,6.1642,6.1343,6.1882,6.3588,6.4036,6.4874,6.6191,6.6191,6.646,6.6999,6.6999,6.6999,6.6999,6.6999,6.6999,6.6999,6.7449,6.7748,6.8047,6.8886,6.9544,7.0053,7.038,7.0679,7.0889,7.0889,7.0889,7.0889,7.0889,7.0739,7.053,7.053,7.0709,7.0829,7.047,7.062,7.0951,7.1081,7.0986,7.1016,7.15,7.1977,7.2388,7.264,7.2243,7.1967,7.2829,7.2121,7.1536,7.2275,7.2029,7.2028,7.2977,7.3729,7.4678,7.6013,7.7484,7.8737,7.968,8.0407,8.0851,8.0851,8.0445,8.0209,8.0209,8.0209,8.0209,8.0209,7.9769,7.9735,8.0175,7.9498,7.9329,7.9769,7.9769,7.9532,7.9101,7.8822,7.8416,7.8,7.7391,7.7063,5.2127,5.2839,5.3408,5.4281,5.485,5.5059,5.461,5.485,5.5119,5.485,5.6017,5.7573,5.9099,6.0326,6.1136,6.1373,6.1074,6.0236,5.8623,5.7483,5.6885,5.7064,5.6705,5.6885,5.7995,5.8264,5.877,5.9638,6.0116,6.0984,6.2301,6.2121,6.269,6.4246,6.4755,6.5532,6.67,6.67,6.6789,6.6999,6.6999,6.6999,6.6999,6.6999,6.6999,6.7029,6.7718,6.8107,6.8407,6.9544,7.0113,7.029,7.0739,7.0889,7.0889,7.0889,7.0889,7.0889,7.0889,7.0889,7.0859,7.0679,7.0739,7.0799,7.0171,7.041,7.0889,7.0889,7.0889,7.0956,7.1164,7.1548,7.1896,7.1995,7.1599,7.1414,7.2214,7.1444,7.0828,7.1567,7.1413,7.1504,7.2392,7.3575,7.4749,7.573,7.751,7.8976,7.9622,8.0457,8.108,8.1283,8.0648,8.0209,8.0209,8.0209,8.0209,8.0209,7.9701,7.9667,8.0175,7.9701,7.9667,8.0175,8.0209,7.9938,7.9431,7.9228,7.8822,7.8314,7.8102,7.8,5.2839,5.3198,5.3528,5.485,5.5179,5.5179,5.5179,5.5179,5.5414,5.6042,5.6671,5.7693,5.9725,6.0655,6.1313,6.1972,6.0984,5.9847,5.9189,5.745,5.6432,5.7034,5.7094,5.7363,5.8025,5.871,5.9638,6.0956,6.1076,6.1672,6.3018,6.3647,6.4306,6.4964,6.4994,6.5323,6.6011,6.6011,6.634,6.6999,6.6999,6.6999,6.6999,6.6999,6.6999,6.7029,6.7718,6.8407,6.9034,6.9722,7.035,7.0889,7.0889,7.0889,7.0889,7.0889,7.0889,7.0889,7.0889,7.0889,7.0799,7.0201,7.041,7.0799,7.0171,7.041,7.0889,7.0889,7.0889,7.0901,7.0906,7.0662,7.0512,7.0832,7.0157,6.97,7.0737,7.0398,7.012,7.0767,7.1475,7.2394,7.3584,7.4956,7.6449,7.8101,7.9007,7.9668,8.0124,8.0209,8.0479,8.1215,8.0648,8.0209,8.0209,8.0209,8.0209,8.0209,8.0175,8.0175,8.0209,8.0175,8.0175,8.0209,8.0209,8.0209,8.0175,7.9464,7.9101,7.9067,7.8348,7.8,5.2037,5.2516,5.2845,5.4192,5.485,5.5299,5.5773,5.6222,5.6555,5.6765,5.7334,5.8261,5.9787,6.0655,6.1343,6.2002,6.1373,6.0386,5.9249,5.8171,5.7573,5.7782,5.8201,5.874,5.9398,6.0475,6.1343,6.1762,6.26,6.3468,6.4366,6.4575,6.4964,6.5652,6.5682,6.6011,6.667,6.667,6.6789,6.6999,6.655,6.655,6.6969,6.652,6.6819,6.7718,6.8375,6.9064,6.9722,7.035,7.0739,7.0889,7.0889,7.0889,7.0889,7.0889,7.0889,7.0889,7.0889,7.0889,7.0799,7.0203,7.041,7.0709,6.9632,7.0051,7.0799,7.038,7.0091,6.9861,6.987,7.0153,7.0433,7.0526,7.0495,7.0646,7.1475,7.1075,7.0798,7.1506,7.1413,7.1534,7.2422,7.4315,7.6015,7.7037,7.877,8.0399,8.1544,8.1697,8.1799,8.2035,8.1832,8.1494,8.0987,8.0479,8.0209,8.0209,8.0209,8.0209,8.0209,8.0209,8.0209,8.0209,8.0209,8.0209,8.0209,7.9972,8.0107,8.0581,7.9837,8.004,5.1648,5.2187,5.2456,5.3533,5.4311,5.494,5.5329,5.6132,5.6825,5.7034,5.7633,5.8593,6.0176,6.0625,6.1044,6.1942,6.1343,6.0446,5.9578,5.8683,5.8085,5.8085,5.8919,5.9727,6.0416,6.1463,6.2301,6.278,6.3797,6.4695,6.5323,6.5622,6.5951,6.637,6.637,6.658,6.6999,6.6999,6.6879,6.661,6.646,6.646,6.664,6.67,6.7208,6.8047,6.8704,6.9363,0.0,7.041,7.0679,7.0889,7.0889,7.0889,7.0889,7.0889,7.0889,7.0859,7.0649,7.056,7.041,6.9544,6.9514,6.9782,6.9722,6.9931,7.0111,6.9722,6.9524,6.9355,6.9238,6.9792,7.0373,7.025,7.0555,7.1013,7.1475,7.1229,7.1044,7.1505,7.1413,7.1747,7.3139,7.5042,7.6828,7.8168,7.9905,8.1359,8.2306,8.2408,8.2408,8.2408,8.2408,8.2205,8.1731,8.0784,8.0209,8.0209,8.0209,8.0209,8.0209,8.0209,8.0209,8.0209,8.0209,8.0209,8.0209,8.0209,8.0581,8.1283,8.0818,8.1257,0.0,5.2127,5.2306,5.3019,5.3683,5.4221,5.4341,5.5359,0.0,5.7064,5.7752,5.8833,6.0747,6.0595,6.0565,6.1822,6.0924,6.0114,6.0114,5.9039,5.8234,5.8234,5.9338,6.0386,6.1104,6.1822,6.278,6.4036,6.4755,6.5413,6.6041,6.667,6.6999,6.6999,6.6999,6.6999,6.6999,6.6999,6.67,6.6071,6.664,6.664,6.6131,6.7298,6.7928,6.8107,6.8734,6.9393,7.0051,7.0051,7.038,7.0889,7.0889,7.0889,7.0889,7.0889,7.0889,7.0829,7.026,7.0053,6.9814,6.8496,6.8017,6.8287,7.0141,6.9871,6.8944,6.9004,6.9196,6.9297,6.9001,6.9671,7.0373,7.0061,7.049,7.0982,7.0982,7.1013,7.1074,7.1165,7.1781,7.3031,7.535,7.6928,7.8653,8.0845,8.1882,8.2408,8.2408,8.2408,8.2441,8.2475,8.2441,8.2408,8.234,8.1088,8.0276,8.0276,8.0242,8.0209,8.0276,8.0242,8.0209,8.0276,8.0276,8.0242,8.0209,8.031,8.0716,8.1384,8.1384,8.1765,5.105,0.0,5.1738,5.2899,5.3683,5.4461,0.0,5.6735,5.7666,5.7842,5.88,5.9937,6.0924,6.0984,6.0984,6.1283,6.0625,6.0114,6.0114,5.9817,5.9608,5.9608,5.9907,6.0565,6.1762,6.2899,6.4096,6.5443,6.6161,6.661,6.6759,6.6909,6.6999,6.6999,6.6999,6.6999,6.6999,6.6999,6.6909,6.6759,6.64,6.643,6.6759,6.655,6.7298,6.8764,6.8944,6.9632,7.0679,7.0679,7.0769,7.0889,7.0889,7.0889,7.0889,7.0889,7.0889,7.0889,7.0739,7.038,6.9842,6.9034,6.8076,6.7449,6.8407,6.8466,6.8347,6.8854,6.9052,6.9062,6.9002,6.9854,7.0769,7.0675,7.1198,7.1752,7.1752,7.2152,7.2768,7.3705,7.4478,7.5459,7.6972,7.8705,7.9909,7.9921,8.132,8.2408,8.2408,8.2408,8.2644,8.3186,8.2746,8.2171,8.1596,8.1224,8.1021,8.1021,8.0513,8.0445,8.1021,8.0479,8.0445,8.1046,8.1021,8.075,8.0209,8.1325,8.1968,8.2137,8.2137,8.2543,5.0936,5.1415,5.1828,5.2546,5.3473,5.4491,5.5504,5.6735,5.7842,5.8414,5.9129,5.9937,6.0924,6.0595,6.0176,6.0176,6.0146,6.0206,6.0505,6.0266,6.0206,6.0505,6.1104,6.1761,6.248,6.3977,6.5233,6.5951,6.661,6.6999,6.6999,6.6999,6.6999,6.6999,6.7329,6.7298,6.6999,6.7329,6.7148,6.655,6.6789,6.6789,6.655,6.6789,6.7508,6.8555,6.8854,6.9572,7.047,7.047,7.0649,7.0889,7.059,7.0649,7.0859,7.059,7.0649,7.0829,7.0231,6.9393,6.8645,6.8914,6.8076,6.7238,6.8526,6.8496,6.8077,6.8435,6.8964,6.9458,6.9458,7.0435,7.1383,7.1383,7.1937,7.246,7.246,7.3447,7.4524,7.5187,7.6348,7.7525,7.8369,7.9683,8.065,8.0796,8.1982,8.2915,8.2915,8.2915,8.2949,8.2983,8.2644,8.2374,8.2306,8.1689,8.1181,8.0818,8.0412,8.0513,8.1283,8.0919,8.1054,8.1799,8.146,8.1257,8.1224,8.2035,8.2577,8.2915,8.2915,8.3321,5.1026,5.1858,5.2486,5.2366,5.3294,5.4401,5.5179,5.6346,5.7573,5.871,5.9189,5.9727,6.0775,6.0027,5.9249,5.9249,5.9817,6.0446,6.1044,6.0685,6.0625,6.1194,6.2331,6.3197,6.3377,6.4964,6.6041,6.6161,6.667,6.6999,6.6999,6.6999,6.7029,6.7148,6.7718,6.7748,6.7148,6.7718,6.7449,6.6311,6.7359,6.7238,6.6191,6.7329,6.7898,6.8047,6.8585,6.9273,7.0023,7.0023,7.035,7.0859,7.032,7.044,7.0829,7.032,7.044,7.0709,6.9453,6.8256,6.7478,6.8495,6.8076,6.7478,6.9273,6.9125,6.8317,6.8379,6.9237,7.0157,7.0218,7.1169,7.2152,7.2152,7.2676,7.3137,7.3137,7.453,7.5883,7.6242,7.773,7.9207,7.9983,8.0732,8.1523,8.242,8.3084,8.3456,8.3355,8.3321,8.3152,8.2644,8.2577,8.278,8.3287,8.2272,8.1257,8.0412,8.0378,8.0682,8.1426,8.146,8.1765,8.2408,8.19,8.1866,8.2408,8.2644,8.3016,8.349,8.3625,8.3998,5.1026,5.2522,5.3773,5.3198,5.3623,5.4521,5.5773,5.7034,5.7995,5.8205,5.961,6.0685,6.0326,6.0086,5.9937,5.9937,6.0505,6.0984,6.1076,6.1493,6.1822,6.1942,6.2629,6.3498,6.4605,6.5503,6.6251,6.6789,6.6939,6.6999,6.6999,6.6999,6.7238,6.7838,6.7958,6.7958,6.7868,6.7958,6.7898,6.7688,6.7329,6.7029,6.6849,6.7059,6.7479,6.8017,6.8107,6.8856,7.0023,7.0023,7.035,7.0889,7.0799,7.0829,7.0889,7.0799,7.0829,7.0709,6.9453,6.8884,6.8615,6.8287,6.8017,6.8017,6.8884,6.9393,6.9726,7.0011,7.045,7.0887,7.1197,7.2059,7.286,7.286,7.3353,7.3845,7.3845,7.4558,7.5777,7.7864,7.9027,8.035,8.2509,8.3496,8.3853,8.3396,8.3422,8.3287,8.2644,8.2577,8.278,8.3287,8.3321,8.3118,8.2611,8.2915,8.2577,8.1215,8.1148,8.146,8.2205,8.2238,8.2306,8.2408,8.2915,8.2915,8.2408,8.3633,8.3971,8.3524,8.414,8.4478,4.9548,5.1807,5.3918,5.2659,5.3822,5.5508,5.6492,5.7423,5.8294,5.9039,5.9638,6.0057,6.0086,6.0114,6.0353,6.1044,6.0535,6.0535,6.1972,6.2121,6.2361,6.3049,6.4036,6.4904,6.5473,6.6161,6.667,6.6969,6.6999,6.6999,6.6999,6.7359,6.7688,6.7987,6.8706,6.8916,6.8525,6.8525,6.8166,6.7479,6.7508,6.7359,6.6999,6.6999,6.7389,6.8017,6.8407,6.9093,7.0053,7.035,7.0649,7.0859,7.053,7.062,7.0859,7.053,7.0171,6.9842,6.9602,6.9303,6.9004,6.9065,6.9095,6.9155,6.9423,6.9784,7.0179,7.105,7.1427,7.1616,7.1931,7.2796,7.3537,7.3537,7.403,7.4522,7.4522,7.5339,7.6677,7.889,8.0116,8.1401,8.3192,8.3795,8.3896,8.3558,8.349,8.3389,8.305,8.2983,8.3118,8.3456,8.3152,8.3084,8.3531,8.3186,8.2441,8.1384,8.2061,8.2441,8.2408,8.278,8.3186,8.3565,8.3524,8.3524,8.3565,8.4275,8.4411,8.4099,8.4444,8.4614,4.8361,5.0969,5.3473,5.1972,5.4028,5.6521,5.6974,5.7872,5.883,5.9668,5.9578,5.9428,5.9787,5.9967,6.0475,6.1672,6.0715,6.0505,6.2599,6.266,6.2959,6.4096,6.5293,6.6071,6.6221,6.67,6.6999,6.6999,6.6999,6.7059,6.7239,6.7718,6.8137,6.8466,6.9484,6.9662,6.9004,6.9004,6.8405,6.7238,6.7598,6.7508,6.6999,6.6999,6.7389,6.8017,6.8375,6.9093,7.0023,7.032,7.062,7.0859,7.038,7.05,7.0829,7.038,6.9871,6.9512,6.9842,6.9752,6.9512,6.9871,7.0113,7.0201,7.0201,7.0201,7.0419,7.1539,7.2035,7.2315,7.2728,7.341,7.403,7.4184,7.4738,7.523,7.523,7.6118,7.7519,7.9626,8.0673,8.1708,8.3219,8.3355,8.3287,8.3456,8.3355,8.3253,8.3253,8.3389,8.3422,8.3253,8.305,8.3362,8.4512,8.3396,8.2408,8.1832,8.2881,8.3321,8.2923,8.3287,8.3862,8.458,8.4065,8.4065,8.4614,8.4614,8.4614,8.4614,8.4614,8.4614,4.8555,5.0726,5.2549,5.1799,5.4335,5.7034,5.7094,5.856,5.9787,5.9279,5.9608,5.9847,5.9279,5.9668,6.0326,6.1074,6.1583,6.1942,6.2151,6.3139,6.4126,6.4845,6.5562,6.6251,6.6849,6.6969,6.6999,6.6999,6.6999,6.7268,6.7898,6.7987,6.8586,6.9844,6.9963,6.9662,6.9004,6.9004,6.8645,6.7928,6.7359,6.7029,6.6999,6.6999,6.7389,6.7958,6.7388,6.8226,6.9963,6.9363,6.9842,7.0889,7.0859,7.0859,7.0889,7.0859,7.0799,7.0679,7.0171,7.032,7.0679,7.0141,7.038,7.0829,7.0829,7.0829,7.0924,7.1309,7.2145,7.3079,7.3717,7.3968,7.4153,7.4769,7.5446,7.5938,7.5938,7.6496,7.774,8.0256,8.0275,8.0603,8.3086,8.2949,8.2712,8.3389,8.2915,8.2475,8.2475,8.3084,8.3253,8.2543,8.3667,8.4478,8.458,8.3896,8.3389,8.3355,8.3422,8.3795,8.4411,8.3862,8.3862,8.458,8.4546,8.4546,8.4614,8.4614,8.4614,8.4614,8.4614,8.4614,4.8152,5.0469,5.2474,5.1831,5.4436,5.7063,5.6682,5.7474,5.8431,5.8966,5.9638,6.0294,6.0864,6.0835,6.1074,6.2151,6.2211,6.2361,6.3169,6.4066,6.4845,6.5532,6.6221,6.6729,6.6969,6.6999,6.6999,6.6999,6.7389,6.7748,6.7987,6.8796,6.9484,6.9961,7.0023,6.9662,6.9004,6.8585,6.8047,6.7389,6.7568,6.7628,6.7658,6.8046,6.8585,6.9245,6.9005,6.9482,7.053,7.029,7.047,7.0889,7.0889,7.0889,7.0859,7.047,7.056,7.0859,7.0649,7.1248,7.2116,7.1876,7.1966,7.2086,7.1637,7.1218,7.1044,7.1821,7.2316,7.2787,7.3493,7.4455,7.5323,7.5569,7.6154,7.6614,7.6614,7.6492,7.7238,8.0225,8.0248,8.0705,8.3665,8.3592,8.3321,8.4072,8.3558,8.3253,8.37,8.4005,8.4072,8.3802,8.4275,8.4614,8.4614,8.4343,8.4174,8.4174,8.4174,8.4099,8.393,8.4099,8.4309,8.458,8.4614,8.4614,8.4614,8.4614,8.4614,8.4614,8.4614,8.4614,4.792,5.0364,5.2579,5.2315,5.4315,5.6362,5.6552,5.7071,5.7873,5.9153,5.9937,6.0685,6.1613,6.1583,6.1732,6.2659,6.272,6.3079,6.4156,6.4874,6.5473,6.5951,6.64,6.667,6.667,6.667,6.6849,6.7268,6.7748,6.8197,6.8616,6.9514,7.0081,7.026,7.0081,6.9662,6.9004,6.8347,6.7658,6.6999,6.7688,6.7898,6.7718,6.8136,6.8854,6.9662,6.9484,6.9931,7.0889,7.0679,7.0739,7.0889,7.0889,7.0889,7.0889,7.0649,7.0859,7.1248,7.1457,7.2265,7.3193,7.2984,7.2924,7.2834,7.2355,7.1757,7.1403,7.2322,7.2784,7.3131,7.3653,7.4808,7.5899,7.6114,7.6579,7.6921,7.6739,7.6338,7.6865,7.9901,7.9921,8.0444,8.3699,8.3659,8.3389,8.414,8.3828,8.3693,8.4174,8.4444,8.4614,8.4614,8.4614,8.4614,8.4614,8.4614,8.4614,8.4614,8.4614,8.4377,8.3862,8.4309,8.4614,8.4614,8.4614,8.4614,8.4614,8.4614,8.4478,8.4242,8.4242,8.4106,4.8083,5.0408,5.2825,5.336,5.395,5.4912,5.6761,5.771,5.8545,5.9838,6.0625,6.1076,6.1106,6.1642,6.2091,6.2121,6.3169,6.4246,6.4904,6.5562,6.6011,6.6011,6.6011,6.6011,6.6011,6.6011,6.658,6.7898,6.8017,6.8616,6.9933,7.0023,7.026,7.0889,7.029,6.9662,6.9004,6.8347,6.7658,6.6999,6.7688,6.7658,6.6999,6.7029,6.7747,6.8974,6.8317,6.9093,7.0859,7.026,7.035,7.0889,7.0919,7.0919,7.0979,7.1637,7.1906,7.1996,7.2684,7.3343,7.3791,7.3133,7.2924,7.2924,7.2924,7.2445,7.2026,7.2744,7.364,7.4389,7.4389,7.4952,7.5695,7.6337,7.6752,7.6798,7.6154,7.6031,7.6772,7.9319,7.9241,7.9757,8.2985,8.2915,8.2678,8.3389,8.3524,8.3524,8.3524,8.4167,8.4614,8.4614,8.4614,8.4614,8.4614,8.4614,8.4614,8.4614,8.4614,8.4614,8.4614,8.4614,8.4614,8.4614,8.4614,8.4614,8.4614,8.4614,8.4208,8.349,8.349,8.3084,4.8352,5.074,5.2881,5.3388,5.4969,5.6505,5.7074,5.6709,5.6851,5.9013,6.0335,6.1225,6.1732,6.1972,6.2241,6.2748,6.3887,6.4934,6.5622,6.6281,6.652,6.6071,6.643,6.652,6.6071,6.6849,6.7568,6.7987,6.8886,6.9604,6.9993,7.038,7.0709,7.0889,6.9842,6.9183,6.9004,6.7867,6.7418,6.7718,6.7898,6.8167,6.8405,6.8884,6.9542,7.032,7.0141,7.038,7.0889,7.0709,7.0739,7.0949,7.1427,7.1577,7.1667,7.2355,7.2894,7.3343,7.3522,7.4031,7.454,7.436,7.3971,7.3612,7.3612,7.3133,7.2744,7.3402,7.3799,7.417,7.462,7.5079,7.561,7.6327,7.6587,7.6658,7.6704,7.7422,7.8533,8.0178,8.1077,8.2126,8.3968,8.4072,8.4005,8.4242,8.4275,8.4275,8.4275,8.4444,8.4614,8.4614,8.4614,8.4614,8.4614,8.4614,8.4614,8.4614,8.4614,8.4614,8.4614,8.4614,8.4614,8.4614,8.4614,8.4614,8.4614,8.4614,8.4208,8.349,8.349,8.3084,5.0377,5.268,5.4678,5.5182,5.6267,5.7274,5.7536,5.7655,5.8176,6.0001,6.0982,6.1702,6.2361,6.248,6.278,6.3707,6.4725,6.5622,6.6311,6.652,6.646,6.6071,6.6131,6.6251,6.637,6.7119,6.7928,6.8736,6.9544,7.0081,7.032,7.0709,7.0889,7.0889,6.9662,6.9004,6.9004,6.7657,6.7178,6.7628,6.7868,6.8377,6.9004,6.9423,6.9931,7.056,7.0799,7.0889,7.0889,7.0889,7.1068,7.1338,7.1727,7.2056,7.2385,7.3043,7.3552,7.3941,7.418,7.454,7.4903,7.4903,7.442,7.3941,7.421,7.3821,7.3432,7.4091,7.43,7.436,7.4813,7.504,7.538,7.6121,7.6207,7.6261,7.6796,7.7309,7.8262,8.0334,8.1317,8.2444,8.4291,8.4614,8.4614,8.4614,8.4614,8.4614,8.4614,8.4614,8.4614,8.4614,8.4614,8.4614,8.4614,8.4614,8.4614,8.4614,8.4614,8.4614,8.4614,8.4614,8.4614,8.4614,8.4614,8.4444,8.4167,8.4167,8.3625,8.2611,8.2611,8.2374,5.2908,5.5132,5.7263,5.7803,5.7614,5.7506,5.8346,5.9786,6.1085,6.1712,6.2034,6.2361,6.2928,6.3168,6.3647,6.4815,6.5592,6.6311,6.6909,6.643,6.5981,6.5922,6.5413,6.5562,6.6789,6.7059,6.7956,6.9873,7.0021,7.032,7.0859,7.0889,7.0889,7.0829,6.9632,6.8974,6.8914,6.7627,6.7059,6.7178,6.7808,6.8496,6.9183,6.9123,6.9453,7.0081,7.0649,7.0949,7.0979,7.0979,7.1398,7.1996,7.2056,7.2445,7.3073,7.3732,7.3971,7.4061,7.4693,7.4903,7.4903,7.4903,7.448,7.4091,7.4723,7.445,7.4121,7.4753,7.4903,7.4903,7.4903,7.4903,7.5108,7.585,7.5803,7.5849,7.6709,7.6533,7.7107,8.0046,8.0674,8.1548,8.3981,8.4411,8.4411,8.4478,8.4546,8.4614,8.4614,8.4614,8.4614,8.4614,8.4614,8.4614,8.4614,8.4614,8.4614,8.4614,8.4546,8.4512,8.4614,8.4614,8.4614,8.4614,8.4512,8.4174,8.349,8.3422,8.2678,8.1317,8.1384,8.1384,4.9995,5.3295,5.66,5.6731,5.7354,5.849,6.075,6.0348,5.9596,5.977,6.1462,6.2778,6.2391,6.3558,6.4665,6.4964,6.6011,6.6819,6.6969,6.643,6.5802,6.5263,6.5532,6.5922,6.6191,6.7627,6.8974,6.9933,7.044,7.0769,7.0889,7.0889,7.0679,7.0201,6.9423,6.8734,6.8227,6.7419,6.7537,6.8585,6.8704,6.9393,7.047,6.9991,7.0111,7.0709,7.0829,7.1188,7.1667,7.1667,7.2086,7.2744,7.3253,7.3552,7.3762,7.442,7.4659,7.4723,7.4873,7.4903,7.4903,7.4903,7.4813,7.4723,7.4873,7.4813,7.4723,7.4873,7.4903,7.4903,7.4903,7.5074,7.5414,7.5883,7.6204,7.6648,7.74,7.8605,7.9696,8.0361,8.133,8.2188,8.2761,8.2855,8.3084,8.3659,8.4234,8.4614,8.4614,8.4614,8.4614,8.4614,8.4614,8.4614,8.4614,8.4614,8.4614,8.4614,8.4065,8.3998,8.458,8.4614,8.4614,8.4614,8.4031,8.3659,8.349,8.2915,8.2171,8.1317,8.19,8.1832,5.0987,5.3357,5.5564,5.693,5.7456,5.8289,6.0617,6.0293,5.9421,5.9107,6.0941,6.2494,6.2045,6.3621,6.4994,6.4951,6.5537,6.6229,6.6907,6.5583,6.4866,6.5831,6.5344,6.5606,6.7266,6.7747,6.8192,6.8906,6.9608,6.9821,6.9441,7.0084,7.032,7.0023,6.9333,6.8675,6.8017,6.7359,6.7657,6.9004,6.9333,7.032,7.1846,7.1188,7.1248,7.1876,7.1876,7.2056,7.2385,7.2385,7.2774,7.3402,7.3762,7.4091,7.442,7.4783,7.4903,7.4903,7.4903,7.4903,7.4903,7.4903,7.4903,7.4903,7.4903,7.4903,7.4903,7.4903,7.4903,7.4903,7.4903,7.559,7.6398,7.6792,7.6703,7.6806,7.7939,7.8865,7.9772,8.0702,8.1443,8.2002,8.234,8.2408,8.2543,8.2915,8.3321,8.3667,8.4031,8.4065,8.4208,8.4546,8.4614,8.4614,8.4614,8.4614,8.4614,8.4614,8.393,8.3659,8.4065,8.3734,8.37,8.4065,8.3693,8.3321,8.2983,8.2611,8.2205,8.1832,8.2238,8.2374,5.2201,5.3528,5.4623,5.7254,5.7355,5.7378,5.9353,5.9565,5.9297,5.8927,6.0566,6.1965,6.1695,6.3265,6.4589,6.4547,6.456,6.5039,6.6445,6.4361,6.3667,6.6327,6.4825,6.4793,6.791,6.7058,6.6632,6.7367,6.7956,6.8095,6.7829,6.8965,6.9677,6.9812,6.9273,6.8675,6.8017,6.7537,6.8016,6.9333,7.0111,7.1398,7.3073,7.2505,7.2475,7.2924,7.2924,7.2984,7.3073,7.3073,7.3462,7.4061,7.4061,7.439,7.4903,7.4903,7.4903,7.4903,7.4903,7.4903,7.4903,7.4903,7.4903,7.4903,7.4903,7.4903,7.4903,7.4903,7.4903,7.4903,7.4903,7.5933,7.7094,7.7673,7.7183,7.7037,7.8607,7.8799,7.9194,8.08,8.1088,8.1291,8.1934,8.2137,8.2205,8.2205,8.234,8.2644,8.3219,8.3321,8.3558,8.414,8.4208,8.4208,8.4208,8.4208,8.4208,8.4208,8.3524,8.3186,8.3287,8.2611,8.2577,8.3287,8.3321,8.3084,8.2611,8.2475,8.2408,8.2408,8.2543,8.2915,4.8862,5.148,5.4421,5.6208,5.6038,5.6001,5.7997,5.7862,5.7607,5.8592,6.0417,6.1638,6.1027,6.2106,6.3069,6.3075,6.307,6.3562,6.4975,6.3318,6.2733,6.4825,6.3736,6.3371,6.4961,6.4973,6.5159,6.5849,6.551,6.5998,6.7729,6.799,6.8409,6.9122,6.9064,6.8675,6.8017,6.8495,6.9393,7.0649,7.1906,7.2954,7.3762,7.3672,7.3373,7.2924,7.2924,7.3223,7.3762,7.3762,7.4151,7.4783,7.4783,7.4843,7.4903,7.4903,7.4903,7.4903,7.4903,7.4903,7.4903,7.4903,7.4903,7.4903,7.4903,7.4903,7.4903,7.4903,7.4903,7.4903,7.4903,7.5248,7.596,7.7186,7.7681,7.8283,7.9889,8.0114,8.0031,8.0285,8.0344,8.0378,8.0479,8.1021,8.1452,8.1452,8.2002,8.2441,8.2543,8.2543,8.2577,8.2652,8.2712,8.2712,8.2712,8.2712,8.2712,8.2712,8.2002,8.1866,8.2543,8.1832,8.1799,8.2543,8.2543,8.2813,8.3355,8.2712,8.2408,8.2441,8.305,8.3422,4.7713,5.0768,5.3745,5.5042,5.4774,5.4702,5.6636,5.6682,5.6598,5.7481,5.8663,5.9474,5.9521,6.1313,6.2542,6.1706,6.1571,6.2075,6.3529,6.1911,6.1486,6.3829,6.2844,6.263,6.438,6.384,6.3363,6.3356,6.352,6.4177,6.5469,6.6607,6.7627,6.8404,6.9153,6.9243,6.8555,6.9213,7.038,7.2056,7.3373,7.418,7.445,7.445,7.43,7.4001,7.4001,7.418,7.445,7.445,7.4599,7.4903,7.4903,7.4903,7.4903,7.4903,7.4903,7.4903,7.4903,7.4903,7.4903,7.4903,7.4903,7.4903,7.4903,7.4903,7.4903,7.4903,7.4903,7.4903,7.4903,7.5925,7.7147,7.7904,7.8878,7.988,8.0782,8.0526,8.0209,8.0209,8.0209,8.0209,8.0209,8.0479,8.0682,8.0682,8.0953,8.1325,8.1731,8.1765,8.1934,8.2374,8.2408,8.2408,8.2408,8.2408,8.2408,8.2408,8.1697,8.1452,8.1765,8.146,8.1629,8.2408,8.2408,8.278,8.349,8.3186,8.3253,8.3633,8.3998,8.4133,4.7274,4.9976,5.2275,5.3194,5.3334,5.364,5.5141,5.5597,5.5909,5.6667,5.7303,5.7878,5.8418,6.0234,6.1335,6.0234,6.0062,6.0578,6.2042,6.0743,6.0551,6.3001,6.2139,6.1947,6.3583,6.259,6.1629,6.1081,6.1453,6.2206,6.3335,6.5222,6.6589,6.7329,6.9221,6.9801,6.8941,7.0308,7.1787,7.3432,7.442,7.4903,7.4903,7.4903,7.4903,7.4903,7.4903,7.4903,7.4903,7.4903,7.4903,7.4903,7.4903,7.4903,7.4903,7.4903,7.4903,7.4903,7.4903,7.4903,7.4903,7.4903,7.4903,7.4903,7.4903,7.4903,7.4903,7.4903,7.4903,7.4873,7.4693,7.615,7.7771,7.816,7.9355,8.0517,8.0918,8.0581,8.0209,8.0209,8.0209,8.0209,8.0209,8.0209,8.0209,8.0209,8.0209,8.0412,8.0953,8.1021,8.1224,8.1799,8.1832,8.1832,8.1832,8.1832,8.1832,8.1832,8.1494,8.1215,8.1046,8.1359,8.1832,8.2408,8.2577,8.305,8.3795,8.3795,8.4065,8.4614,8.4614,8.4614,4.7075,4.8522,4.9663,5.0343,5.1681,5.2958,5.3458,5.438,5.5465,5.6588,5.7303,5.7878,5.8418,5.8603,5.8709,5.8603,5.8603,5.9105,6.0517,5.9951,6.018,6.2223,6.1661,6.1143,6.128,6.0708,6.0095,5.9529,5.9024,5.9854,6.2435,6.3984,6.5057,6.5621,6.9038,7.018,6.8735,7.2048,7.4061,7.4813,7.4873,7.4903,7.4903,7.4903,7.4903,7.4903,7.4903,7.4903,7.4903,7.4903,7.4903,7.4903,7.4903,7.4903,7.4903,7.4903,7.4903,7.4903,7.4903,7.4903,7.4903,7.4903,7.4903,7.4903,7.4903,7.4903,7.4903,7.4903,7.4903,7.4753,7.4121,7.5125,7.6492,7.7134,7.8168,7.9239,8.0098,8.0209,8.0209,8.0209,8.0209,8.0209,8.0209,8.0209,8.0209,8.0209,8.0209,8.0209,8.0242,8.0242,8.0276,8.031,8.031,8.031,8.031,8.031,8.031,8.031,8.0919,8.1012,8.0276,8.1596,8.2374,8.2408,8.3084,8.3828,8.4546,8.4546,8.4546,8.4614,8.4614,8.4614,4.632,4.7902,4.9418,4.9862,5.1149,5.2395,5.2913,5.3647,5.4701,5.6415,5.6808,5.7146,5.8304,5.8523,5.8523,5.8523,5.8523,5.8673,5.9175,5.935,5.9784,6.0842,6.0733,6.0499,6.0499,6.0013,5.9437,5.8862,5.8627,5.9484,6.1736,6.2781,6.375,6.4834,6.7256,6.9189,7.0477,7.3196,7.4663,7.4903,7.4903,7.4903,7.4903,7.4903,7.4903,7.4903,7.4903,7.4903,7.4903,7.4903,7.4903,7.4903,7.4903,7.4903,7.4903,7.4903,7.4903,7.4903,7.4903,7.4903,7.4903,7.4903,7.4903,7.4903,7.4903,7.4903,7.4903,7.4903,7.4903,7.4843,7.4604,7.5652,7.7223,7.914,7.9655,7.9965,8.0749,8.0513,8.0209,8.0209,8.0209,8.0209,8.0209,8.0209,8.0209,8.0209,8.0209,8.0209,8.0209,8.0209,8.0209,8.0209,8.0209,8.0378,8.0877,8.0479,8.0615,8.1562,8.1426,8.1393,8.1596,8.2577,8.3118,8.3118,8.3828,8.4343,8.4614,8.4614,8.4614,8.4614,8.4614,8.4614,4.5716,4.7319,4.8976,4.9498,5.0517,5.1614,5.2582,5.3015,5.3805,5.5807,5.6184,5.6521,5.7982,5.8286,5.8319,5.8487,5.8416,5.8345,5.8487,5.8886,5.9382,5.9882,6.0091,6.0143,5.996,5.963,5.916,5.8549,5.8523,5.9263,6.0962,6.1974,6.3421,6.5396,6.6869,6.8918,7.1492,7.3759,7.4903,7.4903,7.4903,7.4903,7.4903,7.4903,7.4903,7.4903,7.4903,7.4903,7.4903,7.4903,7.4903,7.4903,7.4903,7.4903,7.4903,7.4903,7.4903,7.4903,7.4903,7.4903,7.4903,7.4903,7.4903,7.4903,7.4903,7.4903,7.4903,7.4903,7.4903,7.4873,7.4599,7.5918,7.7979,8.0622,8.1086,8.0987,8.1249,8.0716,8.0209,8.0209,8.0209,8.0209,8.0209,8.0209,8.0209,8.0209,8.0209,8.0209,8.0209,8.0209,8.0209,8.0209,8.0209,8.0479,8.1249,8.0851,8.1088,8.234,8.2171,8.2137,8.2408,8.3355,8.3761,8.349,8.4208,8.4614,8.4614,8.4614,8.4614,8.4614,8.4614,8.4614,0.0,0.0,0.0,4.897,4.9647,5.0544,5.2323,5.2483,5.2778,5.4697,5.5374,5.6052,5.739,5.7761,5.7973,5.839,5.8141,5.8034,5.8452,5.8671,5.8962,5.9359,5.9856,5.996,5.9447,5.9369,5.9133,5.8549,5.8523,5.9019,6.0133,6.164,6.3955,6.7156,6.798,6.9359,7.1469,7.37,7.4873,7.4873,7.4873,7.4903,7.4903,7.4903,7.4903,7.4903,7.4903,7.4903,7.4903,7.4903,7.4903,7.4903,7.4903,7.4903,7.4903,7.4903,7.4903,7.4903,7.4903,7.4903,7.4903,7.4903,7.4903,7.4903,7.4903,7.4903,7.4903,7.4903,7.4903,7.4753,7.4196,7.5865,7.8429,8.1344,8.2233,8.2205,8.152,8.0784,8.0242,8.0209,8.0209,8.0209,8.0209,8.0209,8.0209,8.0209,8.0209,8.0209,8.0209,8.0209,8.0209,8.0209,8.0209,8.0513,8.1283,8.1317,8.1629,8.2441,8.3118,8.3186,8.2509,8.3836,8.4242,8.3558,8.4242,8.4614,8.4614,8.4614,8.4614,8.4614,8.4614,8.4614,4.4342,0.0,0.0,0.0,0.0,0.0,5.064,5.1059,5.1856,5.3891,5.4185,5.455,5.5984,5.6601,5.6917,5.7023,5.7775,5.8248,5.807,5.8743,5.9287,5.9395,5.9526,5.9578,5.9421,5.8993,5.8679,5.8523,5.8889,5.9464,6.0159,6.1448,6.2736,6.4023,6.6438,6.8166,6.9216,7.2032,7.3702,7.418,7.418,7.442,7.4903,7.4903,7.4903,7.4903,7.4903,7.4903,7.4903,7.4903,7.4903,7.4903,7.4903,7.4903,7.4903,7.4903,7.4903,7.4903,7.4903,7.4903,7.4903,7.4903,7.4903,7.4903,7.4903,7.4903,7.4903,7.4903,7.4903,7.5233,7.6644,7.7676,7.911,8.2085,8.2604,8.2509,8.2813,8.2306,8.1494,8.0412,8.0209,8.0209,8.0209,8.0209,8.0209,8.0209,8.0209,8.0209,8.0209,8.0209,8.0209,8.0209,8.0209,8.0716,8.2002,8.1596,8.2069,8.387,8.3693,8.3659,8.3971,8.4377,8.4512,8.4275,8.4478,8.4614,8.4614,8.4614,8.4614,8.4614,8.4614,8.4614,0.0,0.0,4.6527,4.6878,0.0,0.0,5.0173,5.076,5.1476,5.3,5.3284,5.3612,5.4773,5.5327,5.5657,5.5877,5.692,5.7669,5.7687,5.8383,5.8962,5.9143,5.9496,5.9725,5.9725,5.9267,5.9049,5.9192,5.9398,5.9778,6.0525,6.1476,6.213,6.2469,6.5664,6.7558,6.7923,7.1205,7.3103,7.3492,7.3492,7.3702,7.4061,7.4364,7.448,7.448,7.4783,7.4903,7.4903,7.4903,7.4903,7.4903,7.4903,7.4903,7.4903,7.4903,7.4903,7.4903,7.4903,7.4903,7.4903,7.4903,7.4903,7.4903,7.4903,7.4903,7.4903,7.4903,7.4903,7.5466,7.7999,7.889,7.982,8.2847,8.3448,8.3355,8.3456,8.3152,8.2408,8.0953,8.0648,8.0547,8.0242,8.0209,8.0209,8.0209,8.0209,8.0209,8.0209,8.0209,8.0209,8.0209,8.0209,8.0784,8.2246,8.2002,8.2577,8.4478,8.42,8.4167,8.458,8.4614,8.4614,8.4614,8.4614,8.4614,8.4614,8.4614,8.4614,8.4614,8.4614,8.4845,0.0,0.0,0.0,0.0,0.0,0.0,5.0298,5.0917,5.1346,5.2119,5.2506,5.2925,5.3657,5.3979,5.4306,5.4752,5.5643,5.6504,5.7128,5.7738,5.8268,5.8683,5.9513,6.0034,6.0076,5.9757,5.972,6.0039,5.9834,6.012,6.1077,6.1685,6.1984,6.1906,6.519,6.6959,6.708,7.057,7.2428,7.2684,7.2774,7.2834,7.2924,7.3522,7.3791,7.3821,7.448,7.4813,7.4813,7.4873,7.4903,7.4903,7.4903,7.4903,7.4903,7.4903,7.4903,7.4903,7.4903,7.4903,7.4903,7.4903,7.4903,7.4903,7.4903,7.4903,7.4903,7.4903,7.4903,7.559,7.8502,7.9559,8.0525,8.3482,8.4392,8.4411,8.3761,8.3625,8.3219,8.1824,8.1486,8.119,8.0445,8.031,8.0276,8.0209,8.0209,8.0209,8.0209,8.0209,8.0209,8.0209,8.0209,8.0784,8.2246,8.2408,8.3024,8.4512,8.4614,8.4614,8.4614,8.4614,8.4614,8.4614,8.4614,8.4614,8.4614,8.4614,8.4614,8.458,8.4713,8.5248,0.0,0.0,0.0,0.0,0.0,0.0,4.9485,4.9873,5.0351,5.1817,5.185,5.1783,5.2379,5.284,5.3209,5.3334,5.4235,5.5269,5.6147,5.6995,5.7749,5.8283,5.8776,5.9118,5.9241,5.9452,5.9525,5.923,5.9927,6.0631,6.1313,6.1744,6.1764,6.1293,6.31,6.4453,6.5134,6.7589,6.963,7.1308,7.1846,7.2385,7.2924,7.3043,7.3103,7.3133,7.3791,7.4091,7.4121,7.4693,7.4903,7.4903,7.4903,7.4903,7.4903,7.4903,7.4903,7.4903,7.4903,7.4903,7.4903,7.4903,7.4903,7.4903,7.4903,7.4903,7.4903,7.4903,7.4903,7.559,7.8502,7.9559,8.0528,8.3482,8.4392,8.4546,8.4411,8.4377,8.4106,8.3219,8.2577,8.1968,8.119,8.1114,8.0885,8.0276,8.0209,8.0209,8.0209,8.0209,8.0209,8.0209,8.0209,8.0784,8.2246,8.2408,8.3024,8.4512,8.4614,8.4614,8.4614,8.4614,8.4614,8.4614,8.4614,8.4614,8.4614,8.4614,8.4614,8.4606,8.5421,8.5921,0.0,0.0,0.0,4.6622,0.0,0.0,0.0,4.9615,5.0594,5.1147,5.1272,5.1373,5.1649,5.1674,5.1741,5.2051,5.3256,5.4205,5.4441,5.5985,5.7193,5.7473,5.8349,5.8995,5.902,5.9045,5.9073,5.9156,6.0256,6.1097,6.1382,6.1785,6.188,6.1555,6.2997,6.4292,6.5493,6.7343,6.9159,7.0889,7.1248,7.1577,7.1906,7.2265,7.2385,7.2445,7.3103,7.3582,7.3911,7.424,7.4604,7.4903,7.4903,7.4903,7.4903,7.4903,7.4903,7.4903,7.4903,7.4903,7.4903,7.4903,7.4903,7.4903,7.4903,7.4903,7.4903,7.4903,7.5384,7.6431,7.8909,8.0167,8.1421,8.3844,8.4473,8.4614,8.4614,8.4614,8.4478,8.4133,8.3734,8.3126,8.2035,8.1224,8.075,8.075,8.0445,8.0209,8.0209,8.0209,8.0209,8.0209,8.0209,8.0784,8.2246,8.2408,8.3024,8.4512,8.4614,8.4614,8.4614,8.4614,8.4614,8.4614,8.4614,8.4614,8.4614,8.4614,8.4614,8.4606,8.5626,8.636,0.0,0.0,0.0,0.0,0.0,4.8291,0.0,0.0,0.0,5.0645,5.1046,5.1448,5.1448,5.1071,5.087,5.1255,5.2477,5.3206,5.2678,5.4582,5.6211,5.6642,5.7845,5.8704,5.886,5.8588,5.8578,5.8996,6.0147,6.0909,6.1113,6.149,6.1715,6.1715,6.2962,6.4353,6.595,6.7376,6.8978,7.0739,7.0829,7.0889,7.0919,7.1457,7.1697,7.1727,7.2415,7.3013,7.3522,7.3791,7.421,7.4723,7.4873,7.4903,7.4903,7.4903,7.4903,7.4903,7.4903,7.4903,7.4903,7.4903,7.4903,7.4903,7.4903,7.4903,7.4903,7.4903,7.5859,7.735,7.9313,8.0799,8.2263,8.4143,8.4614,8.4614,8.4614,8.4614,8.4614,8.4614,8.4478,8.4005,8.2813,8.1629,8.0987,8.1426,8.0885,8.0412,8.0412,8.0276,8.0209,8.0209,8.0209,8.075,8.2069,8.2205,8.2813,8.4275,8.4377,8.4444,8.458,8.4614,8.4614,8.4614,8.4614,8.4614,8.4614,8.4614,8.4686,8.4917,8.5921,8.691,0.0,0.0,0.0,0.0,4.7205,0.0,0.0,0.0,5.0042,5.0996,0.0,5.2026,5.2026,0.0,0.0,5.1381,5.185,5.2101,5.1548,5.2562,5.4069,5.6065,5.6721,5.7311,5.7988,5.8014,5.8001,5.8052,5.8553,5.9194,6.0043,6.0444,6.0694,6.0694,6.1152,6.2372,6.4255,6.5399,6.7372,7.0081,7.0649,7.0889,7.0889,7.0979,7.1009,7.1038,7.1727,7.2056,7.2206,7.3402,7.3941,7.4061,7.4693,7.4903,7.4903,7.4903,7.4903,7.4903,7.4903,7.4903,7.4903,7.4903,7.4903,7.4903,7.4903,7.4903,7.4903,7.4903,7.5859,7.735,7.9313,8.0799,8.2263,8.4143,8.4614,8.4614,8.4614,8.4614,8.4614,8.4614,8.4065,8.3558,8.3389,8.3219,8.2915,8.2374,8.1629,8.1181,8.1181,8.0581,8.0209,8.0209,8.0209,8.0513,8.1384,8.1393,8.2035,8.3524,8.3625,8.393,8.458,8.4614,8.4614,8.4614,8.4614,8.4614,8.4614,8.4614,8.5074,8.5946,8.6958,8.7967,0.0,0.0,0.0,0.0,0.0,0.0,4.9238,0.0,5.1096,0.0,0.0,0.0,0.0,0.0,0.0,0.0,5.2026,5.2402,5.1825,5.2703,5.3607,5.42,5.5005,5.5782,5.6406,5.6721,5.7047,5.7336,5.8352,5.9147,5.9526,6.0462,6.0895,6.0605,6.127,6.2725,6.5021,6.5747,6.7539,7.053,7.0769,7.0889,7.0889,7.0889,7.0889,7.0919,7.1188,7.1517,7.1966,7.2924,7.3552,7.3971,7.4663,7.4903,7.4903,7.4903,7.4903,7.4903,7.4903,7.4903,7.4903,7.4903,7.4903,7.4903,7.4903,7.4903,7.5074,7.5826,7.7123,7.8691,8.05,8.2091,8.3426,8.4366,8.4614,8.4614,8.4614,8.4614,8.4614,8.4614,8.4343,8.414,8.414,8.3422,8.2915,8.3016,8.2408,8.1934,8.1934,8.1291,8.0818,8.0818,8.0445,8.0479,8.1249,8.1697,8.2374,8.3422,8.3896,8.4275,8.458,8.4614,8.4614,8.4614,8.4614,8.4614,8.4614,8.517,8.5996,8.6982,8.741,8.8126,4.9766,0.0,0.0,0.0,0.0,0.0,0.0,0.0,0.0,0.0,0.0,0.0,0.0,0.0,0.0,0.0,0.0,5.2468,5.195,5.2678,5.3181,5.292,5.3758,5.4522,5.4888,5.5566,5.6143,5.6508,5.771,5.8617,5.9071,6.0045,6.0581,6.0546,6.1382,6.3058,6.5632,6.6118,6.7907,7.0889,7.0889,7.0889,7.0889,7.0889,7.0889,7.0889,7.0889,7.1188,7.1697,7.2565,7.3193,7.3702,7.4574,7.4903,7.4903,7.4903,7.4903,7.4903,7.4903,7.4903,7.4903,7.4903,7.4903,7.4903,7.4903,7.4903,7.521,7.6528,7.8058,7.9681,8.1362,8.2976,8.4292,8.456,8.4614,8.4614,8.4614,8.4614,8.4614,8.4614,8.4614,8.4614,8.4614,8.3531,8.2949,8.3693,8.2847,8.2171,8.2374,8.1562,8.0987,8.0987,8.0513,8.0412,8.0953,8.1494,8.2205,8.3152,8.3896,8.4377,8.458,8.4411,8.4377,8.4614,8.4377,8.4377,8.4614,8.5626,8.663,8.762,8.7875,8.8566,5.0544,4.9992,4.9464,4.8994,4.841,0.0,0.0,0.0,5.0436,0.0,0.0,0.0,0.0,0.0,0.0,0.0,0.0,0.0,0.0,5.18,5.2352,5.2845,5.3406,5.3733,5.3758,5.4762,5.5415,5.544,5.5968,5.693,5.8462,5.8576,5.9084,6.0074,6.0965,6.2625,6.5186,6.6012,6.7907,7.0889,7.0889,7.0889,7.0889,7.0889,7.0889,7.0889,7.0889,7.0919,7.1038,7.2385,7.2924,7.3073,7.436,7.4903,7.4903,7.4903,7.4903,7.4903,7.4903,7.4903,7.4903,7.4903,7.4903,7.4903,7.4903,7.4903,7.521,7.6528,7.8058,7.9681,8.1362,8.2976,8.4292,8.456,8.4614,8.4614,8.4614,8.4614,8.4614,8.4614,8.4614,8.4614,8.4614,8.3964,8.3727,8.4444,8.2712,8.1596,8.2306,8.1122,8.0242,8.0242,8.0209,8.0209,8.0242,8.0242,8.0885,8.2314,8.3118,8.3862,8.458,8.393,8.3862,8.458,8.3896,8.3896,8.4614,8.5626,8.663,8.762,8.8588,8.9591,5.1473,5.1122,5.0745,5.0921,5.0544,5.0142,5.0142,0.0,0.0,0.0,0.0,0.0,0.0,0.0,0.0,0.0,0.0,0.0,0.0,5.1674,5.1774,5.2327,5.2528,5.2779,5.3155,5.3532,5.421,5.5315,5.5892,5.6557,5.7459,5.849,5.9072,5.9172,6.0329,6.2328,6.5151,6.5738,6.7673,7.0889,7.0889,7.0889,7.0889,7.0889,7.0889,7.0889,7.0889,7.0889,7.1009,7.2355,7.2924,7.3043,7.436,7.4903,7.4903,7.4903,7.4903,7.4903,7.4903,7.4903,7.4903,7.4903,7.4903,7.4903,7.4903,7.4903,7.535,7.7577,7.8879,8.0167,8.2496,8.3796,8.4507,8.4587,8.4614,8.4614,8.4614,8.4614,8.4614,8.4614,8.4614,8.4614,8.4614,8.3998,8.3592,8.3828,8.3659,8.3219,8.2509,8.1968,8.146,8.0953,8.0479,8.0209,8.0209,8.0648,8.1359,8.234,8.3084,8.3389,8.3126,8.3389,8.3389,8.3126,8.2915,8.3184,8.4077,8.5055,8.6333,8.7829,8.8822,8.9758,5.2126,5.185,5.1599,5.1774,5.1548,5.1306,5.1306,5.1456,5.1674,0.0,0.0,0.0,0.0,0.0,0.0,0.0,0.0,0.0,0.0,5.2101,5.1925,5.2076,5.1925,5.2026,5.2544,5.277,5.3457,5.4687,5.5491,5.6168,5.6684,5.7824,5.8542,5.8704,5.9795,6.1894,6.5,6.5667,6.7604,7.0694,7.0824,7.0889,7.0889,7.0889,7.0889,7.0889,7.0889,7.1038,7.1338,7.2445,7.3043,7.3373,7.445,7.4903,7.4903,7.4903,7.4903,7.4903,7.4903,7.4903,7.4903,7.4903,7.4903,7.4903,7.4903,7.5214,7.6094,7.828,7.9682,8.1006,8.321,8.4211,8.4614,8.4614,8.4614,8.4614,8.4614,8.4614,8.4614,8.4614,8.4614,8.4614,8.4614,8.4208,8.3896,8.3896,8.3625,8.3186,8.2509,8.1934,8.1426,8.0953,8.0479,8.0209,8.0209,8.0648,8.1224,8.1968,8.2441,8.2611,8.2408,8.2881,8.3016,8.2813,8.287,8.3335,8.4245,8.5261,8.6364,8.75,8.8518,8.9386]}]]